[[{"header":{"parameterUnit":"m.s-1","parameterCategory":1,"la1":31.0,"la2":29.5877,"lo1":-88.7671,"lo2":-86.6584,"dx":0.0162,"dy":0.0185,"nx":115,"ny":88,"refTime":"2022-11-23T06:00:00:Z","depth":0,"parameterNumber":2,"parameterNumberName":"U-component_of_WINDS"},"data":[0.0,0.0,0.0,0.0,0.0,0.0,0.0,0.0,0.0,0.0,0.0,0.0,0.0,0.0,0.0,0.0,0.0,0.0,0.0,0.0,0.0,0.0,0.0,0.0,0.0,0.0,0.0,0.0,0.0,0.0,0.0,0.0,0.0,0.0,0.0,0.0,0.0,0.0,0.0,0.0,0.0,0.0,0.0,0.0,0.0,0.0,0.0,0.0,0.0,0.0,0.0,0.0,0.0,0.0,0.0,0.0,0.0,0.0,0.0,0.0,0.0,0.0,0.0,0.0,0.0,0.0,0.0,0.0,0.0,0.0,0.0,0.0,0.0,0.0,0.0,0.0,0.0,0.0,0.0,0.0,0.0,0.0,0.0,0.0,0.0,0.0,0.0,0.0,0.0,0.0,0.0,0.0,0.0,0.0,0.0,0.0,0.0,0.0,0.0,0.0,0.0,0.0,0.0,0.0,0.0,0.0,0.0,0.0,0.0,0.0,0.0,0.0,0.0,0.0,0.0,0.0,0.0,0.0,0.0,0.0,0.0,0.0,0.0,0.0,0.0,0.0,0.0,0.0,0.0,0.0,0.0,0.0,0.0,0.0,0.0,0.0,0.0,0.0,0.0,0.0,0.0,0.0,0.0,0.0,0.0,0.0,0.0,0.0,0.0,0.0,0.0,0.0,0.0,0.0,0.0,0.0,0.0,0.0,0.0,0.0,0.0,0.0,0.0,0.0,0.0,0.0,0.0,0.0,0.0,0.0,0.0,0.0,0.0,0.0,0.0,0.0,0.0,0.0,0.0,0.0,0.0,0.0,0.0,0.0,0.0,0.0,0.0,0.0,0.0,0.0,0.0,0.0,0.0,0.0,0.0,0.0,0.0,0.0,0.0,0.0,0.0,0.0,0.0,0.0,0.0,0.0,0.0,0.0,0.0,0.0,0.0,0.0,0.0,0.0,0.0,0.0,0.0,0.0,0.0,0.0,0.0,0.0,0.0,0.0,0.0,0.0,0.0,0.0,0.0,0.0,0.0,0.0,0.0,0.0,0.0,0.0,0.0,0.0,0.0,0.0,0.0,0.0,0.0,0.0,0.0,0.0,0.0,0.0,0.0,0.0,0.0,0.0,0.0,0.0,0.0,0.0,0.0,0.0,0.0,0.0,0.0,0.0,0.0,0.0,0.0,0.0,0.0,0.0,0.0,0.0,0.0,0.0,0.0,0.0,0.0,0.0,0.0,0.0,0.0,0.0,0.0,0.0,0.0,0.0,0.0,0.0,0.0,0.0,0.0,0.0,0.0,0.0,0.0,0.0,0.0,0.0,0.0,0.0,0.0,0.0,0.0,0.0,0.0,0.0,0.0,0.0,0.0,0.0,0.0,0.0,0.0,0.0,0.0,0.0,0.0,0.0,0.0,0.0,0.0,0.0,0.0,0.0,0.0,0.0,0.0,0.0,0.0,0.0,0.0,0.0,0.0,0.0,0.0,0.0,0.0,0.0,0.0,0.0,0.0,0.0,0.0,0.0,0.0,0.0,0.0,0.0,0.0,0.0,0.0,0.0,0.0,0.0,0.0,0.0,0.0,0.0,0.0,0.0,0.0,0.0,0.0,0.0,0.0,0.0,0.0,0.0,0.0,0.0,0.0,0.0,0.0,0.0,0.0,0.0,0.0,0.0,0.0,0.0,0.0,0.0,0.0,0.0,0.0,0.0,0.0,0.0,0.0,0.0,0.0,0.0,0.0,0.0,0.0,0.0,0.0,0.0,0.0,0.0,0.0,0.0,0.0,0.0,0.0,0.0,0.0,0.0,0.0,0.0,0.0,0.0,0.0,0.0,0.0,0.0,0.0,0.0,0.0,0.0,0.0,0.0,0.0,0.0,0.0,0.0,0.0,0.0,0.0,0.0,0.0,0.0,0.0,0.0,0.0,0.0,0.0,0.0,0.0,0.0,0.0,0.0,0.0,0.0,0.0,0.0,0.0,0.0,0.0,0.0,0.0,0.0,0.0,0.0,0.0,0.0,0.0,0.0,0.0,0.0,0.0,0.0,0.0,0.0,0.0,0.0,0.0,0.0,0.0,0.0,0.0,0.0,0.0,0.0,0.0,0.0,0.0,0.0,0.0,0.0,0.0,0.0,0.0,0.0,0.0,0.0,0.0,0.0,0.0,0.0,0.0,0.0,0.0,0.0,0.0,0.0,0.0,0.0,0.0,0.0,0.0,0.0,0.0,0.0,0.0,0.0,0.0,0.0,0.0,0.0,0.0,0.0,0.0,0.0,0.0,0.0,0.0,0.0,0.0,0.0,0.0,0.0,0.0,0.0,0.0,0.0,0.0,0.0,0.0,0.0,0.0,0.0,0.0,0.0,0.0,0.0,0.0,0.0,0.0,0.0,0.0,0.0,0.0,0.0,0.0,0.0,0.0,0.0,0.0,0.0,0.0,0.0,0.0,0.0,0.0,0.0,0.0,0.0,0.0,0.0,0.0,0.0,0.0,0.0,0.0,0.0,0.0,0.0,0.0,0.0,0.0,0.0,0.0,0.0,0.0,0.0,0.0,0.0,0.0,0.0,0.0,0.0,0.0,0.0,0.0,0.0,0.0,0.0,0.0,0.0,0.0,0.0,0.0,0.0,0.0,0.0,0.0,0.0,0.0,0.0,0.0,0.0,0.0,0.0,0.0,0.0,0.0,0.0,0.0,0.0,0.0,0.0,0.0,0.0,0.0,0.0,0.0,0.0,0.0,0.0,0.0,0.0,0.0,0.0,0.0,0.0,0.0,0.0,0.0,0.0,0.0,0.0,0.0,0.0,0.0,0.0,0.0,0.0,0.0,0.0,0.0,0.0,0.0,0.0,0.0,0.0,0.0,0.0,0.0,0.0,0.0,0.0,0.0,0.0,0.0,0.0,0.0,0.0,0.0,0.0,0.0,0.0,0.0,0.0,0.0,0.0,0.0,0.0,0.0,0.0,0.0,0.0,0.0,0.0,0.0,0.0,0.0,0.0,0.0,0.0,0.0,0.0,0.0,0.0,0.0,0.0,0.0,0.0,0.0,0.0,0.0,0.0,0.0,0.0,0.0,0.0,0.0,0.0,0.0,0.0,0.0,0.0,0.0,0.0,0.0,0.0,0.0,0.0,0.0,0.0,0.0,0.0,0.0,0.0,0.0,0.0,0.0,0.0,0.0,0.0,0.0,0.0,0.0,0.0,0.0,0.0,0.0,0.0,0.0,0.0,0.0,0.0,0.0,0.0,0.0,0.0,0.0,0.0,0.0,0.0,0.0,0.0,0.0,0.0,0.0,0.0,0.0,0.0,0.0,0.0,0.0,0.0,0.0,0.0,0.0,0.0,0.0,0.0,0.0,0.0,0.0,0.0,0.0,0.0,0.0,0.0,0.0,0.0,0.0,0.0,0.0,0.0,0.0,0.0,0.0,0.0,0.0,0.0,0.0,0.0,0.0,0.0,0.0,0.0,0.0,0.0,0.0,0.0,0.0,0.0,0.0,0.0,0.0,0.0,0.0,0.0,0.0,0.0,0.0,0.0,0.0,0.0,0.0,0.0,0.0,0.0,0.0,0.0,0.0,0.0,0.0,0.0,0.0,0.0,0.0,0.0,0.0,0.0,0.0,0.0,0.0,0.0,0.0,0.0,0.0,0.0,0.0,0.0,0.0,0.0,0.0,0.0,0.0,0.0,0.0,0.0,0.0,0.0,0.0,0.0,0.0,0.0,0.0,0.0,0.0,0.0,0.0,0.0,0.0,0.0,0.0,0.0,0.0,0.0,0.0,0.0,0.0,0.0,0.0,0.0,0.0,0.0,0.0,0.0,0.0,0.0,0.0,0.0,0.0,0.0,0.0,0.0,0.0,0.0,0.0,0.0,0.0,0.0,0.0,0.0,0.0,0.0,0.0,0.0,0.0,0.0,0.0,0.0,0.0,0.0,0.0,0.0,0.0,0.0,0.0,0.0,0.0,0.0,0.0,0.0,0.0,0.0,0.0,0.0,0.0,0.0,0.0,0.0,0.0,0.0,0.0,0.0,0.0,0.0,0.0,0.0,0.0,0.0,0.0,0.0,0.0,0.0,0.0,0.0,0.0,0.0,0.0,0.0,0.0,0.0,0.0,0.0,0.0,0.0,0.0,0.0,0.0,0.0,0.0,0.0,0.0,0.0,0.0,0.0,0.0,0.0,0.0,0.0,0.0,0.0,0.0,0.0,0.0,0.0,0.0,0.0,0.0,0.0,0.0,0.0,0.0,0.0,0.0,0.0,1.3605,0.0,0.0,0.0,1.3597,0.0,0.0,0.0,0.0,0.0,0.0,0.0,0.0,0.0,0.0,0.0,0.0,0.0,0.0,0.0,0.0,0.0,0.0,0.0,0.0,0.0,0.0,0.0,0.0,0.0,0.0,0.0,0.0,0.0,0.0,0.0,0.0,0.0,0.0,0.0,0.0,0.0,0.0,0.0,0.0,0.0,0.0,0.0,0.0,0.0,0.0,0.0,0.0,0.0,0.0,0.0,0.0,0.0,0.0,0.0,0.0,0.0,0.0,0.0,0.0,0.0,0.0,0.0,0.0,0.0,0.0,0.0,0.0,0.0,0.0,0.0,0.0,0.0,0.0,0.0,0.0,0.0,0.0,0.0,0.0,0.0,0.0,0.0,0.0,0.0,0.0,0.0,0.0,0.0,0.0,0.0,0.0,0.0,0.0,0.0,0.0,0.0,0.0,0.0,0.0,0.0,0.0,0.0,0.0,0.0,0.0,0.0,0.0,0.0,0.0,1.3605,1.3605,1.3605,1.3605,1.3589,0.0,0.0,0.0,0.0,0.0,0.0,0.0,0.0,0.0,0.0,0.0,0.0,0.0,0.0,0.0,0.0,0.0,0.0,0.0,0.0,0.0,0.0,0.0,0.0,0.0,0.0,0.0,0.0,0.0,0.0,0.0,0.0,0.0,0.0,0.0,0.0,0.0,0.0,0.0,0.0,0.0,0.0,0.0,0.0,0.0,0.0,0.0,0.0,0.0,0.0,0.0,0.0,0.0,0.0,0.0,0.0,0.0,0.0,0.0,0.0,0.0,0.0,0.0,0.0,0.0,0.0,0.0,0.0,0.0,0.0,0.0,0.0,0.0,0.0,0.0,0.0,0.0,0.0,0.0,0.0,0.0,0.0,0.0,0.0,0.0,0.0,0.0,0.0,0.0,0.0,0.0,0.0,0.0,0.0,0.0,0.0,0.0,0.0,0.0,0.0,0.0,0.0,0.0,0.0,0.0,0.0,0.0,0.0,0.0,0.0,0.0,0.0,1.3605,1.3561,1.3453,0.0,0.0,0.0,0.0,0.0,0.0,0.0,0.0,0.0,0.0,0.0,0.0,0.0,0.0,0.0,0.0,0.0,0.0,0.0,0.0,0.0,0.0,0.0,0.0,0.0,0.0,0.0,0.0,0.0,0.0,0.0,0.0,0.0,0.0,0.0,0.0,0.0,0.0,0.0,0.0,0.0,0.0,0.0,0.0,0.0,0.0,0.0,0.0,0.0,0.0,0.0,0.0,0.0,0.0,0.0,0.0,0.0,0.0,0.0,0.0,0.0,0.0,0.0,0.0,0.0,0.0,0.0,0.0,0.0,0.0,0.0,0.0,0.0,0.0,0.0,0.0,0.0,0.0,0.0,0.0,0.0,0.0,0.0,0.0,0.0,0.0,0.0,0.0,0.0,0.0,0.0,0.0,0.0,0.0,0.0,0.0,0.0,0.0,0.0,0.0,0.0,0.0,0.0,0.0,0.0,0.0,0.0,0.0,0.0,0.0,1.3605,1.3605,1.3605,0.0,1.3076,0.0,0.0,0.0,0.0,0.0,0.0,0.0,0.0,0.0,0.0,0.0,0.0,0.0,0.0,0.0,0.0,0.0,0.0,0.0,0.0,0.0,0.0,0.0,0.0,0.0,0.0,0.0,0.0,0.0,0.0,0.0,0.0,0.0,0.0,0.0,0.0,0.0,0.0,0.0,0.0,0.0,0.0,0.0,0.0,0.0,0.0,0.0,0.0,0.0,0.0,0.0,0.0,0.0,0.0,0.0,0.0,0.0,0.0,0.0,0.0,0.0,0.0,0.0,0.0,0.0,0.0,0.0,0.0,0.0,0.0,0.0,0.0,0.0,0.0,0.0,0.0,0.0,0.0,0.0,0.0,0.0,0.0,0.0,0.0,0.0,0.0,0.0,0.0,0.0,0.0,0.0,0.0,0.0,0.0,0.0,0.0,0.0,0.0,0.0,0.0,0.0,0.0,0.0,0.0,0.0,0.0,0.0,0.0,0.0,0.0,1.3605,1.3605,1.3605,1.3408,0.0,0.0,0.0,0.0,0.0,0.0,0.0,0.0,0.0,0.0,0.0,0.0,0.0,0.0,0.0,0.0,0.0,0.0,0.0,0.0,0.0,0.0,0.0,0.0,0.0,0.0,0.0,0.0,0.0,0.0,0.0,0.0,0.0,0.0,0.0,0.0,0.0,0.0,0.0,0.0,0.0,0.0,0.0,0.0,0.0,0.0,0.0,0.0,0.0,0.0,0.0,0.0,0.0,0.0,0.0,0.0,0.0,0.0,0.0,0.0,0.0,0.0,0.0,0.0,0.0,0.0,0.0,0.0,0.0,0.0,0.0,0.0,0.0,0.0,0.0,0.0,0.0,0.0,0.0,0.0,0.0,0.0,0.0,0.0,0.0,0.0,0.0,0.0,0.0,0.0,0.0,0.0,0.0,0.0,0.0,0.0,0.0,0.0,0.0,0.0,0.0,0.0,0.0,0.0,0.0,0.0,0.0,0.0,0.0,0.0,1.3916,1.405,1.4214,1.3966,1.365,1.3226,0.0,0.0,0.0,0.0,0.0,0.0,0.0,0.0,0.0,0.0,0.0,0.0,0.0,0.0,0.0,0.0,0.0,0.0,0.0,0.0,0.0,0.0,0.0,0.0,0.0,0.0,0.0,0.0,0.0,0.0,0.0,0.0,0.0,0.0,0.0,0.0,0.0,0.0,0.0,0.0,0.0,0.0,0.0,0.0,0.0,0.0,0.0,0.0,0.0,0.0,0.0,0.0,0.0,0.0,0.0,0.0,0.0,0.0,0.0,0.0,0.0,0.0,0.0,0.0,0.0,0.0,0.0,0.0,0.0,0.0,0.0,0.0,0.0,0.0,0.0,0.0,0.0,0.0,0.0,0.0,0.0,0.0,0.0,0.0,0.0,0.0,0.0,0.0,0.0,0.0,0.0,0.0,0.0,0.0,0.0,0.0,0.0,0.0,0.0,0.0,0.0,0.0,0.0,0.0,0.0,0.0,0.0,0.0,1.4722,1.4761,1.509,1.5748,1.4912,1.431,0.0,0.0,0.0,0.0,0.0,0.0,0.0,0.0,0.0,0.0,0.0,0.0,0.0,0.0,0.0,0.0,0.0,0.0,0.0,0.0,0.0,0.0,0.0,0.0,0.0,0.0,0.0,0.0,0.0,0.0,0.0,0.0,0.0,0.0,0.0,0.0,0.0,0.0,0.0,0.0,0.0,0.0,0.0,0.0,0.0,0.0,0.0,0.0,0.0,0.0,0.0,0.0,0.0,0.0,0.0,0.0,0.0,0.0,0.0,0.0,0.0,0.0,0.0,0.0,0.0,0.0,0.0,0.0,0.0,0.0,0.0,0.0,0.0,0.0,0.0,0.0,0.0,0.0,0.0,0.0,0.0,0.0,0.0,0.0,0.0,0.0,0.0,0.0,0.0,0.0,0.0,0.0,0.0,0.0,0.0,0.0,0.0,0.0,0.0,0.0,0.0,0.0,0.0,0.0,0.0,0.0,0.0,0.0,0.0,1.4982,1.591,1.6449,1.657,1.5668,1.4785,0.0,0.0,0.0,0.0,0.0,0.0,0.0,0.0,0.0,0.0,0.0,0.0,0.0,0.0,0.0,0.0,0.0,0.0,0.0,0.0,0.0,0.0,0.0,0.0,0.0,0.0,0.0,0.0,0.0,0.0,0.0,0.0,0.0,0.0,0.0,0.0,0.0,0.0,0.0,0.0,0.0,0.0,0.0,0.0,0.0,0.0,0.0,0.0,0.0,0.0,0.0,0.0,0.0,0.0,0.0,0.0,0.0,0.0,0.0,0.0,0.0,0.0,0.0,0.0,0.0,0.0,0.0,0.0,0.0,0.0,0.0,0.0,0.0,0.0,0.0,0.0,0.0,0.0,0.0,0.0,0.0,0.0,0.0,0.0,0.0,0.0,0.0,0.0,0.0,0.0,0.0,0.0,0.0,0.0,0.0,0.0,0.0,0.0,0.0,0.0,0.0,0.0,0.0,0.0,0.0,0.0,0.0,0.0,0.0,1.704,1.847,1.9258,1.9352,1.7805,1.6377,0.0,0.0,0.0,0.0,0.0,0.0,0.0,0.0,0.0,0.0,0.0,0.0,0.0,0.0,0.0,0.0,0.0,0.0,0.0,0.0,0.0,0.0,0.0,0.0,0.0,0.0,0.0,0.0,0.0,0.0,0.0,0.0,0.0,0.0,0.0,0.0,0.0,0.0,0.0,0.0,0.0,0.0,0.0,0.0,0.0,0.0,0.0,0.0,0.0,0.0,0.0,0.0,0.0,0.0,0.0,0.0,0.0,0.0,0.0,0.0,0.0,0.0,0.0,0.0,0.0,0.0,0.0,0.0,0.0,0.0,0.0,0.0,0.0,0.0,0.0,0.0,0.0,0.0,0.0,0.0,0.0,0.0,0.0,0.0,0.0,0.0,0.0,0.0,0.0,0.0,0.0,0.0,0.0,0.0,0.0,0.0,0.0,0.0,0.0,0.0,0.0,0.0,0.0,0.0,0.0,0.0,0.0,0.0,1.7178,2.1038,2.2435,2.343,2.4276,2.1481,1.9148,0.0,0.0,0.0,0.0,0.0,0.0,0.0,0.0,0.0,0.0,0.0,0.0,0.0,0.0,0.0,0.0,0.0,0.0,0.0,0.0,0.0,0.0,0.0,0.0,0.0,0.0,0.0,0.0,0.0,0.0,0.0,0.0,0.0,0.0,0.0,0.0,0.0,0.0,0.0,0.0,0.0,0.0,0.0,0.0,0.0,0.0,0.0,0.0,0.0,0.0,0.0,0.0,0.0,0.0,0.0,0.0,0.0,0.0,0.0,0.0,0.0,0.0,0.0,0.0,0.0,0.0,0.0,0.0,0.0,0.0,0.0,0.0,0.0,0.0,0.0,0.0,0.0,0.0,0.0,0.0,0.0,0.0,0.0,0.0,0.0,0.0,0.0,0.0,0.0,0.0,0.0,0.0,0.0,0.0,0.0,0.0,0.0,0.0,0.0,0.0,0.0,0.0,0.0,0.0,0.0,0.0,0.0,0.0,0.0,2.3365,2.5065,2.6029,2.6177,2.3411,2.0671,0.0,0.0,0.0,0.0,0.0,0.0,0.0,0.0,0.0,0.0,0.0,0.0,0.0,0.0,0.0,0.0,0.0,0.0,0.0,0.0,0.0,0.0,0.0,0.0,0.0,0.0,0.0,0.0,0.0,0.0,0.0,0.0,0.0,0.0,0.0,0.0,0.0,0.0,0.0,0.0,0.0,0.0,0.0,0.0,0.0,0.0,0.0,0.0,0.0,0.0,0.0,0.0,0.0,0.0,0.0,0.0,0.0,0.0,0.0,0.0,0.0,0.0,0.0,0.0,0.0,0.0,0.0,0.0,0.0,0.0,0.0,0.0,0.0,0.0,0.0,0.0,0.0,0.0,0.0,0.0,0.0,0.0,0.0,0.0,0.0,0.0,0.0,0.0,0.0,0.0,0.0,0.0,0.0,0.0,0.0,0.0,0.0,0.0,0.0,0.0,0.0,0.0,0.0,0.0,0.0,0.0,0.0,0.0,0.0,2.7646,2.8527,2.9038,2.9093,2.6048,2.2906,1.9834,0.0,0.0,0.0,0.0,0.0,0.0,0.0,0.0,0.0,0.0,0.0,0.0,0.0,0.0,0.0,0.0,0.0,0.0,0.0,0.0,0.0,0.0,0.0,0.0,0.0,0.0,0.0,0.0,0.0,0.0,0.0,0.0,0.0,0.0,0.0,0.0,0.0,0.0,0.0,0.0,0.0,0.0,0.0,0.0,0.0,0.0,0.0,0.0,0.0,0.0,0.0,0.0,0.0,0.0,0.0,0.0,0.0,0.0,0.0,0.0,0.0,0.0,0.0,0.0,0.0,0.0,0.0,0.0,0.0,0.0,0.0,0.0,0.0,0.0,0.0,0.0,0.0,0.0,0.0,0.0,0.0,0.0,0.0,0.0,0.0,0.0,0.0,0.0,0.0,0.0,0.0,0.0,0.0,0.0,0.0,0.0,0.0,0.0,0.0,0.0,0.0,0.0,0.0,0.0,0.0,0.0,0.0,0.0,3.3237,3.2694,3.2459,3.263,2.9211,2.5704,0.0,0.0,0.0,0.0,0.0,0.0,0.0,0.0,0.0,0.0,0.0,0.0,0.0,0.0,0.0,0.0,0.0,0.0,0.0,0.0,0.0,0.0,0.0,0.0,0.0,0.0,0.0,0.0,0.0,0.0,0.0,0.0,0.0,0.0,0.0,0.0,0.0,0.0,0.0,0.0,0.0,0.0,0.0,0.0,0.0,0.0,0.0,0.0,0.0,0.0,0.0,0.0,0.0,0.0,0.0,0.0,0.0,0.0,0.0,0.0,0.0,0.0,0.0,0.0,0.0,0.0,0.0,0.0,0.0,0.0,0.0,0.0,0.0,0.0,0.0,0.0,0.0,0.0,0.0,0.0,0.0,0.0,0.0,0.0,0.0,0.0,0.0,0.0,0.0,0.0,0.0,0.0,0.0,0.0,0.0,0.0,0.0,0.0,0.0,0.0,0.0,0.0,0.0,0.0,0.0,0.0,0.0,0.0,0.0,3.4591,3.5956,3.6157,3.5096,3.1438,2.7761,0.0,0.0,0.0,0.0,0.0,0.0,0.0,0.0,0.0,0.0,0.0,0.0,0.0,0.0,0.0,0.0,0.0,0.0,0.0,0.0,0.0,0.0,0.0,0.0,0.0,0.0,0.0,0.0,0.0,0.0,0.0,0.0,0.0,0.0,0.0,0.0,0.0,0.0,0.0,0.0,0.0,0.0,0.0,0.0,0.0,0.0,0.0,0.0,0.0,0.0,0.0,0.0,0.0,0.0,0.0,0.0,0.0,0.0,0.0,0.0,0.0,0.0,0.0,0.0,0.0,0.0,0.0,0.0,0.0,0.0,0.0,0.0,0.0,0.0,0.0,0.0,0.0,0.0,0.0,0.0,0.0,0.0,0.0,0.0,0.0,0.0,0.0,0.0,0.0,0.0,0.0,0.0,0.0,0.0,0.0,0.0,0.0,0.0,0.0,0.0,0.0,0.0,0.0,0.0,0.0,0.0,0.0,0.0,3.3657,3.6043,3.8106,3.854,3.7143,3.3231,2.9378,0.0,0.0,0.0,0.0,0.0,0.0,0.0,0.0,0.0,0.0,0.0,0.0,0.0,0.0,0.0,0.0,0.0,0.0,0.0,0.0,0.0,0.0,0.0,0.0,0.0,0.0,0.0,0.0,0.0,0.0,0.0,0.0,0.0,0.0,0.0,0.0,0.0,0.0,0.0,0.0,0.0,0.0,0.0,0.0,0.0,0.0,0.0,0.0,0.0,0.0,0.0,0.0,0.0,0.0,0.0,0.0,0.0,0.0,0.0,0.0,0.0,0.0,0.0,0.0,0.0,0.0,0.0,0.0,0.0,0.0,0.0,0.0,0.0,0.0,0.0,0.0,0.0,0.0,0.0,0.0,0.0,0.0,0.0,0.0,0.0,0.0,0.0,0.0,0.0,0.0,0.0,0.0,0.0,0.0,0.0,0.0,0.0,0.0,0.0,0.0,0.0,0.0,0.0,0.0,0.0,0.0,0.0,0.0,3.5056,3.7467,3.9377,3.9808,3.8506,3.4615,3.0672,0.0,0.0,0.0,0.0,0.0,0.0,0.0,0.0,0.0,0.0,0.0,0.0,0.0,0.0,0.0,0.0,0.0,0.0,0.0,0.0,0.0,0.0,0.0,0.0,0.0,0.0,0.0,0.0,0.0,0.0,0.0,0.0,0.0,0.0,0.0,0.0,0.0,0.0,0.0,0.0,0.0,0.0,0.0,0.0,0.0,0.0,0.0,0.0,0.0,0.0,0.0,0.0,0.0,0.0,0.0,0.0,0.0,0.0,0.0,0.0,0.0,0.0,0.0,0.0,0.0,0.0,0.0,0.0,0.0,0.0,0.0,0.0,0.0,0.0,0.0,0.0,0.0,0.0,0.0,0.0,0.0,0.0,0.0,0.0,0.0,0.0,0.0,0.0,0.0,0.0,0.0,0.0,0.0,0.0,0.0,0.0,0.0,0.0,0.0,0.0,0.0,0.0,0.0,0.0,0.0,0.0,0.0,0.0,3.6052,3.8716,3.9794,3.9866,3.8916,3.5186,3.1551,0.0,0.0,0.0,0.0,0.0,0.0,0.0,0.0,0.0,0.0,0.0,0.0,0.0,0.0,0.0,0.0,0.0,0.0,0.0,0.0,0.0,0.0,0.0,0.0,0.0,0.0,0.0,0.0,0.0,0.0,0.0,0.0,0.0,0.0,0.0,0.0,0.0,0.0,0.0,0.0,0.0,0.0,0.0,0.0,0.0,0.0,0.0,0.0,1.6738,0.0,0.0,0.0,0.0,0.0,0.0,0.0,0.0,0.0,0.0,0.0,0.0,0.0,0.0,0.0,0.0,0.0,0.0,0.0,0.0,0.0,0.0,0.0,0.0,0.0,0.0,0.0,0.0,0.0,0.0,0.0,0.0,0.0,0.0,0.0,0.0,0.0,0.0,0.0,0.0,0.0,0.0,0.0,0.0,0.0,0.0,0.0,0.0,0.0,0.0,0.0,0.0,0.0,0.0,0.0,0.0,0.0,0.0,0.0,3.6982,3.9028,3.978,3.9782,3.8918,3.5552,3.2127,0.0,0.0,0.0,0.0,0.0,0.0,0.0,0.0,0.0,0.0,0.0,0.0,0.0,0.0,0.0,0.0,0.0,0.0,0.0,0.0,0.0,0.0,0.0,0.0,0.0,0.0,0.0,0.0,0.0,0.0,0.0,0.0,0.0,0.0,0.0,0.0,0.0,0.0,0.0,0.0,0.0,0.0,0.0,0.0,0.0,0.0,0.0,0.0,0.0,0.0,0.0,0.0,0.0,0.0,0.0,0.0,0.0,0.0,0.0,0.0,0.0,0.0,0.0,0.0,0.0,0.0,0.0,0.0,0.0,0.0,0.0,0.0,0.0,0.0,0.0,0.0,0.0,0.0,0.0,0.0,0.0,0.0,0.0,0.0,0.0,0.0,0.0,0.0,0.0,0.0,0.0,0.0,0.0,0.0,0.0,0.0,0.0,0.0,0.0,0.0,0.0,0.0,0.0,0.0,0.0,0.0,0.0,3.4837,3.7738,3.9208,3.9806,3.9806,3.9027,3.5849,3.2543,2.9294,0.0,0.0,0.0,0.0,0.0,0.0,0.0,0.0,0.0,0.0,0.0,0.0,0.0,0.0,0.0,0.0,0.0,0.0,0.0,0.0,0.0,0.0,0.0,0.0,0.0,0.0,0.0,0.0,0.0,0.0,0.0,0.0,0.0,0.0,0.0,0.0,0.0,0.0,1.4649,1.5915,0.0,0.0,0.0,0.0,0.0,0.0,0.0,0.0,1.7692,0.0,0.0,0.0,0.0,0.0,0.0,0.0,0.0,0.0,0.0,0.0,0.0,0.0,0.0,0.0,0.0,0.0,0.0,0.0,0.0,0.0,0.0,0.0,0.0,0.0,0.0,0.0,0.0,0.0,0.0,0.0,0.0,0.0,0.0,0.0,0.0,0.0,0.0,0.0,0.0,0.0,0.0,0.0,0.0,0.0,0.0,0.0,0.0,0.0,0.0,0.0,0.0,0.0,0.0,0.0,0.0,3.131,3.5088,3.8072,4.0257,4.0486,4.0191,3.9289,3.6239,3.3049,2.9775,0.0,0.0,0.0,0.0,0.0,0.0,0.0,0.0,0.0,0.0,0.0,0.0,0.0,0.0,0.0,0.0,0.0,0.0,0.0,0.0,0.0,0.0,0.0,0.0,0.0,0.0,0.0,0.0,0.0,0.0,0.0,0.0,0.0,0.0,0.0,0.0,0.0,0.0,0.0,1.6931,1.8317,0.0,0.0,0.0,0.0,0.0,0.0,0.0,0.0,1.7309,0.0,0.0,0.0,0.0,0.0,0.0,0.0,0.0,0.0,0.0,0.0,0.0,0.0,0.0,0.0,0.0,0.0,0.0,0.0,0.0,0.0,0.0,0.0,0.0,0.0,0.0,0.0,0.0,0.0,0.0,0.0,0.0,0.0,0.0,0.0,0.0,0.0,0.0,0.0,0.0,0.0,0.0,0.0,0.0,0.0,0.0,0.0,0.0,0.0,0.0,0.0,0.0,0.0,0.0,0.0,3.2378,3.5987,3.869,4.0424,4.0526,4.0159,3.9361,3.634,3.3186,0.0,0.0,0.0,0.0,0.0,0.0,0.0,0.0,0.0,0.0,0.0,0.0,0.0,0.0,0.0,0.0,0.0,0.0,0.0,0.0,0.0,0.0,0.0,0.0,0.0,0.0,0.0,0.0,0.0,0.0,0.0,0.0,0.0,0.0,0.0,0.0,0.0,0.0,0.0,0.0,1.7805,1.9057,1.9434,0.0,0.0,0.0,0.0,0.0,0.0,1.9434,1.8396,0.0,0.0,0.0,0.0,0.0,0.0,0.0,0.0,0.0,0.0,0.0,0.0,0.0,0.0,0.0,0.0,0.0,0.0,0.0,0.0,0.0,0.0,0.0,0.0,0.0,0.0,0.0,0.0,0.0,0.0,0.0,0.0,0.0,0.0,0.0,0.0,0.0,0.0,0.0,0.0,0.0,0.0,0.0,0.0,0.0,0.0,0.0,0.0,0.0,0.0,0.0,0.0,0.0,0.0,0.0,3.3335,3.6847,3.9276,4.0524,4.0745,4.0427,3.9571,3.6733,3.3563,0.0,0.0,0.0,0.0,0.0,0.0,0.0,0.0,0.0,0.0,0.0,0.0,0.0,0.0,0.0,0.0,0.0,0.0,0.0,0.0,0.0,0.0,0.0,0.0,0.0,0.0,0.0,0.0,0.0,0.0,0.0,0.0,0.0,0.0,0.0,0.0,0.0,0.0,0.0,0.0,0.0,1.9812,2.1453,2.1911,0.0,0.0,0.0,0.0,2.1895,2.0971,0.0,0.0,0.0,0.0,0.0,0.0,0.0,0.0,0.0,0.0,0.0,0.0,0.0,0.0,0.0,0.0,0.0,0.0,0.0,0.0,0.0,0.0,0.0,0.0,0.0,0.0,0.0,0.0,0.0,0.0,0.0,0.0,0.0,0.0,0.0,0.0,0.0,0.0,0.0,0.0,0.0,0.0,0.0,0.0,0.0,0.0,0.0,0.0,0.0,0.0,0.0,0.0,0.0,0.0,0.0,0.0,3.3488,3.6939,3.954,4.1212,4.1852,4.1553,4.0307,3.7935,3.4788,0.0,0.0,0.0,0.0,0.0,0.0,0.0,0.0,0.0,0.0,0.0,0.0,0.0,0.0,0.0,0.0,0.0,0.0,0.0,0.0,0.0,0.0,0.0,0.0,0.0,0.0,0.0,0.0,0.0,0.0,0.0,0.0,0.0,0.0,0.0,0.0,0.0,0.0,0.0,0.0,0.0,2.1148,2.2773,2.3404,2.3974,0.0,0.0,2.4103,2.3676,2.2764,0.0,0.0,0.0,0.0,0.0,0.0,0.0,0.0,0.0,0.0,0.0,0.0,0.0,0.0,0.0,0.0,0.0,0.0,0.0,0.0,0.0,0.0,0.0,0.0,0.0,0.0,0.0,0.0,0.0,0.0,0.0,0.0,0.0,0.0,0.0,0.0,0.0,0.0,0.0,0.0,0.0,0.0,0.0,0.0,0.0,0.0,0.0,0.0,0.0,0.0,0.0,0.0,0.0,0.0,0.0,3.0103,3.4106,3.7425,3.9841,4.1343,4.2051,4.1762,4.0427,3.8133,3.5001,0.0,0.0,0.0,0.0,0.0,0.0,0.0,0.0,0.0,0.0,0.0,0.0,0.0,0.0,0.0,0.0,0.0,0.0,0.0,0.0,0.0,0.0,0.0,0.0,0.0,0.0,0.0,0.0,0.0,0.0,0.0,0.0,0.0,0.0,0.0,0.0,0.0,0.0,0.0,0.0,0.0,0.0,2.3974,2.4943,0.0,0.0,0.0,2.6041,2.5512,0.0,0.0,0.0,0.0,0.0,0.0,0.0,0.0,0.0,0.0,0.0,0.0,0.0,0.0,0.0,0.0,0.0,0.0,0.0,0.0,0.0,0.0,0.0,0.0,0.0,0.0,0.0,0.0,0.0,0.0,0.0,0.0,0.0,0.0,0.0,0.0,0.0,0.0,0.0,0.0,0.0,0.0,0.0,0.0,0.0,0.0,0.0,0.0,0.0,0.0,0.0,0.0,0.0,0.0,0.0,0.0,0.0,3.4398,3.7697,4.0068,4.1373,4.2182,4.1972,4.0685,3.8504,0.0,0.0,0.0,0.0,0.0,0.0,0.0,0.0,0.0,0.0,0.0,0.0,0.0,0.0,0.0,0.0,0.0,0.0,0.0,0.0,0.0,0.0,0.0,0.0,0.0,0.0,0.0,1.1455,0.0,0.0,0.0,0.0,0.0,0.0,0.0,0.0,0.0,0.0,0.0,0.0,0.0,0.0,2.4067,2.5537,2.6338,2.7082,0.0,0.0,2.7434,2.7163,2.6232,2.4968,0.0,0.0,0.0,0.0,0.0,0.0,0.0,0.0,0.0,0.0,0.0,0.0,0.0,0.0,0.0,0.0,0.0,0.0,0.0,0.0,0.0,0.0,0.0,0.0,0.0,0.0,0.0,0.0,0.0,0.0,0.0,0.0,0.0,0.0,0.0,0.0,0.0,0.0,0.0,0.0,0.0,0.0,0.0,0.0,0.0,0.0,0.0,0.0,0.0,0.0,0.0,0.0,0.0,0.0,3.0247,3.3924,3.7558,4.0068,4.1354,4.2592,4.2622,4.1343,3.9463,3.6616,0.0,0.0,0.0,0.0,0.0,0.0,0.0,0.0,0.0,0.0,0.0,0.0,0.0,0.0,0.0,0.0,0.0,0.0,0.0,0.0,0.0,0.0,0.0,0.0,0.0,0.0,0.0,0.0,0.0,0.0,0.0,0.0,0.0,0.0,0.0,0.0,0.0,0.0,0.0,0.0,0.0,2.5605,2.776,2.7506,2.7611,0.0,2.8423,2.7879,2.847,2.7715,2.6554,2.5066,0.0,0.0,0.0,0.0,0.0,0.0,0.0,0.0,0.0,0.0,0.0,0.0,0.0,0.0,0.0,0.0,0.0,0.0,0.0,0.0,0.0,0.0,0.0,0.0,0.0,0.0,0.0,0.0,0.0,0.0,0.0,0.0,0.0,0.0,0.0,0.0,0.0,0.0,0.0,0.0,0.0,0.0,0.0,0.0,0.0,0.0,0.0,0.0,0.0,0.0,0.0,0.0,0.0,3.0225,3.3879,3.7541,4.0038,4.1373,4.2651,4.2711,4.1433,3.9974,3.7368,0.0,0.0,0.0,0.0,0.0,0.0,0.0,0.0,0.0,0.0,0.0,0.0,0.0,0.0,0.0,0.0,0.0,0.0,0.0,0.0,0.0,0.0,0.0,0.0,0.0,0.0,0.0,0.0,1.554,1.548,1.4912,0.0,0.0,0.0,0.0,0.0,0.0,0.0,0.0,0.0,0.0,2.6538,2.7876,2.8147,0.0,0.0,2.9463,2.9383,2.9967,2.8865,2.7596,2.6713,2.4831,0.0,0.0,0.0,0.0,0.0,0.0,0.0,0.0,0.0,0.0,0.0,0.0,0.0,0.0,0.0,0.0,0.0,0.0,0.0,0.0,0.0,0.0,0.0,0.0,0.0,0.0,0.0,0.0,0.0,0.0,0.0,0.0,0.0,0.0,0.0,0.0,0.0,0.0,0.0,0.0,0.0,0.0,0.0,0.0,0.0,0.0,0.0,0.0,0.0,0.0,0.0,0.0,3.0714,3.447,3.7931,4.0337,4.1692,4.2761,4.2791,4.1703,4.0237,3.7793,0.0,0.0,0.0,0.0,0.0,0.0,0.0,0.0,0.0,0.0,0.0,0.0,0.0,0.0,0.0,0.0,0.0,0.0,0.0,0.0,0.0,0.0,0.0,0.0,0.0,0.0,0.0,0.0,1.6639,1.6251,1.5726,0.0,0.0,0.0,0.0,0.0,0.0,0.0,0.0,0.0,0.0,2.7851,2.8151,2.8973,2.9751,3.0323,3.015,3.0313,3.1292,2.9659,2.8306,2.8265,0.0,0.0,0.0,0.0,0.0,0.0,0.0,0.0,0.0,0.0,0.0,0.0,0.0,0.0,0.0,0.0,0.0,0.0,0.0,0.0,0.0,0.0,0.0,0.0,0.0,0.0,0.0,0.0,0.0,0.0,1.3114,0.0,0.0,0.0,0.0,0.0,0.0,0.0,0.0,0.0,0.0,0.0,0.0,0.0,0.0,0.0,0.0,0.0,0.0,0.0,0.0,0.0,0.0,3.1835,3.5803,3.8802,4.0995,4.2301,4.298,4.2941,4.2273,4.0235,3.7891,3.5264,0.0,0.0,0.0,0.0,0.0,0.0,0.0,0.0,0.0,0.0,0.0,0.0,0.0,0.0,0.0,0.0,0.0,0.0,0.0,0.0,0.0,0.0,0.0,0.0,0.0,0.0,1.7204,1.7022,1.691,0.0,0.0,0.0,0.0,0.0,0.0,0.0,0.0,0.0,0.0,2.8143,2.9605,2.8983,3.0126,3.1013,3.1243,3.0393,3.0389,3.2309,3.0045,2.847,0.0,0.0,0.0,0.0,0.0,0.0,0.0,0.0,0.0,0.0,0.0,0.0,0.0,0.0,0.0,0.0,0.0,0.0,0.0,0.0,0.0,0.0,0.0,0.0,0.0,0.0,0.0,1.9617,1.8989,0.0,0.0,0.0,0.0,0.0,0.0,0.0,0.0,0.0,0.0,0.0,2.733,2.7527,0.0,0.0,0.0,0.0,0.0,0.0,0.0,0.0,0.0,0.0,0.0,0.0,3.2343,3.6258,3.8752,4.0418,4.1259,4.191,4.1604,4.0318,3.9535,3.7299,3.3419,0.0,0.0,0.0,0.0,0.0,0.0,0.0,0.0,0.0,0.0,0.0,0.0,0.0,0.0,0.0,0.0,0.0,0.0,0.0,0.0,0.0,0.0,0.0,0.0,0.0,1.8741,0.0,0.0,0.0,0.0,0.0,0.0,0.0,0.0,0.0,0.0,0.0,2.4855,2.6963,2.8563,2.9522,2.945,3.0005,3.076,0.0,0.0,0.0,0.0,0.0,0.0,0.0,0.0,0.0,0.0,0.0,0.0,0.0,0.0,2.4463,2.3127,2.2775,2.2862,2.3378,0.0,0.0,0.0,0.0,0.0,0.0,0.0,0.0,0.0,0.0,0.0,0.0,0.0,0.0,2.3219,0.0,2.1025,0.0,0.0,0.0,0.0,0.0,0.0,0.0,0.0,2.8345,2.9453,3.0409,3.0886,3.1197,0.0,3.1295,3.0002,0.0,0.0,0.0,0.0,0.0,0.0,0.0,0.0,3.3824,3.6966,3.8967,4.0143,4.0417,4.083,4.0562,3.9498,3.8736,3.6538,3.2634,3.0018,2.724,0.0,0.0,0.0,0.0,0.0,0.0,0.0,0.0,0.0,0.0,0.0,0.0,0.0,0.0,0.0,0.0,0.0,0.0,0.0,0.0,0.0,0.0,0.0,2.0439,0.0,0.0,0.0,0.0,0.0,0.0,0.0,0.0,0.0,2.2982,2.4355,2.5991,2.7843,2.9496,3.0356,2.982,0.0,0.0,0.0,0.0,0.0,0.0,0.0,3.0094,3.0406,2.9287,2.8377,2.8525,2.8138,2.781,2.781,0.0,0.0,2.5436,2.5129,2.5291,2.5795,2.6005,2.6214,2.6454,2.7129,2.7922,0.0,0.0,0.0,0.0,0.0,0.0,0.0,0.0,2.8032,2.7621,0.0,2.5518,0.0,0.0,0.0,0.0,0.0,2.6826,0.0,0.0,3.0734,3.1775,3.2418,3.427,3.5227,3.5301,3.6142,3.6201,3.5201,3.0272,0.0,0.0,0.0,0.0,0.0,0.0,3.6151,3.79,3.9444,4.0139,3.9919,3.9903,3.9881,3.9733,3.7839,3.5573,3.3024,3.1201,2.8943,2.6122,2.4271,0.0,0.0,0.0,0.0,0.0,0.0,0.0,0.0,0.0,0.0,0.0,0.0,0.0,0.0,0.0,0.0,0.0,0.0,0.0,0.0,2.1129,0.0,0.0,0.0,0.0,0.0,0.0,0.0,0.0,0.0,0.0,2.5049,2.5985,2.7124,2.8344,0.0,0.0,0.0,0.0,3.3477,3.2492,3.2318,3.2772,3.4192,3.2241,3.113,3.2831,0.0,0.0,3.0351,2.9805,2.9427,2.9402,2.961,2.9363,2.8292,2.8348,2.8712,2.9258,2.9624,3.0057,3.0171,3.0669,3.1629,3.4589,0.0,0.0,0.0,0.0,3.1219,3.1508,3.1751,3.1535,3.128,3.0897,2.9175,0.0,0.0,0.0,0.0,0.0,0.0,3.2557,3.3438,3.5208,3.5934,3.5879,3.7447,3.8207,3.8363,3.9315,3.9096,3.7735,3.5729,3.3286,3.0479,0.0,0.0,0.0,0.0,3.6465,3.8324,3.9097,3.9588,3.9814,3.9841,3.9329,3.8259,3.671,3.5149,3.3665,3.235,3.058,2.8265,2.6454,0.0,0.0,0.0,0.0,0.0,0.0,0.0,0.0,0.0,0.0,0.0,0.0,0.0,0.0,0.0,0.0,0.0,0.0,0.0,2.3091,2.4026,2.4504,0.0,0.0,0.0,0.0,0.0,0.0,0.0,0.0,0.0,2.8129,2.8032,2.8466,0.0,0.0,3.1848,3.1673,3.2413,3.307,3.3334,3.2707,0.0,3.3507,3.2525,3.1827,3.2311,3.2061,3.1784,3.1811,3.1755,3.1712,3.1712,3.2058,3.2197,3.1851,3.0849,3.0368,3.0704,3.0938,3.113,3.1444,3.1976,3.2563,3.9091,3.6204,3.446,3.3613,3.3519,3.4296,3.4705,3.4833,3.5006,3.5052,3.4836,3.3246,3.2537,3.2565,3.2004,0.0,0.0,0.0,3.5808,3.631,3.7665,3.8106,3.7838,3.9598,4.0443,4.0498,4.1432,4.125,4.0048,3.9215,3.722,3.4204,0.0,0.0,3.4445,3.5941,3.7351,3.862,3.905,3.9186,3.9086,3.9088,3.8667,3.7756,3.673,3.5757,3.4924,3.3596,3.2019,3.008,2.8377,2.6654,0.0,0.0,0.0,0.0,0.0,0.0,0.0,0.0,0.0,0.0,0.0,1.4449,1.6107,0.0,0.0,0.0,2.2116,2.4063,2.5761,2.6634,0.0,0.0,0.0,0.0,0.0,0.0,0.0,2.756,2.7617,2.8249,3.0131,3.0064,3.0165,3.1055,3.1973,3.2569,3.2576,0.0,3.3574,3.3939,3.3455,3.3243,3.3859,3.3435,3.3071,3.3148,3.3424,3.358,3.3593,3.3705,3.3753,3.3815,3.4155,3.4465,3.4495,3.3699,3.2975,3.2797,3.29,3.3078,3.3298,3.3711,3.4125,4.2572,4.1665,3.8369,3.6374,3.5489,3.7018,3.7593,3.7548,3.8406,3.8781,3.8691,3.7511,3.7027,3.7071,3.7201,0.0,3.707,3.796,3.8226,3.7947,3.8831,3.8997,3.8692,4.1051,4.2108,4.1851,4.2829,4.2846,4.2053,4.1112,3.9915,3.8417,3.636,3.5791,3.6809,3.7902,3.8604,3.8853,3.9188,3.8971,3.8165,3.809,3.804,3.8065,3.7513,3.6985,3.6431,3.4926,3.3323,3.1733,3.0182,2.8343,2.6219,0.0,0.0,0.0,0.0,0.0,0.0,0.0,0.0,0.0,0.0,0.0,0.0,0.0,0.0,0.0,2.5337,0.0,2.7958,2.8978,0.0,0.0,0.0,2.6866,2.687,2.6806,2.7226,2.8407,0.0,0.0,3.1455,3.1942,3.1987,3.1419,3.2901,3.3775,3.3144,3.3982,3.4612,3.4395,3.4357,3.4498,3.4951,3.4812,3.4733,3.4897,3.5273,3.5438,3.5459,3.5459,3.5469,3.5531,3.5976,3.6255,3.6244,3.6502,3.6575,3.5283,3.5222,3.5418,3.5304,3.5665,3.6006,4.3701,4.2437,4.1608,4.0421,3.9214,4.0322,4.0784,4.0853,4.1725,4.2143,4.2083,4.1343,4.0733,4.0291,4.0309,4.0178,3.9955,4.0661,4.0555,3.9866,4.0928,4.114,4.0695,4.2401,4.3191,4.3216,4.4151,4.3825,4.2382,4.2086,4.1181,3.9695,3.9124,3.8441,3.7667,3.8568,3.9073,3.9186,3.9265,3.9321,3.9296,3.8894,3.8693,3.8693,3.7942,3.7343,3.6985,3.6043,3.4998,3.395,3.2361,3.1096,3.0288,2.9065,0.0,0.0,0.0,0.0,0.0,0.0,0.0,0.0,0.0,2.0725,2.2251,0.0,2.6301,0.0,3.008,3.1103,2.9905,3.0786,0.0,0.0,2.9669,2.9732,2.9451,2.9578,3.0167,3.1478,3.1715,3.2148,3.3134,3.3337,3.3369,3.3397,3.3861,3.4304,3.4444,3.4485,3.4651,3.4918,3.4835,3.4956,3.5685,3.6092,3.6257,3.6339,3.6411,3.6473,3.6473,3.6473,3.6577,3.6929,3.7384,3.7678,3.7721,3.8159,3.8208,3.7604,3.6782,3.5995,3.5718,3.6212,3.6734,4.4272,4.3458,4.3013,4.2311,4.1621,4.2553,4.2802,4.2653,4.4018,4.4476,4.4167,4.3858,4.3229,4.2472,4.2472,4.2266,4.1953,4.2018,4.1879,4.1625,4.1987,4.1905,4.1538,4.2866,4.3384,4.3307,4.3871,4.3609,4.2654,4.2138,4.1464,4.0636,4.061,4.0285,3.9625,3.973,3.9808,3.9854,3.9728,3.9677,3.9698,3.9421,3.9525,4.0079,3.9416,3.8955,3.8817,3.8442,3.7733,3.6699,3.5569,3.4738,3.4281,3.2536,3.1021,0.0,0.0,0.0,0.0,0.0,0.0,0.0,0.0,0.0,0.0,0.0,2.9667,3.1688,3.2686,3.2925,3.2195,3.2579,3.2359,3.1131,3.1368,3.152,3.1266,3.1266,3.1732,3.2866,3.291,3.3205,3.4122,3.4384,3.4616,3.4951,3.5246,3.5344,3.5248,3.5318,3.5623,3.5852,3.579,3.5811,3.637,3.6804,3.7115,3.7136,3.7446,3.7682,3.7682,3.7715,3.7875,3.8122,3.8234,3.831,3.8369,3.8523,3.8601,3.8167,3.7505,3.7085,3.7139,3.7543,3.7861,4.4444,4.4393,4.3519,4.3258,4.3518,4.4397,4.435,4.3819,4.583,4.6267,4.5594,4.5594,4.5033,4.4094,4.4072,4.3782,4.3291,4.2716,4.2642,4.2979,4.2423,4.207,4.1907,4.2812,4.3154,4.2917,4.2917,4.2891,4.2891,4.1987,4.1503,4.1582,4.1557,4.1667,4.1835,4.1181,4.0799,4.0722,4.0364,4.0082,4.003,3.9928,4.0415,4.1467,4.1067,4.0755,4.0655,4.0657,4.02,3.9183,3.8597,3.8062,3.7503,3.5364,3.3633,0.0,3.0776,0.0,0.0,0.0,0.0,0.0,0.0,0.0,0.0,3.0479,3.2522,3.4632,3.4183,3.3911,3.4192,3.4044,3.3465,3.2306,3.245,3.2652,3.2595,3.2508,3.276,3.3667,3.3812,3.4185,3.4951,3.5376,3.5718,3.6101,3.6526,3.6537,3.5935,3.6298,3.6733,3.6867,3.6949,3.6949,3.7032,3.7343,3.7612,3.7736,3.8153,3.8752,3.8739,3.8774,3.8893,3.892,3.8711,3.8527,3.8482,3.8523,3.8382,3.805,3.79,3.8012,3.843,3.8667,3.9018,4.4139,4.4327,4.4112,4.4704,4.5839,4.6848,4.6645,4.5729,4.7822,4.8148,4.7176,4.7176,4.6569,4.5604,4.558,4.4962,4.3943,4.38,4.3333,4.2721,4.2554,4.2614,4.2771,4.2964,4.3047,4.2992,4.2992,4.2992,4.2992,4.2771,4.2798,4.3019,4.2994,4.2928,4.2767,0.0,0.0,0.0,4.0918,4.082,4.1594,4.1153,4.1045,4.1269,4.0964,0.0,3.9906,3.9246,3.9039,3.9213,3.8301,0.0,0.0,0.0,0.0,0.0,0.0,0.0,0.0,0.0,0.0,0.0,3.3698,3.3629,3.2169,3.3579,3.4821,3.5381,3.5672,3.5255,3.3884,3.4434,3.4341,3.3089,3.329,3.3625,3.3784,3.435,3.4973,3.5521,3.5914,3.6204,3.6328,3.6494,3.6577,3.668,3.7074,3.7281,3.7115,3.6929,3.6949,3.7301,3.7632,3.7902,3.7922,3.7984,3.8137,3.8455,3.8418,3.8555,3.8848,3.8714,3.8693,3.8975,3.902,3.8964,3.9018,3.9046,3.8878,3.8501,3.8465,3.8269,3.7779,3.8127,3.8546,4.3982,0.0,4.4119,4.4911,0.0,4.7304,4.7775,4.7896,4.9208,4.8952,4.7548,4.6909,4.6041,4.5056,4.4879,4.4337,4.3546,4.3415,4.3224,4.3,4.2863,4.2849,4.3014,4.3263,4.3388,4.3388,4.3664,4.379,4.379,4.3514,4.3473,4.3588,4.3338,4.3141,4.3,4.3,4.2676,4.197,4.1399,4.13,4.1669,4.1387,4.1544,4.2158,4.2056,0.0,0.0,0.0,0.0,0.0,0.0,0.0,0.0,0.0,0.0,3.7241,3.5869,3.4863,3.4397,3.4594,3.4893,3.5309,3.6285,3.6359,3.5057,3.5697,3.616,3.616,3.6022,3.5511,3.462,3.4801,3.4758,3.4327,3.4646,3.5073,3.5407,3.5811,3.6152,3.6379,3.666,3.6804,3.6804,3.7011,3.7136,3.7177,3.755,3.7819,3.7819,3.7632,3.7591,3.7798,3.8005,3.8204,3.8212,3.8231,3.8294,3.8494,3.8643,3.8815,3.9024,3.8914,3.8886,3.9086,3.9018,3.8882,3.8879,3.8902,3.8849,3.8647,3.8611,3.8585,3.8259,3.868,3.9192,4.4043,4.4124,4.4098,4.4873,4.6169,4.6953,4.7999,4.921,0.0,0.0,0.0,4.6079,4.5033,4.4064,4.3779,4.344,4.3075,4.2856,4.3024,4.345,4.3252,4.3215,4.3288,4.374,4.394,4.3966,4.4389,4.4589,4.4564,4.4066,4.379,4.374,4.3291,4.3014,4.3014,4.3014,4.2645,4.1953,4.1855,4.175,4.1722,4.1621,4.2104,4.3126,4.3152,4.3048,4.2866,4.387,4.3972,4.3022,4.3466,4.3552,4.2985,4.1242,4.0044,3.9473,3.7828,3.682,3.6868,3.668,3.6723,3.7113,3.7583,3.7644,3.7147,3.6814,3.6633,3.6671,3.5908,3.5432,3.5519,3.5341,3.5303,3.5593,3.5997,3.639,3.6846,3.6929,3.6929,3.7011,3.7094,3.7053,3.7094,3.7384,3.7612,3.7653,3.7922,3.8225,3.8225,3.8163,3.8142,3.815,3.8104,3.8091,3.8202,3.8159,3.8262,3.8492,3.8783,3.8999,3.9124,3.9118,3.9119,3.9044,3.8793,3.8647,3.8611,3.8647,3.8611,3.8611,3.8683,3.8829,3.9212,3.9534,3.9962,4.468,4.4935,4.491,4.5708,4.6912,4.6597,4.686,4.7557,4.88,4.8144,4.6127,4.571,4.4917,4.3944,4.3889,4.3669,4.3335,4.3307,4.3445,4.3721,4.3718,4.394,4.4392,4.4439,4.4464,4.4489,4.4564,4.4589,4.4539,4.4091,4.379,4.374,4.3266,4.3014,4.3014,4.3014,4.2914,4.2819,4.2366,4.2524,4.3331,4.2917,4.2736,4.2919,4.2945,4.25,4.1624,4.1784,4.1865,4.1918,4.2027,4.1978,4.1901,4.1234,4.0644,4.0335,3.9625,3.9297,3.95,3.8534,3.786,3.7711,3.8195,3.8097,3.7173,3.6163,3.5852,3.6421,3.5866,3.557,3.5936,3.6289,3.6494,3.6577,3.666,3.6887,3.7343,3.7405,3.7529,3.7881,3.8005,3.7997,3.7922,3.8005,3.808,3.8088,3.8129,3.8225,3.8225,3.8225,3.8225,3.8158,3.7904,3.788,3.8099,3.799,3.8168,3.8874,3.8757,3.8751,3.9085,3.8915,3.872,3.8683,3.8647,3.8611,3.8611,3.8611,3.8611,3.8611,3.8849,3.9156,3.9518,3.995,4.0238,4.4676,4.4821,4.4821,4.5631,4.693,4.7432,4.7433,4.7136,4.7614,4.7048,4.5662,4.4778,4.4097,4.3628,4.3459,4.3473,4.3639,4.361,4.3828,4.4217,4.4242,4.4364,4.4614,4.4945,4.5095,4.5095,4.5397,4.5547,4.5472,4.497,4.4568,4.4188,4.3413,4.3014,4.3014,4.3014,4.3014,4.2989,4.2763,4.2861,4.3327,4.3072,4.2971,4.2946,4.2971,4.2727,4.2261,4.2233,4.2288,4.24,4.24,4.2274,4.1971,4.1746,4.112,3.9989,3.9665,3.9396,3.9091,3.906,3.8695,3.7955,3.8335,3.8176,3.7035,3.6842,3.6746,3.667,3.6342,3.6246,3.6473,3.6908,3.7177,3.7177,3.7384,3.7632,3.7819,3.7893,3.7997,3.8183,3.8225,3.8225,3.8225,3.8225,3.8225,3.8225,3.8225,3.8225,3.8212,3.8231,3.8171,3.7952,3.7921,3.7943,3.7982,3.8081,3.8307,3.8711,3.8648,3.8629,3.8846,3.8683,3.8611,3.8611,3.8611,3.8611,3.8611,3.8611,3.8611,3.8647,3.8921,3.9301,3.9642,4.0182,4.0596,4.4966,4.4966,4.4966,4.5537,4.6523,4.7586,4.7478,4.6537,4.6314,4.5874,4.5196,4.4151,4.3675,4.3647,4.345,4.3589,4.394,4.3991,4.4292,4.4769,4.4819,4.4895,4.5016,4.5472,4.5673,4.5723,4.61,4.6296,4.625,4.5748,4.5121,4.4418,4.3463,4.3014,4.3014,4.3014,4.3014,4.3014,4.3014,4.3014,4.3014,4.3014,4.3014,4.3014,4.3014,4.3014,4.3014,4.3014,4.3014,4.3014,4.3112,4.2849,4.2171,4.2246,4.1485,3.9892,3.9675,3.9247,3.8465,3.907,3.9048,3.7912,3.8194,3.8039,3.7311,3.7625,3.772,3.7101,3.6961,3.6991,3.7156,3.7425,3.7653,3.7674,3.7964,3.8163,3.8204,3.8225,3.8225,3.8225,3.8225,3.8225,3.8245,3.8274,3.8398,3.8523,3.8502,3.8468,3.8422,3.8419,3.8235,3.7888,3.7955,3.8081,3.7906,3.8111,3.8375,3.8477,3.8557,3.8588,3.8611,3.8611,3.8611,3.8611,3.8611,3.8611,3.8611,3.8611,3.8611,3.8611,3.8902,3.9321,3.9806,4.0382,4.0826,4.6095,4.612,4.61,4.5933,4.5691,4.5813,4.5534,4.4958,4.4821,4.4771,4.4756,4.4526,4.4497,4.4497,4.4443,4.4439,4.4514,4.4543,4.4869,4.5372,4.5422,4.5673,4.6075,4.617,4.6225,4.6225,4.6276,4.6296,4.6245,4.5723,4.4945,4.3915,4.3288,4.3014,4.3014,4.3014,4.3014,4.3014,4.3014,4.3014,4.3014,4.3014,4.3014,4.3014,4.3014,4.3014,4.3014,4.3014,4.3014,4.3039,4.341,4.3123,4.2031,4.2271,4.1918,4.0562,4.0433,3.9961,3.8803,3.8735,3.8462,3.7659,3.7645,3.7788,3.8018,3.8117,3.7963,3.757,3.7446,3.7591,3.8018,3.81,3.8088,3.8109,3.8171,3.8225,3.8287,3.8225,3.8225,3.8225,3.8295,3.8225,3.8316,3.8585,3.8903,3.9192,3.9179,3.9076,3.889,3.8785,3.8589,3.8007,3.7858,3.8036,3.8244,3.8117,3.8249,3.8527,3.8608,3.8611,3.8611,3.8611,3.8611,3.8611,3.8611,3.8611,3.8611,3.8611,3.8611,3.8647,3.8938,3.9429,4.0058,4.0596,4.0847,4.5493,4.5824,4.5824,4.5899,4.5974,4.5974,4.5849,4.5623,4.5623,4.5623,4.5593,4.5593,4.5242,4.4589,4.4589,4.4765,4.5121,4.5121,4.5447,4.5949,4.5974,4.61,4.6271,4.6296,4.6296,4.6296,4.6296,4.6296,4.615,4.5392,4.4744,4.4242,4.3438,4.3014,4.3014,4.3014,4.3014,4.3014,4.3014,4.3014,4.3014,4.3014,4.3014,4.3014,4.3014,4.3014,4.3014,4.3014,4.2775,4.2336,4.2494,4.2126,4.1158,4.1308,4.0846,3.9583,3.9024,3.8562,3.8017,3.8239,3.8264,3.7935,3.7902,3.8088,3.8489,3.853,3.8551,3.8613,3.8212,3.7984,3.8204,3.8225,3.8274,3.8468,3.853,3.8667,3.8923,3.8944,3.8944,3.8978,3.8944,3.8978,3.8999,3.9109,3.9296,3.9447,3.935,3.9198,3.9038,3.8858,3.8597,3.8319,3.8228,3.8184,3.8223,3.8308,3.8396,3.8552,3.8611,3.8611,3.863,3.8611,3.8611,3.863,3.8669,3.8669,3.8611,3.8611,3.8611,3.8739,3.9156,3.9662,4.0202,4.0596,4.0847,4.4844,4.5246,4.5451,4.5698,4.61,4.625,4.6296,4.6296,4.6296,4.6296,4.6296,4.6296,4.5874,4.5116,4.5095,4.5347,4.5673,4.5723,4.5924,4.6276,4.6296,4.6271,4.6296,4.6296,4.6296,4.6296,4.6296,4.6296,4.6145,4.5141,4.4589,4.4439,4.3514,4.3014,4.3014,4.3014,4.3014,4.3014,4.3014,4.3014,4.3014,4.3014,4.3014,4.3014,4.3014,4.3014,4.3014,4.2803,4.2426,4.184,4.1745,4.1245,4.0352,4.0395,3.9922,3.8679,3.8021,3.7674,3.7695,3.8109,3.8378,3.8378,3.8481,3.8688,3.8923,3.9006,3.9151,3.9358,3.8937,3.8585,3.8543,3.8564,3.8709,3.8965,3.9006,3.9151,3.942,3.9502,3.9461,3.9502,3.942,3.9564,3.9668,3.9688,3.9751,3.986,3.9637,3.9281,3.9161,3.8928,3.8664,3.8556,3.856,3.8435,3.8184,3.834,3.8591,3.8613,3.8652,3.8789,3.8789,3.8828,3.8982,3.9199,3.9041,3.9002,3.9101,3.9023,3.8884,3.8896,3.9255,3.9754,4.0002,4.0525,4.0847,4.4644,4.4719,4.5271,4.5468,4.5573,4.6015,4.621,4.6029,4.621,4.624,4.621,4.6271,4.6276,4.6175,4.6095,4.6225,4.625,4.6225,4.625,4.6296,4.6296,4.6296,4.6296,4.6296,4.6296,4.6296,4.6296,4.6296,4.6225,4.5167,4.4589,4.4514,4.3564,4.3039,4.3014,4.3014,4.3014,4.3014,4.3014,4.3014,4.3014,4.3014,4.2986,4.2902,4.2958,4.2877,4.2843,4.2241,4.1782,4.1771,4.1457,4.0782,3.963,3.9896,3.9552,3.8432,3.8175,3.815,3.8191,3.8543,3.8758,3.8841,3.9109,3.944,3.9461,3.9482,3.9523,3.9523,3.9523,3.944,3.944,3.9337,3.9378,3.944,3.9482,3.9502,3.9544,3.9647,3.9523,3.9564,3.9592,3.9722,4.0088,4.0164,4.0259,4.0471,4.0422,3.9988,3.9589,3.9329,3.8991,3.8737,3.863,3.8611,3.8591,3.8669,3.8669,3.8789,3.9082,3.918,3.9336,3.9473,3.9648,3.9766,3.9648,3.9648,3.9766,3.9707,3.9512,3.9463,3.947,3.9766,4.0004,4.0494,4.0775,4.3765,4.4141,4.4694,4.465,4.417,4.436,4.4152,4.3762,4.4645,4.5013,4.519,4.5914,4.6296,4.6296,4.6296,4.6296,4.6296,4.6296,4.6296,4.6296,4.6296,4.6296,4.6296,4.6296,4.6296,4.6296,4.6296,4.6296,4.6225,4.5522,4.497,4.4514,4.389,4.3338,4.3065,4.3014,4.3014,4.3014,4.3014,4.3014,4.3014,4.3014,4.2625,4.1838,4.1757,4.1781,4.1781,4.1022,4.0352,3.9824,4.0003,3.9656,3.8802,3.8828,3.8714,3.8271,3.8225,3.8316,3.8551,3.8716,3.8944,3.9233,3.9399,3.9633,3.9875,3.9957,4.004,4.0303,4.0386,4.0386,4.0261,3.9854,3.9626,3.9875,3.9957,4.004,4.0323,4.0386,4.0386,4.0371,4.0174,4.01,4.0126,4.0029,3.9947,4.0069,3.9806,3.9594,3.9433,3.9264,3.9168,3.9117,3.9219,3.9414,3.9414,3.9141,3.9043,3.9336,3.959,3.9629,3.9746,3.9805,3.9941,4.0,4.0019,4.0039,4.0059,3.9961,3.9824,3.9819,3.9852,3.9994,4.0084,4.0555,4.0771,4.3187,4.3557,4.3855,4.3649,4.315,4.3058,4.2716,4.2391,4.3669,4.4312,4.4552,4.5702,4.6296,4.6296,4.6296,4.6296,4.6296,4.6296,4.6296,4.6296,4.6296,4.6296,4.6296,4.6296,4.6296,4.6296,4.6296,4.6296,4.625,4.5748,4.5296,4.4895,4.4192,4.3639,4.3291,4.3115,4.3014,4.3014,4.3014,4.3014,4.2958,4.2569,4.2078,4.1288,4.0557,4.0323,4.0644,3.9951,3.9355,3.9,3.8991,3.8771,3.8262,3.8225,3.8225,3.8225,3.8336,3.8489,3.8799,3.9089,3.933,3.9515,3.9645,3.9871,4.0053,4.0038,4.0182,4.0443,4.0668,4.0704,4.0636,4.0253,4.0116,4.0386,4.0448,4.0551,4.082,4.0897,4.079,4.0606,4.0264,4.009,4.0094,3.9858,3.9811,3.9895,3.9629,3.945,3.9555,3.9478,3.9434,3.9453,3.9648,3.9883,3.998,3.9824,3.9551,3.9766,4.0019,4.0078,4.0137,4.0176,4.0234,4.0273,4.0293,4.0293,4.0254,4.0176,4.0117,4.0116,4.0271,4.0469,4.0545,4.063,4.0848,4.2958,4.2934,4.2696,4.2478,4.2356,4.2148,4.2123,4.2264,4.3544,4.4127,4.446,4.5732,4.6296,4.6296,4.6296,4.6296,4.6296,4.6296,4.6296,4.6296,4.6296,4.6296,4.6296,4.6296,4.6296,4.6296,4.6296,4.6296,4.6245,4.5824,4.5522,4.5271,4.4443,4.3966,4.379,4.3338,4.3065,4.3037,4.2953,4.2874,4.2846,4.1773,4.1239,4.1235,3.9432,3.8786,3.9772,3.9069,3.8843,3.9108,3.8617,3.8237,3.8204,3.8225,3.8191,3.8295,3.8572,3.8778,3.8965,3.9647,3.99,3.9783,4.0004,4.008,3.9829,3.9762,3.9782,3.9874,4.013,4.031,4.0346,4.0458,4.0687,4.0897,4.0835,4.0856,4.0897,4.0882,4.074,4.0346,3.995,3.9734,3.9734,3.9686,3.9774,4.0058,3.9957,3.9818,4.0057,3.9973,3.992,3.9902,4.0059,4.0293,4.043,4.0488,4.0254,4.0117,4.0371,4.0527,4.0605,4.0664,4.0742,4.0839,4.082,4.082,4.0742,4.0664,4.0643,4.064,4.0795,4.0965,4.106,4.113,4.109,4.1887,4.2026,4.1135,4.0609,4.0396,4.0313,4.0475,4.0956,4.2287,4.3388,4.4405,4.5702,4.6296,4.6296,4.6296,4.6296,4.6296,4.6296,4.6296,4.6296,4.6296,4.6296,4.6296,4.6296,4.6296,4.6296,4.6296,4.6296,4.6276,4.6125,4.5874,4.5472,4.5146,4.4744,4.4256,4.384,4.3539,4.3404,4.2318,4.1842,4.2011,4.0928,4.0094,3.9609,3.8874,3.8465,3.8231,3.8017,3.7971,3.814,3.8154,3.8225,3.8225,3.8225,3.8316,3.8572,3.8716,3.9151,3.9709,3.9984,4.0174,4.008,4.0213,4.0074,3.9786,3.9678,3.9678,3.9678,3.9822,3.9894,3.9894,3.9966,4.0325,4.0826,4.0918,4.0882,4.0811,4.0617,4.031,3.995,3.9554,3.9493,3.9622,3.9592,3.9623,4.0018,3.9987,3.9991,4.0053,4.0309,4.0312,4.0332,4.0547,4.0684,4.0781,4.084,4.0723,4.0566,4.0723,4.084,4.0918,4.0976,4.1152,4.1211,4.1211,4.1191,4.1133,4.1113,4.0995,4.1128,4.1214,4.1412,4.1644,4.1711,4.1636,4.1643,4.1887,4.0365,3.9592,3.9365,3.911,3.9444,4.03,4.1619,4.3012,4.4374,4.5702,4.6296,4.6296,4.6296,4.6296,4.6296,4.6296,4.6296,4.6296,4.6296,4.6296,4.6296,4.6296,4.6296,4.6296,4.6296,4.6296,4.6296,4.6271,4.6125,4.5824,4.5598,4.5001,4.4195,4.3613,4.3172,4.2516,4.1489,4.1052,4.1044,4.0098,3.9307,3.8947,3.8496,3.8102,3.776,3.7757,3.7757,3.7798,3.8026,3.8204,3.8225,3.8225,3.8378,3.8703,3.887,3.9213,3.9871,3.9977,3.9968,3.991,3.9899,3.9698,3.9389,3.9281,3.9281,3.9281,3.9445,3.9518,3.9518,3.9642,3.993,4.0361,4.0433,4.0469,4.0417,4.0236,4.0048,3.9781,3.9572,3.9643,3.9672,3.9696,3.9648,4.0019,4.0117,4.0254,4.0351,4.0605,4.0684,4.0781,4.0898,4.1016,4.1152,4.1191,4.1191,4.1132,4.1113,4.1113,4.1132,4.1132,4.1211,4.1211,4.1211,4.1211,4.1191,4.1191,4.1152,4.1363,4.1649,4.1869,4.2081,4.2235,4.2204,4.2024,4.222,4.0191,3.9247,3.9206,3.8702,3.9277,4.0484,4.1843,4.3232,4.459,4.5762,4.6296,4.6296,4.6296,4.6296,4.6296,4.6296,4.6296,4.6296,4.6271,4.621,4.5999,4.5914,4.5823,4.5702,4.5762,4.5853,4.5611,4.5611,4.6059,4.5633,4.5116,4.4634,4.3439,4.282,4.1992,4.1144,4.0617,4.0418,4.0417,3.9294,3.8813,3.9141,3.8226,3.7847,3.808,3.8142,3.8183,3.8171,3.8204,3.8225,3.8225,3.8225,3.846,3.8814,3.8952,3.9208,3.9551,3.9739,3.9602,3.9337,3.9321,3.903,3.8793,3.8756,3.8756,3.8756,3.8994,3.9176,3.9192,3.9373,3.957,3.9642,3.9786,3.9822,3.9759,3.9808,3.9804,3.9815,3.9834,3.9902,3.9978,3.9922,4.0137,4.043,4.0566,4.0723,4.0898,4.1054,4.1152,4.1191,4.1133,4.1191,4.1211,4.1211,4.1211,4.1211,4.1211,4.1211,4.1211,4.1211,4.1211,4.1211,4.1211,4.1211,4.125,4.125,4.1463,4.179,4.2017,4.2261,4.252,4.2734,4.2658,4.1259,4.1414,3.9034,3.8199,3.8624,3.9299,4.0419,4.1779,4.3138,4.4405,4.5671,4.612,4.6296,4.6296,4.6296,4.6296,4.6296,4.6296,4.6296,4.6296,4.6296,4.5671,4.4982,4.4798,4.4312,4.3544,4.3544,4.3263,4.3263,4.3482,4.3419,4.3263,4.334,4.2966,4.2451,4.1978,4.1592,4.1028,3.9748,3.9409,3.9475,3.8488,3.8084,3.8417,3.8183,3.8046,3.8171,3.8225,3.8225,3.8225,3.8225,3.8225,3.8199,3.8414,3.8684,3.8952,3.9243,3.948,3.9632,3.9634,3.9518,3.9248,3.9139,3.903,3.8647,3.8611,3.8611,3.8611,3.872,3.8756,3.8793,3.8865,3.8902,3.8974,3.9357,3.9674,3.9735,3.9787,3.9818,3.9855,3.9919,4.0078,4.0293,4.0391,4.0508,4.0859,4.0976,4.0976,4.1172,4.1211,4.1211,4.1211,4.1191,4.1211,4.1211,4.1211,4.1211,4.1211,4.1211,4.1211,4.1211,4.1211,4.1211,4.1211,4.1211,4.1211,4.1327,4.1405,4.1773,4.2082,4.2445,4.2708,4.3131,4.337,4.3105,4.0933,4.0714,3.8675,3.7943,3.837,3.9626,4.0946,4.2296,4.3669,4.5043,4.609,4.6296,4.6296,4.6296,4.6296,4.6296,4.6296,4.6296,4.6296,4.618,4.5702,4.5037,4.4312,4.3793,4.2958,4.2351,4.2192,4.2256,4.2264,4.2224,4.2224,4.2319,4.2224,4.1915,4.1319,4.1084,4.0555,3.9958,3.897,3.8658,3.8795,3.8184,3.8001,3.8183,3.8191,3.8137,3.7971,3.7937,3.7937,3.7937,3.7937,3.7952,3.7989,3.8214,3.8541,3.8978,3.9126,3.9236,3.9418,3.9337,3.9156,3.8974,3.8958,3.8829,3.8647,3.8611,3.8611,3.8611,3.8611,3.8611,3.8611,3.8611,3.8611,3.8703,3.9112,3.9513,3.9569,3.9869,4.0069,4.0193,4.0332,4.0508,4.0781,4.0781,4.0918,4.1132,4.1172,4.1172,4.1211,4.1211,4.1211,4.1211,4.1211,4.1211,4.1211,4.1211,4.1211,4.1211,4.1211,4.1211,4.1211,4.1211,4.1211,4.1211,4.1211,4.125,4.1366,4.1579,4.1889,4.2274,4.2697,4.3119,4.3424,4.3615,4.3408,4.0959,4.0062,3.8747,3.8225,3.8437,3.979,4.1171,4.2328,4.3948,4.5251,4.612,4.6296,4.6296,4.6296,4.6296,4.6296,4.6296,4.6296,4.6296,4.5823,4.4951,4.3972,4.3731,4.254,4.1811,4.1428,4.1715,4.1556,4.1332,4.1492,4.1651,4.1396,4.1492,4.1075,4.0192,3.9942,3.9299,3.8639,3.8411,3.8291,3.8353,3.8208,3.8163,3.8171,3.8215,3.8081,3.788,3.7766,3.7739,3.7644,3.7617,3.7706,3.7777,3.7823,3.8211,3.8819,3.8846,3.8891,3.9024,3.8829,3.8647,3.8647,3.8647,3.8611,3.8611,3.8611,3.8611,3.8611,3.8611,3.8611,3.8611,3.8611,3.8611,3.8689,3.9019,3.9275,3.9414,4.0019,4.0489,4.0567,4.0937,4.1152,4.1211,4.1211,4.1211,4.1172,4.1211,4.1211,4.1211,4.1211,4.1211,4.1211,4.1211,4.1211,4.1211,4.1211,4.1211,4.1211,4.1211,4.1211,4.1211,4.1211,4.1211,4.1211,4.1211,4.1288,4.1405,4.1657,4.2043,4.2467,4.2927,4.3233,4.35,4.3577,4.3491,4.1338,4.0062,3.8769,3.8225,3.8603,4.071,4.1915,4.2422,4.4829,4.5969,4.624,4.6296,4.6296,4.6296,4.6296,4.6296,4.6296,4.6296,4.6296,4.5969,4.37,4.2769,4.2359,4.1267,4.0149,3.9517,3.9144,3.9144,3.9188,3.9386,3.909,3.9221,3.9451,3.8979,3.8781,3.8781,3.857,3.8225,3.8225,3.8225,3.8225,3.8225,3.8191,3.8199,3.8253,3.8248,3.8214,3.8205,3.8056,3.7837,3.774,3.7843,3.8121,3.8477,3.8653,3.8699,3.893,3.8912,3.8773,3.8647,3.8611,3.8611,3.8611,3.8611,3.8611,3.8611,3.8611,3.8611,3.8611,3.8611,3.8611,3.8611,3.8611,3.8747,3.9238,3.9707,3.9824,4.0177,4.0644,4.0937,4.1094,4.1211,4.1211,4.1211,4.1211,4.1211,4.1211,4.1211,4.123,4.125,4.1269,4.1289,4.1211,4.1211,4.1211,4.1211,4.1211,4.1211,4.1211,4.1211,4.1211,4.1211,4.1211,4.1211,4.1211,4.1327,4.1521,4.1966,4.2408,4.2812,4.3119,4.3386,4.3577,4.3615,4.3615,4.1043,3.9221,3.8503,3.857,3.9418,4.13,4.2572,4.3482,4.5342,4.6296,4.6296,4.6296,4.6296,4.6296,4.6296,4.6296,4.6296,4.6296,4.5939,4.5068,4.3138,4.1938,4.1011,3.9986,3.8814,3.8258,3.8258,3.8225,3.8225,3.8225,3.8337,3.8225,3.8225,3.837,3.8225,3.8225,3.8258,3.8225,3.8225,3.8225,3.8225,3.8225,3.8236,3.8287,3.8439,3.8478,3.8105,3.8092,3.8017,3.7904,3.7821,3.7887,3.8125,3.8418,3.8509,3.8623,3.8744,3.8829,3.8647,3.8611,3.8611,3.8611,3.8611,3.8611,3.8611,3.8611,3.8611,3.8611,3.8611,3.8611,3.8611,3.8611,3.8611,3.8767,3.9355,3.9863,4.0,4.043,4.0898,4.1152,4.1191,4.1211,4.1211,4.1211,4.1211,4.1211,4.125,4.125,4.1406,4.1426,4.1445,4.1426,4.1289,4.123,4.1211,4.1211,4.1211,4.1211,4.1211,4.1211,4.1211,4.1211,4.1211,4.1211,4.1288,4.1521,4.1773,4.2274,4.2659,4.2927,4.3195,4.3462,4.3615,4.3615,4.3615,4.0646,3.8225,3.8404,3.9177,4.0354,4.1875,4.3201,4.4343,4.5732,4.6296,4.6296,4.6296,4.6296,4.6296,4.6296,4.6296,4.6296,4.624,4.5823,4.489,4.3075,4.1875,4.0732,3.946,3.8503,3.8328,3.8212,3.8191,3.8225,3.8225,3.8225,3.8225,3.8225,3.8225,3.8225,3.8225,3.8225,3.8225,3.8225,3.8274,3.8282,3.829,3.824,3.8378,3.8598,3.8542,3.8162,3.8034,3.8015,3.7988,3.8027,3.8027,3.8027,3.8047,3.8164,3.8591,3.8627,3.8647,3.8611,3.8611,3.8611,3.8611,3.8611,3.8611,3.8611,3.8611,3.8611,3.8611,3.8611,3.8611,3.8611,3.8611,3.865,3.8809,3.9434,3.9863,4.0117,4.0703,4.1113,4.1191,4.1211,4.1211,4.1211,4.1211,4.1211,4.123,4.1269,4.1328,4.1523,4.1719,4.1738,4.166,4.1562,4.1308,4.125,4.125,4.125,4.125,4.125,4.123,4.123,4.1211,4.1211,4.1327,4.1444,4.1695,4.2043,4.2505,4.2812,4.3063,4.3272,4.3539,4.3615,4.3615,4.3615,4.0646,3.8304,3.9418,3.9997,4.0581,4.2855,4.4065,4.4497,4.5762,4.6271,4.6296,4.6296,4.6296,4.6296,4.6296,4.6296,4.6296,4.624,4.6004,4.5129,4.3326,4.1875,4.1015,3.9484,3.8722,3.8613,3.8481,3.8316,3.8308,3.8225,3.8253,3.8245,3.8225,3.8225,3.8225,3.8225,3.8245,3.8274,3.8241,3.8365,3.8532,3.8473,3.8329,3.843,3.8608,3.856,3.8446,3.8416,3.8471,3.8493,3.8476,3.8457,3.8418,3.8454,3.8513,3.8591,3.8611,3.8611,3.8611,3.8611,3.8611,3.8611,3.8611,3.8611,3.8611,3.8611,3.8611,3.8611,3.8611,3.8611,3.8611,3.8611,3.8806,3.9082,3.9531,4.0019,4.0371,4.0801,4.1191,4.1211,4.1211,4.1211,4.1211,4.1211,4.1211,4.1308,4.1426,4.1582,4.1797,4.2031,4.2187,4.2109,4.1953,4.1582,4.1289,4.1308,4.1289,4.1289,4.1269,4.123,4.1211,4.1211,4.125,4.1405,4.1638,4.1966,4.2313,4.2736,4.3042,4.331,4.3462,4.3615,4.3615,4.3615,4.3615,4.0646,3.8404,3.9626,4.0613,4.1556,4.3388,4.4737,4.5373,4.6029,4.6296,4.6296,4.6296,4.6296,4.6296,4.6296,4.6296,4.6271,4.6271,4.555,4.4158,4.2824,4.1425,4.0716,3.9256,3.9135,3.9047,3.8944,3.8874,3.8854,3.8647,3.8543,3.846,3.8316,3.8225,3.8225,3.8225,3.8336,3.8406,3.8375,3.8479,3.8842,3.8716,3.8693,3.8527,3.8672,3.8747,3.8554,3.8563,3.8611,3.8611,3.8611,3.8611,3.8611,3.8611,3.8611,3.8611,3.8611,3.8611,3.8611,3.8611,3.8611,3.8611,3.8611,3.8611,3.8611,3.8611,3.8611,3.8611,3.8611,3.8611,3.8611,3.8574,3.8789,3.916,3.9609,4.0059,4.0488,4.0918,4.1132,4.1211,4.1211,4.1211,4.1211,4.1211,4.1211,4.1367,4.1562,4.1816,4.2051,4.2363,4.2577,4.2539,4.2363,4.207,4.1719,4.1641,4.1562,4.1523,4.1484,4.1445,4.1308,4.1308,4.1425,4.1599,4.185,4.2197,4.2659,4.3081,4.331,4.3539,4.3577,4.3615,4.3615,4.3615,4.3615,4.0387,3.8304,3.9659,4.0978,4.2296,4.37,4.5068,4.612,4.6271,4.6296,4.6296,4.6271,4.612,4.5939,4.5853,4.5853,4.5914,4.5823,4.4521,4.2784,4.2034,4.0858,3.9738,3.917,3.9316,3.9626,3.9771,3.9668,3.9358,3.9109,3.8985,3.8841,3.8543,3.8398,3.8502,3.846,3.8613,3.865,3.8624,3.8622,3.8827,3.9041,3.8926,3.8569,3.8869,3.8882,3.8608,3.8591,3.8611,3.8611,3.8611,3.8611,3.8611,3.8611,3.8611,3.8611,3.8611,3.8611,3.8611,3.8611,3.8611,3.8611,3.8611,3.8611,3.8611,3.8611,3.8611,3.8574,3.8117,3.8282,3.8428,3.8282,3.8554,3.9316,3.9707,4.0098,4.0586,4.0957,4.1152,4.1211,4.1211,4.1211,4.1211,4.1211,4.1211,4.1406,4.166,4.2031,4.2305,4.2734,4.2949,4.291,4.2773,4.2499,4.2305,4.2187,4.207,4.1933,4.1914,4.1875,4.166,4.1465,4.166,4.1932,4.2082,4.2408,4.2927,4.331,4.3462,4.3577,4.3615,4.3615,4.3615,4.3615,4.3615,3.9561,3.8304,3.9659,4.0978,4.2296,4.3661,4.5013,4.615,4.612,4.6296,4.5969,4.609,4.5434,4.4737,4.4552,4.4528,4.4528,4.4477,4.3694,4.2107,4.1479,4.1012,4.0531,4.0207,4.0,4.0143,4.0454,4.0199,3.9736,3.9454,3.9385,3.9282,3.8958,3.8869,3.8973,3.878,3.8815,3.8958,3.8922,3.8777,3.8671,3.8946,3.8908,3.8714,3.8681,3.8683,3.8611,3.8611,3.8611,3.8611,3.8611,3.8611,3.8611,3.8611,3.8611,3.8611,3.8611,3.8611,3.8574,3.8611,3.8611,3.8611,3.8611,3.8611,3.8574,3.8392,3.8319,3.8538,3.7364,3.6959,3.7511,3.7144,3.7818,3.8742,3.9466,4.0179,4.0801,4.0996,4.1191,4.1211,4.1211,4.1211,4.1211,4.1211,4.123,4.1465,4.1758,4.2129,4.2518,4.2969,4.3242,4.3203,4.3164,4.2969,4.283,4.2713,4.2578,4.2402,4.2344,4.2305,4.2071,4.1935,4.223,4.2444,4.2515,4.2641,4.3042,4.3386,4.3539,4.3615,4.3615,4.3615,4.3615,4.3615,4.3615,3.8714,3.8337,3.9626,4.1001,4.2201,4.2864,4.391,4.4798,4.4312,4.3972,4.3972,4.3972,4.3606,4.3232,4.3107,4.3107,4.3153,4.3356,4.2733,4.1784,4.1253,4.0976,4.0536,4.0327,4.0303,4.0486,4.0544,4.0361,3.993,3.9684,3.9561,3.9499,3.915,3.8807,3.9079,3.8938,3.8983,3.9065,3.9066,3.893,3.8698,3.8731,3.8776,3.8611,3.8611,3.8611,3.8611,3.8611,3.8611,3.8611,3.8611,3.808,3.7511,3.7217,3.7217,3.7217,3.7217,3.764,3.8392,3.8574,3.8611,3.8611,3.8611,3.8611,3.8465,3.7824,3.7291,3.7217,3.5755,3.5365,3.5737,3.5178,3.6453,3.765,3.8766,4.0009,4.0705,4.1055,4.1211,4.1211,4.1211,4.1211,4.1211,4.1211,4.123,4.1328,4.166,4.207,4.2578,4.3144,4.3359,4.3476,4.3457,4.3398,4.3359,4.3281,4.3066,4.291,4.2793,4.2736,4.2502,4.2466,4.2744,4.2939,4.3069,4.3215,4.3336,4.3424,4.3577,4.3615,4.3615,4.3615,4.3615,4.3615,4.3615,3.8225,3.8304,3.9287,4.0484,4.1683,4.1693,4.2509,4.3544,4.2793,4.2264,4.2097,4.2002,4.1906,4.2011,4.1938,4.1783,4.191,4.2273,4.1583,4.1052,4.0902,4.0726,4.032,4.0127,4.0324,4.0612,4.0269,4.0105,3.9952,3.9754,3.9536,3.9602,3.9231,3.9009,3.8869,3.8934,3.9055,3.9124,3.9046,3.8859,3.8664,3.8591,3.8611,3.8611,3.8611,3.8611,3.8611,3.8611,3.8611,3.7897,3.7861,3.7107,3.5904,3.5569,3.5978,3.6201,3.646,3.7144,3.808,3.8611,3.8611,3.8611,3.8501,3.8392,3.7751,3.6756,3.583,3.5663,3.409,3.3487,3.3541,3.3592,3.4953,3.6525,3.781,3.9239,4.055,4.0919,4.1211,4.1211,4.1211,4.1211,4.1211,4.1211,4.123,4.123,4.1562,4.1992,4.2558,4.3183,4.3418,4.3535,4.3594,4.3594,4.3594,4.3555,4.3418,4.334,4.3242,4.3185,4.2951,4.2978,4.3181,4.3378,4.3547,4.351,4.3489,4.3542,4.3615,4.3615,4.3615,4.3615,4.3615,4.3615,4.3615,3.8225,3.8225,3.8304,3.9155,4.0387,4.0322,4.1129,4.2319,4.2138,4.1947,4.1651,4.1023,4.1013,4.1559,4.0952,4.0662,4.0968,4.1045,4.0492,4.0122,4.0,4.0108,3.9906,3.9988,4.0085,3.993,3.9786,3.975,3.9642,3.9385,3.9418,3.9578,3.9247,3.9347,3.924,3.9049,3.9053,3.8994,3.8846,3.872,3.8611,3.8611,3.8611,3.8611,3.8611,3.8611,3.8574,3.8392,3.764,3.6497,3.6349,3.5551,3.4241,3.394,3.4391,3.5439,3.5792,3.6682,3.8044,3.8611,3.8538,3.8574,3.8355,3.7677,3.646,3.6238,3.5402,3.3902,3.2386,3.219,3.2539,3.3159,3.4055,3.5973,3.7627,3.916,4.0356,4.0977,4.1211,4.1211,4.1211,4.1211,4.1211,4.1211,4.1211,4.125,4.1543,4.1992,4.2519,4.3086,4.3359,4.3535,4.3652,4.3672,4.3672,4.3613,4.3555,4.3555,4.3496,4.3516,4.3496,4.363,4.3799,4.3658,4.3749,4.369,4.3607,4.3601,4.3615,4.3615,4.3615,4.3615,4.3615,4.3615,4.3615,3.8225,3.8225,3.8225,3.8979,4.0149,3.932,3.9725,4.0678,4.0094,3.9757,3.9812,3.9465,3.9614,3.9923,4.0067,3.974,3.9781,4.0005,3.9709,3.9593,3.9602,3.9754,3.9768,3.9773,3.9822,3.9642,3.9518,3.9409,3.9337,3.9047,3.8902,3.8968,3.9102,3.9053,3.8981,3.8941,3.8892,3.8823,3.8683,3.8611,3.8611,3.8611,3.8611,3.8611,3.8611,3.8007,3.7291,3.7144,3.6127,3.5141,3.4729,3.3751,3.2652,3.2348,3.3184,3.4579,3.4916,3.609,3.797,3.8428,3.8209,3.7217,3.6996,3.6423,3.4804,3.3902,3.3108,3.1906,3.0901,3.0732,3.0708,3.1691,3.3125,3.5565,3.7457,3.894,4.0123,4.0841,4.1133,4.1133,4.1172,4.1211,4.1211,4.1211,4.1211,4.125,4.1621,4.1992,4.25,4.2949,4.3242,4.3535,4.3672,4.3691,4.3691,4.3691,4.3691,4.3691,4.3691,4.3691,4.3774,4.4371,4.4481,4.424,4.3969,4.3949,4.3831,4.3659,4.3615,4.3615,4.3615,4.3615,4.3615,4.3615,4.3615,3.8225,3.8225,3.8225,3.8735,3.9451,3.8603,3.8714,3.932,3.8702,3.8295,3.8398,3.8675,3.8835,3.8952,3.9179,3.9273,3.9257,3.9362,3.9394,3.9454,3.9605,3.9642,3.959,3.9518,3.9482,3.9373,3.9192,3.903,3.8994,3.872,3.8683,3.8756,3.8849,3.8793,3.872,3.8574,3.8574,3.8611,3.8611,3.8611,3.8611,3.8611,3.8611,3.8428,3.808,3.7364,3.6386,3.583,3.4579,3.3562,3.288,3.2424,3.16,3.1255,3.2043,3.3297,3.4278,3.5103,3.6996,3.7751,3.7107,3.5737,3.5439,3.4579,3.3184,3.1906,3.1632,3.0748,2.9727,2.9203,2.9645,3.124,3.3123,3.5524,3.6456,3.787,3.9633,4.0685,4.088,4.1055,4.1133,4.1211,4.1211,4.1211,4.1211,4.1211,4.1367,4.1777,4.2363,4.2773,4.3086,4.3398,4.3691,4.3691,4.3691,4.3691,4.3691,4.3691,4.3691,4.3691,4.3898,4.4494,4.4562,4.4079,4.391,4.413,4.3973,4.3659,4.3615,4.3615,4.3615,4.3615,4.3615,4.3615,4.3615,3.8191,3.8225,3.8191,3.8204,3.8304,3.8258,3.8291,3.8491,3.8333,3.844,3.8737,3.8827,3.8945,3.9026,3.9196,3.9161,3.9116,3.9166,3.9113,3.9105,3.9329,3.9353,3.9156,3.8974,3.9083,3.872,3.8683,3.872,3.8647,3.8611,3.8611,3.8611,3.8683,3.8683,3.8611,3.8538,3.8538,3.8538,3.8392,3.808,3.797,3.7861,3.7824,3.7511,3.6793,3.5978,3.5103,3.4278,3.2994,3.166,3.137,3.1139,3.0909,2.9804,3.1239,3.4729,3.4015,3.4504,3.5959,3.6108,3.5251,3.4087,3.3802,3.3095,3.184,3.1103,3.0794,3.009,2.9527,2.9569,3.041,3.1632,3.3482,3.4775,3.5692,3.6852,3.8627,3.9982,4.0099,4.047,4.0919,4.1211,4.1211,4.1211,4.1211,4.1211,4.1211,4.1582,4.2226,4.2598,4.293,4.3379,4.3691,4.3691,4.3691,4.3691,4.3691,4.3691,4.3691,4.3691,4.3698,4.397,4.3938,4.3679,4.377,4.3872,4.3754,4.3577,4.3615,4.3615,4.3615,4.3615,4.3615,4.3615,4.3615,3.8037,3.7837,3.8091,3.7904,3.7603,3.8025,3.8225,3.8233,3.8448,3.8675,3.8855,3.9137,3.9353,3.9382,3.9379,3.9332,3.913,3.9082,3.8988,3.7657,3.8426,3.8024,3.7897,3.8428,3.872,3.8647,3.8611,3.8611,3.8611,3.8611,3.8611,3.8611,3.8465,3.8611,3.8263,3.7787,3.6996,3.6775,3.6053,3.5327,3.5402,3.5476,3.5514,3.5551,3.4916,3.4166,3.3335,3.25,3.1408,3.0114,2.992,2.9959,2.9959,2.908,3.0292,3.2614,3.225,3.2457,3.3126,3.3209,3.2961,3.243,3.221,3.1704,3.0371,3.0299,3.0012,2.9901,2.9731,2.9921,3.0469,3.1867,3.3379,3.4001,3.4911,3.596,3.7317,3.8408,3.908,3.957,4.006,4.088,4.1211,4.1211,4.1211,4.1211,4.1211,4.1641,4.2226,4.244,4.2713,4.334,4.3691,4.3691,4.3691,4.3691,4.3691,4.3691,4.3691,4.3691,4.368,4.3649,4.3517,4.342,4.3513,4.3594,4.348,4.3424,4.3577,4.3615,4.3615,4.3615,4.3615,4.3615,4.3615,3.777,3.7448,3.7703,3.7569,3.7247,3.787,3.8253,3.844,3.8696,3.8896,3.9137,3.9426,3.9526,3.9475,3.9466,3.9337,3.8958,3.8263,3.8538,3.6959,3.7328,3.753,3.7677,3.797,3.8538,3.8611,3.8611,3.8611,3.8611,3.8611,3.8611,3.8501,3.8044,3.7677,3.7328,3.6738,3.5941,3.5439,3.4504,3.4035,3.3998,3.3922,3.3885,3.3696,3.3222,3.2424,3.1485,3.0678,3.0036,2.9197,2.8925,2.9158,2.9353,2.9392,3.0114,3.1331,3.1683,3.1836,3.2068,3.1378,3.1269,3.0964,3.1048,3.0627,2.9838,2.9931,3.0027,3.0009,3.0053,3.0243,3.0695,3.2114,3.2996,3.3658,3.3985,3.4985,3.6797,3.7954,3.8606,3.9098,4.006,4.0802,4.1211,4.1211,4.1211,4.1211,4.123,4.1738,4.2206,4.2401,4.2674,4.334,4.3691,4.3691,4.3691,4.3691,4.3691,4.3691,4.3691,4.3691,4.3498,4.3407,4.3236,4.3061,4.2958,4.2906,4.3147,4.3233,4.35,4.3615,4.3615,4.3615,4.3615,4.3615,4.3615,3.7381,3.7079,3.7112,3.7079,3.718,3.7778,3.8326,3.8731,3.8814,3.9082,3.9525,3.951,3.9439,3.9241,3.9212,3.8829,3.8428,3.718,3.7144,3.7511,3.718,3.7401,3.7897,3.8372,3.8574,3.8611,3.8611,3.8611,3.8574,3.8117,3.8173,3.7934,3.6719,3.609,3.5663,3.5253,3.4579,3.3751,3.294,3.2598,3.2484,3.2864,3.2674,3.2386,3.1775,3.1216,3.05,2.9881,2.9314,2.8886,2.8886,2.9804,3.009,2.9679,3.1232,3.2112,3.1962,3.1834,3.1697,3.0696,3.0409,3.0349,3.0233,2.9991,2.9991,3.0038,3.0173,3.0346,3.0405,3.0539,3.0907,3.1913,3.2874,3.3019,3.306,3.4636,3.6717,3.7795,3.8329,3.9196,4.047,4.1172,4.1211,4.1211,4.1211,4.1211,4.1308,4.168,4.2148,4.2323,4.2713,4.3437,4.3691,4.3691,4.3691,4.3691,4.3691,4.3691,4.3691,4.3672,4.3439,4.3166,4.2916,4.2644,4.2268,4.2338,4.3045,4.3386,4.3539,4.3615,4.3615,4.3615,4.3615,4.3615,4.3577,3.7011,3.6722,3.6978,3.6809,3.6463,3.7169,3.7676,3.8077,3.8679,3.9136,3.9212,3.9269,3.9253,3.9176,3.8921,3.8044,3.764,3.7217,3.6312,3.6349,3.6996,3.718,3.7548,3.808,3.8428,3.8611,3.8611,3.8574,3.8282,3.7714,3.6959,3.6571,3.5215,3.409,3.3297,3.2766,3.2386,3.1966,3.1162,3.087,3.0678,3.0716,3.0678,3.0408,3.0253,2.9804,2.9547,2.9344,2.893,2.8915,2.89,2.9353,2.9314,2.9341,3.0212,3.0618,3.0585,3.0535,3.0779,3.0528,3.0317,3.0422,3.0481,3.0393,3.039,3.0378,3.0525,3.0583,3.0612,3.0729,3.0746,3.1452,3.2005,3.2005,3.2211,3.3429,3.543,3.6797,3.7494,3.9393,4.0685,4.1172,4.1211,4.1211,4.1211,4.1211,4.1387,4.1719,4.207,4.2265,4.2752,4.3476,4.3691,4.3691,4.3691,4.3691,4.3691,4.3691,4.3691,4.3672,4.3496,4.3205,4.2737,4.2387,4.2149,4.2588,4.333,4.3539,4.3615,4.3615,4.3615,4.3615,4.3615,4.3539,4.3462,3.664,3.6369,3.6573,3.6522,3.6416,3.6981,3.7426,3.7873,3.8743,3.9115,3.9158,3.9201,3.9103,3.8921,3.8683,3.8153,3.7401,3.7217,3.6793,3.7217,3.7051,3.7328,3.7604,3.8007,3.8465,3.8611,3.8611,3.8611,3.808,3.6996,3.6127,3.5066,3.3545,3.2386,3.1523,3.0986,3.0446,3.0114,2.961,2.9042,2.8886,2.8886,2.8886,2.8886,2.8886,2.89,2.893,2.8973,2.9076,2.912,2.9188,2.932,2.9335,2.9525,2.976,3.0196,3.03,3.0436,3.063,3.0663,3.0656,3.0759,3.0776,3.0715,3.0656,3.0656,3.0729,3.0773,3.0746,3.0776,3.0776,3.0817,3.0817,3.0859,3.1425,3.2046,3.3658,3.5349,3.7237,3.9335,4.0392,4.0997,4.1211,4.1211,4.1211,4.1211,4.1367,4.166,4.2031,4.2304,4.283,4.3535,4.3672,4.3691,4.3691,4.3691,4.3691,4.3691,4.3691,4.3652,4.3535,4.3066,4.2462,4.227,4.2148,4.2626,4.3081,4.3462,4.3615,4.3577,4.3539,4.3577,4.35,4.3348,4.3233,3.6302,3.6016,3.6035,3.6284,3.6734,3.7125,3.7535,3.7982,3.8684,3.9102,3.9116,3.9139,3.8958,3.872,3.8574,3.8319,3.7677,3.7254,3.7364,3.8319,3.7401,3.7401,3.8117,3.8611,3.8611,3.8611,3.8538,3.8392,3.7768,3.6201,3.4278,3.3432,3.189,3.0909,3.06,2.9765,2.9392,2.9275,2.908,2.8783,2.8886,2.8886,2.8886,2.8886,2.89,2.8915,2.9042,2.9218,2.9437,2.954,2.9672,2.9833,2.9906,2.9921,3.0126,3.0302,3.0419,3.051,3.0671,3.0729,3.0759,3.0761,3.0776,3.0803,3.0773,3.0732,3.0776,3.0776,3.0776,3.0776,3.0776,3.0776,3.0776,3.0776,3.1108,3.217,3.3781,3.5712,3.8011,3.9786,4.0724,4.1211,4.1211,4.1211,4.1211,4.1211,4.1308,4.1582,4.2031,4.2343,4.293,4.3555,4.3652,4.3691,4.3691,4.3691,4.3691,4.3691,4.3691,4.3691,4.3613,4.2969,4.2148,4.2053,4.2028,4.2239,4.26,4.3042,4.3348,4.331,4.331,4.3462,4.3386,4.3081,4.2966,3.6084,3.6035,3.6035,3.6269,3.6699,3.7129,3.7539,3.7949,3.8462,3.8747,3.8756,3.8756,3.872,3.8611,3.8574,3.819,3.718,3.7677,3.7438,3.7677,3.7401,3.7861,3.8501,3.8611,3.8611,3.8611,3.8465,3.7714,3.6201,3.4166,3.2424,3.1753,3.0423,2.9726,2.9649,2.8886,2.8847,2.873,2.8549,2.8588,2.873,2.8847,2.8886,2.89,2.89,2.9047,2.9178,2.9379,2.9599,2.976,2.9833,3.0024,3.0243,3.0273,3.0434,3.0642,3.0671,3.0744,3.0773,3.0776,3.0776,3.0776,3.0776,3.0776,3.0776,3.0776,3.0776,3.0776,3.0776,3.0776,3.0776,3.0776,3.0776,3.0776,3.09,3.2443,3.4026,3.6494,3.8822,3.9943,4.0958,4.1211,4.1211,4.1211,4.1211,4.1211,4.1211,4.1426,4.2031,4.2421,4.291,4.3437,4.3633,4.3691,4.3691,4.3691,4.3691,4.3691,4.3691,4.3691,4.3652,4.2949,4.2208,4.1954,4.1889,4.2062,4.2331,4.2774,4.3004,4.2966,4.3004,4.3081,4.2812,4.2485,4.2447,3.6035,3.6055,3.623,3.6562,3.7007,3.7402,3.7812,3.8203,3.8476,3.8611,3.8611,3.8611,3.8611,3.8611,3.8574,3.8319,3.7401,3.8153,3.808,3.7934,3.7934,3.8355,3.8611,3.8611,3.8611,3.8538,3.7604,3.6386,3.4241,3.2728,3.1255,3.0307,2.9197,2.8808,2.8705,2.8627,2.8549,2.83,2.8118,2.8172,2.8446,2.851,2.8627,2.8666,2.8929,2.9168,2.9412,2.9628,2.995,3.0141,3.0273,3.0405,3.0525,3.0554,3.0642,3.0744,3.0761,3.0776,3.0776,3.079,3.0805,3.0805,3.0805,3.0805,3.0776,3.0776,3.0776,3.0776,3.0776,3.0776,3.0776,3.0776,3.0776,3.0776,3.115,3.2113,3.4904,3.7892,3.955,4.0607,4.1211,4.1211,4.1211,4.1211,4.1211,4.1211,4.1211,4.1523,4.207,4.2499,4.3008,4.3379,4.3594,4.3691,4.3691,4.3691,4.3691,4.3691,4.3691,4.3398,4.3183,4.2754,4.2287,4.1856,4.1695,4.1869,4.2197,4.2505,4.2621,4.2639,4.2659,4.2697,4.2331,4.2043,4.2063,3.6055,3.6152,3.6504,3.6988,3.7402,3.7754,3.8144,3.8552,3.8611,3.8611,3.8611,3.8611,3.8611,3.8611,3.8611,3.8611,3.8574,3.8501,3.8465,3.8465,3.8501,3.8611,3.8611,3.8611,3.8392,3.7364,3.6127,3.4128,3.1906,3.087,3.0075,2.9042,2.8744,2.8627,2.8314,2.8157,2.8079,2.7858,2.7689,2.7639,2.7782,2.8018,2.8282,2.8619,2.8975,2.9362,2.9676,2.998,3.0346,3.0522,3.0598,3.0685,3.0729,3.0744,3.0759,3.0776,3.0776,3.0776,3.079,3.0905,3.092,3.092,3.0863,3.0907,3.0907,3.0878,3.0878,3.0849,3.0849,3.079,3.079,3.0776,3.0776,3.1067,3.1508,3.2608,3.5954,3.8901,3.9943,4.0997,4.1211,4.1211,4.1211,4.1211,4.1211,4.1211,4.1445,4.1797,4.2207,4.2617,4.3047,4.3379,4.3633,4.3691,4.3691,4.3691,4.3691,4.3691,4.3633,4.3144,4.2713,4.2479,4.2129,4.1543,4.1463,4.1618,4.1811,4.2082,4.2197,4.2236,4.2254,4.2236,4.2005,4.1754,4.1774,3.623,3.6597,3.6675,3.7109,3.7718,3.7874,3.8164,3.8571,3.8611,3.8611,3.8611,3.8611,3.8611,3.8611,3.8611,3.8611,3.8611,3.8611,3.8611,3.8574,3.8611,3.8611,3.8319,3.7751,3.7585,3.609,3.409,3.2097,3.077,2.9881,2.9158,2.8524,2.8446,2.8236,2.7844,2.7726,2.7689,2.7509,2.7516,2.7507,2.7641,2.796,2.8344,2.8671,2.9042,2.9613,3.0063,3.0317,3.0536,3.0671,3.0773,3.0761,3.0776,3.0776,3.0776,3.0805,3.0805,3.089,3.0934,3.111,3.1183,3.1242,3.13,3.1476,3.1432,3.1285,3.1242,3.1082,3.1024,3.0834,3.0805,3.079,3.0859,3.155,3.2113,3.4538,3.7476,3.8764,3.9688,4.0588,4.1211,4.1211,4.1211,4.123,4.125,4.1328,4.1523,4.1914,4.2402,4.2773,4.3105,4.3379,4.3672,4.3691,4.3691,4.3691,4.3691,4.3691,4.3594,4.3164,4.2812,4.2479,4.2051,4.1426,4.125,4.1327,4.1502,4.1695,4.1657,4.1734,4.185,4.1811,4.1579,4.1561,4.1679]},{"header":{"parameterUnit":"m.s-1","parameterCategory":1,"la1":31.0,"la2":29.5877,"lo1":-88.7671,"lo2":-86.6584,"dx":0.0162,"dy":0.0185,"nx":115,"ny":88,"refTime":"2022-11-23T06:00:00:Z","depth":0,"parameterNumber":3,"parameterNumberName":"V-component_of_WINDS"},"data":[0.0,0.0,0.0,0.0,0.0,0.0,0.0,0.0,0.0,0.0,0.0,0.0,0.0,0.0,0.0,0.0,0.0,0.0,0.0,0.0,0.0,0.0,0.0,0.0,0.0,0.0,0.0,0.0,0.0,0.0,0.0,0.0,0.0,0.0,0.0,0.0,0.0,0.0,0.0,0.0,0.0,0.0,0.0,0.0,0.0,0.0,0.0,0.0,0.0,0.0,0.0,0.0,0.0,0.0,0.0,0.0,0.0,0.0,0.0,0.0,0.0,0.0,0.0,0.0,0.0,0.0,0.0,0.0,0.0,0.0,0.0,0.0,0.0,0.0,0.0,0.0,0.0,0.0,0.0,0.0,0.0,0.0,0.0,0.0,0.0,0.0,0.0,0.0,0.0,0.0,0.0,0.0,0.0,0.0,0.0,0.0,0.0,0.0,0.0,0.0,0.0,0.0,0.0,0.0,0.0,0.0,0.0,0.0,0.0,0.0,0.0,0.0,0.0,0.0,0.0,0.0,0.0,0.0,0.0,0.0,0.0,0.0,0.0,0.0,0.0,0.0,0.0,0.0,0.0,0.0,0.0,0.0,0.0,0.0,0.0,0.0,0.0,0.0,0.0,0.0,0.0,0.0,0.0,0.0,0.0,0.0,0.0,0.0,0.0,0.0,0.0,0.0,0.0,0.0,0.0,0.0,0.0,0.0,0.0,0.0,0.0,0.0,0.0,0.0,0.0,0.0,0.0,0.0,0.0,0.0,0.0,0.0,0.0,0.0,0.0,0.0,0.0,0.0,0.0,0.0,0.0,0.0,0.0,0.0,0.0,0.0,0.0,0.0,0.0,0.0,0.0,0.0,0.0,0.0,0.0,0.0,0.0,0.0,0.0,0.0,0.0,0.0,0.0,0.0,0.0,0.0,0.0,0.0,0.0,0.0,0.0,0.0,0.0,0.0,0.0,0.0,0.0,0.0,0.0,0.0,0.0,0.0,0.0,0.0,0.0,0.0,0.0,0.0,0.0,0.0,0.0,0.0,0.0,0.0,0.0,0.0,0.0,0.0,0.0,0.0,0.0,0.0,0.0,0.0,0.0,0.0,0.0,0.0,0.0,0.0,0.0,0.0,0.0,0.0,0.0,0.0,0.0,0.0,0.0,0.0,0.0,0.0,0.0,0.0,0.0,0.0,0.0,0.0,0.0,0.0,0.0,0.0,0.0,0.0,0.0,0.0,0.0,0.0,0.0,0.0,0.0,0.0,0.0,0.0,0.0,0.0,0.0,0.0,0.0,0.0,0.0,0.0,0.0,0.0,0.0,0.0,0.0,0.0,0.0,0.0,0.0,0.0,0.0,0.0,0.0,0.0,0.0,0.0,0.0,0.0,0.0,0.0,0.0,0.0,0.0,0.0,0.0,0.0,0.0,0.0,0.0,0.0,0.0,0.0,0.0,0.0,0.0,0.0,0.0,0.0,0.0,0.0,0.0,0.0,0.0,0.0,0.0,0.0,0.0,0.0,0.0,0.0,0.0,0.0,0.0,0.0,0.0,0.0,0.0,0.0,0.0,0.0,0.0,0.0,0.0,0.0,0.0,0.0,0.0,0.0,0.0,0.0,0.0,0.0,0.0,0.0,0.0,0.0,0.0,0.0,0.0,0.0,0.0,0.0,0.0,0.0,0.0,0.0,0.0,0.0,0.0,0.0,0.0,0.0,0.0,0.0,0.0,0.0,0.0,0.0,0.0,0.0,0.0,0.0,0.0,0.0,0.0,0.0,0.0,0.0,0.0,0.0,0.0,0.0,0.0,0.0,0.0,0.0,0.0,0.0,0.0,0.0,0.0,0.0,0.0,0.0,0.0,0.0,0.0,0.0,0.0,0.0,0.0,0.0,0.0,0.0,0.0,0.0,0.0,0.0,0.0,0.0,0.0,0.0,0.0,0.0,0.0,0.0,0.0,0.0,0.0,0.0,0.0,0.0,0.0,0.0,0.0,0.0,0.0,0.0,0.0,0.0,0.0,0.0,0.0,0.0,0.0,0.0,0.0,0.0,0.0,0.0,0.0,0.0,0.0,0.0,0.0,0.0,0.0,0.0,0.0,0.0,0.0,0.0,0.0,0.0,0.0,0.0,0.0,0.0,0.0,0.0,0.0,0.0,0.0,0.0,0.0,0.0,0.0,0.0,0.0,0.0,0.0,0.0,0.0,0.0,0.0,0.0,0.0,0.0,0.0,0.0,0.0,0.0,0.0,0.0,0.0,0.0,0.0,0.0,0.0,0.0,0.0,0.0,0.0,0.0,0.0,0.0,0.0,0.0,0.0,0.0,0.0,0.0,0.0,0.0,0.0,0.0,0.0,0.0,0.0,0.0,0.0,0.0,0.0,0.0,0.0,0.0,0.0,0.0,0.0,0.0,0.0,0.0,0.0,0.0,0.0,0.0,0.0,0.0,0.0,0.0,0.0,0.0,0.0,0.0,0.0,0.0,0.0,0.0,0.0,0.0,0.0,0.0,0.0,0.0,0.0,0.0,0.0,0.0,0.0,0.0,0.0,0.0,0.0,0.0,0.0,0.0,0.0,0.0,0.0,0.0,0.0,0.0,0.0,0.0,0.0,0.0,0.0,0.0,0.0,0.0,0.0,0.0,0.0,0.0,0.0,0.0,0.0,0.0,0.0,0.0,0.0,0.0,0.0,0.0,0.0,0.0,0.0,0.0,0.0,0.0,0.0,0.0,0.0,0.0,0.0,0.0,0.0,0.0,0.0,0.0,0.0,0.0,0.0,0.0,0.0,0.0,0.0,0.0,0.0,0.0,0.0,0.0,0.0,0.0,0.0,0.0,0.0,0.0,0.0,0.0,0.0,0.0,0.0,0.0,0.0,0.0,0.0,0.0,0.0,0.0,0.0,0.0,0.0,0.0,0.0,0.0,0.0,0.0,0.0,0.0,0.0,0.0,0.0,0.0,0.0,0.0,0.0,0.0,0.0,0.0,0.0,0.0,0.0,0.0,0.0,0.0,0.0,0.0,0.0,0.0,0.0,0.0,0.0,0.0,0.0,0.0,0.0,0.0,0.0,0.0,0.0,0.0,0.0,0.0,0.0,0.0,0.0,0.0,0.0,0.0,0.0,0.0,0.0,0.0,0.0,0.0,0.0,0.0,0.0,0.0,0.0,0.0,0.0,0.0,0.0,0.0,0.0,0.0,0.0,0.0,0.0,0.0,0.0,0.0,0.0,0.0,0.0,0.0,0.0,0.0,0.0,0.0,0.0,0.0,0.0,0.0,0.0,0.0,0.0,0.0,0.0,0.0,0.0,0.0,0.0,0.0,0.0,0.0,0.0,0.0,0.0,0.0,0.0,0.0,0.0,0.0,0.0,0.0,0.0,0.0,0.0,0.0,0.0,0.0,0.0,0.0,0.0,0.0,0.0,0.0,0.0,0.0,0.0,0.0,0.0,0.0,0.0,0.0,0.0,0.0,0.0,0.0,0.0,0.0,0.0,0.0,0.0,0.0,0.0,0.0,0.0,0.0,0.0,0.0,0.0,0.0,0.0,0.0,0.0,0.0,0.0,0.0,0.0,0.0,0.0,0.0,0.0,0.0,0.0,0.0,0.0,0.0,0.0,0.0,0.0,0.0,0.0,0.0,0.0,0.0,0.0,0.0,0.0,0.0,0.0,0.0,0.0,0.0,0.0,0.0,0.0,0.0,0.0,0.0,0.0,0.0,0.0,0.0,0.0,0.0,0.0,0.0,0.0,0.0,0.0,0.0,0.0,0.0,0.0,0.0,0.0,0.0,0.0,0.0,0.0,0.0,0.0,0.0,0.0,0.0,0.0,0.0,0.0,0.0,0.0,0.0,0.0,0.0,0.0,0.0,0.0,0.0,0.0,0.0,0.0,0.0,0.0,0.0,0.0,0.0,0.0,0.0,0.0,0.0,0.0,0.0,0.0,0.0,0.0,0.0,0.0,0.0,0.0,0.0,0.0,0.0,0.0,0.0,0.0,0.0,0.0,0.0,0.0,0.0,0.0,0.0,0.0,0.0,0.0,0.0,0.0,0.0,0.0,0.0,0.0,0.0,0.0,0.0,0.0,0.0,0.0,0.0,0.0,0.0,0.0,0.0,0.0,0.0,0.0,0.0,0.0,0.0,0.0,0.0,0.0,0.0,0.0,0.0,0.0,0.0,0.0,0.0,0.0,0.0,0.0,0.0,0.0,0.0,0.0,0.0,0.0,0.0,0.0,0.0,0.0,0.0,0.0,0.0,0.0,0.0,0.7196,0.0,0.0,0.0,0.7211,0.0,0.0,0.0,0.0,0.0,0.0,0.0,0.0,0.0,0.0,0.0,0.0,0.0,0.0,0.0,0.0,0.0,0.0,0.0,0.0,0.0,0.0,0.0,0.0,0.0,0.0,0.0,0.0,0.0,0.0,0.0,0.0,0.0,0.0,0.0,0.0,0.0,0.0,0.0,0.0,0.0,0.0,0.0,0.0,0.0,0.0,0.0,0.0,0.0,0.0,0.0,0.0,0.0,0.0,0.0,0.0,0.0,0.0,0.0,0.0,0.0,0.0,0.0,0.0,0.0,0.0,0.0,0.0,0.0,0.0,0.0,0.0,0.0,0.0,0.0,0.0,0.0,0.0,0.0,0.0,0.0,0.0,0.0,0.0,0.0,0.0,0.0,0.0,0.0,0.0,0.0,0.0,0.0,0.0,0.0,0.0,0.0,0.0,0.0,0.0,0.0,0.0,0.0,0.0,0.0,0.0,0.0,0.0,0.0,0.0,0.7196,0.7196,0.7196,0.7196,0.7225,0.0,0.0,0.0,0.0,0.0,0.0,0.0,0.0,0.0,0.0,0.0,0.0,0.0,0.0,0.0,0.0,0.0,0.0,0.0,0.0,0.0,0.0,0.0,0.0,0.0,0.0,0.0,0.0,0.0,0.0,0.0,0.0,0.0,0.0,0.0,0.0,0.0,0.0,0.0,0.0,0.0,0.0,0.0,0.0,0.0,0.0,0.0,0.0,0.0,0.0,0.0,0.0,0.0,0.0,0.0,0.0,0.0,0.0,0.0,0.0,0.0,0.0,0.0,0.0,0.0,0.0,0.0,0.0,0.0,0.0,0.0,0.0,0.0,0.0,0.0,0.0,0.0,0.0,0.0,0.0,0.0,0.0,0.0,0.0,0.0,0.0,0.0,0.0,0.0,0.0,0.0,0.0,0.0,0.0,0.0,0.0,0.0,0.0,0.0,0.0,0.0,0.0,0.0,0.0,0.0,0.0,0.0,0.0,0.0,0.0,0.0,0.0,0.7196,0.7277,0.7476,0.0,0.0,0.0,0.0,0.0,0.0,0.0,0.0,0.0,0.0,0.0,0.0,0.0,0.0,0.0,0.0,0.0,0.0,0.0,0.0,0.0,0.0,0.0,0.0,0.0,0.0,0.0,0.0,0.0,0.0,0.0,0.0,0.0,0.0,0.0,0.0,0.0,0.0,0.0,0.0,0.0,0.0,0.0,0.0,0.0,0.0,0.0,0.0,0.0,0.0,0.0,0.0,0.0,0.0,0.0,0.0,0.0,0.0,0.0,0.0,0.0,0.0,0.0,0.0,0.0,0.0,0.0,0.0,0.0,0.0,0.0,0.0,0.0,0.0,0.0,0.0,0.0,0.0,0.0,0.0,0.0,0.0,0.0,0.0,0.0,0.0,0.0,0.0,0.0,0.0,0.0,0.0,0.0,0.0,0.0,0.0,0.0,0.0,0.0,0.0,0.0,0.0,0.0,0.0,0.0,0.0,0.0,0.0,0.0,0.0,0.7196,0.7196,0.7196,0.0,0.8191,0.0,0.0,0.0,0.0,0.0,0.0,0.0,0.0,0.0,0.0,0.0,0.0,0.0,0.0,0.0,0.0,0.0,0.0,0.0,0.0,0.0,0.0,0.0,0.0,0.0,0.0,0.0,0.0,0.0,0.0,0.0,0.0,0.0,0.0,0.0,0.0,0.0,0.0,0.0,0.0,0.0,0.0,0.0,0.0,0.0,0.0,0.0,0.0,0.0,0.0,0.0,0.0,0.0,0.0,0.0,0.0,0.0,0.0,0.0,0.0,0.0,0.0,0.0,0.0,0.0,0.0,0.0,0.0,0.0,0.0,0.0,0.0,0.0,0.0,0.0,0.0,0.0,0.0,0.0,0.0,0.0,0.0,0.0,0.0,0.0,0.0,0.0,0.0,0.0,0.0,0.0,0.0,0.0,0.0,0.0,0.0,0.0,0.0,0.0,0.0,0.0,0.0,0.0,0.0,0.0,0.0,0.0,0.0,0.0,0.0,0.7196,0.7196,0.7196,0.7557,0.0,0.0,0.0,0.0,0.0,0.0,0.0,0.0,0.0,0.0,0.0,0.0,0.0,0.0,0.0,0.0,0.0,0.0,0.0,0.0,0.0,0.0,0.0,0.0,0.0,0.0,0.0,0.0,0.0,0.0,0.0,0.0,0.0,0.0,0.0,0.0,0.0,0.0,0.0,0.0,0.0,0.0,0.0,0.0,0.0,0.0,0.0,0.0,0.0,0.0,0.0,0.0,0.0,0.0,0.0,0.0,0.0,0.0,0.0,0.0,0.0,0.0,0.0,0.0,0.0,0.0,0.0,0.0,0.0,0.0,0.0,0.0,0.0,0.0,0.0,0.0,0.0,0.0,0.0,0.0,0.0,0.0,0.0,0.0,0.0,0.0,0.0,0.0,0.0,0.0,0.0,0.0,0.0,0.0,0.0,0.0,0.0,0.0,0.0,0.0,0.0,0.0,0.0,0.0,0.0,0.0,0.0,0.0,0.0,0.0,0.736,0.7441,0.7548,0.7514,0.7841,0.8538,0.0,0.0,0.0,0.0,0.0,0.0,0.0,0.0,0.0,0.0,0.0,0.0,0.0,0.0,0.0,0.0,0.0,0.0,0.0,0.0,0.0,0.0,0.0,0.0,0.0,0.0,0.0,0.0,0.0,0.0,0.0,0.0,0.0,0.0,0.0,0.0,0.0,0.0,0.0,0.0,0.0,0.0,0.0,0.0,0.0,0.0,0.0,0.0,0.0,0.0,0.0,0.0,0.0,0.0,0.0,0.0,0.0,0.0,0.0,0.0,0.0,0.0,0.0,0.0,0.0,0.0,0.0,0.0,0.0,0.0,0.0,0.0,0.0,0.0,0.0,0.0,0.0,0.0,0.0,0.0,0.0,0.0,0.0,0.0,0.0,0.0,0.0,0.0,0.0,0.0,0.0,0.0,0.0,0.0,0.0,0.0,0.0,0.0,0.0,0.0,0.0,0.0,0.0,0.0,0.0,0.0,0.0,0.0,0.7756,0.7766,0.7981,0.8407,0.8308,0.8493,0.0,0.0,0.0,0.0,0.0,0.0,0.0,0.0,0.0,0.0,0.0,0.0,0.0,0.0,0.0,0.0,0.0,0.0,0.0,0.0,0.0,0.0,0.0,0.0,0.0,0.0,0.0,0.0,0.0,0.0,0.0,0.0,0.0,0.0,0.0,0.0,0.0,0.0,0.0,0.0,0.0,0.0,0.0,0.0,0.0,0.0,0.0,0.0,0.0,0.0,0.0,0.0,0.0,0.0,0.0,0.0,0.0,0.0,0.0,0.0,0.0,0.0,0.0,0.0,0.0,0.0,0.0,0.0,0.0,0.0,0.0,0.0,0.0,0.0,0.0,0.0,0.0,0.0,0.0,0.0,0.0,0.0,0.0,0.0,0.0,0.0,0.0,0.0,0.0,0.0,0.0,0.0,0.0,0.0,0.0,0.0,0.0,0.0,0.0,0.0,0.0,0.0,0.0,0.0,0.0,0.0,0.0,0.0,0.0,0.7419,0.7922,0.8415,0.8857,0.8797,0.884,0.0,0.0,0.0,0.0,0.0,0.0,0.0,0.0,0.0,0.0,0.0,0.0,0.0,0.0,0.0,0.0,0.0,0.0,0.0,0.0,0.0,0.0,0.0,0.0,0.0,0.0,0.0,0.0,0.0,0.0,0.0,0.0,0.0,0.0,0.0,0.0,0.0,0.0,0.0,0.0,0.0,0.0,0.0,0.0,0.0,0.0,0.0,0.0,0.0,0.0,0.0,0.0,0.0,0.0,0.0,0.0,0.0,0.0,0.0,0.0,0.0,0.0,0.0,0.0,0.0,0.0,0.0,0.0,0.0,0.0,0.0,0.0,0.0,0.0,0.0,0.0,0.0,0.0,0.0,0.0,0.0,0.0,0.0,0.0,0.0,0.0,0.0,0.0,0.0,0.0,0.0,0.0,0.0,0.0,0.0,0.0,0.0,0.0,0.0,0.0,0.0,0.0,0.0,0.0,0.0,0.0,0.0,0.0,0.0,0.7822,0.8822,0.9523,0.986,0.9857,0.9755,0.0,0.0,0.0,0.0,0.0,0.0,0.0,0.0,0.0,0.0,0.0,0.0,0.0,0.0,0.0,0.0,0.0,0.0,0.0,0.0,0.0,0.0,0.0,0.0,0.0,0.0,0.0,0.0,0.0,0.0,0.0,0.0,0.0,0.0,0.0,0.0,0.0,0.0,0.0,0.0,0.0,0.0,0.0,0.0,0.0,0.0,0.0,0.0,0.0,0.0,0.0,0.0,0.0,0.0,0.0,0.0,0.0,0.0,0.0,0.0,0.0,0.0,0.0,0.0,0.0,0.0,0.0,0.0,0.0,0.0,0.0,0.0,0.0,0.0,0.0,0.0,0.0,0.0,0.0,0.0,0.0,0.0,0.0,0.0,0.0,0.0,0.0,0.0,0.0,0.0,0.0,0.0,0.0,0.0,0.0,0.0,0.0,0.0,0.0,0.0,0.0,0.0,0.0,0.0,0.0,0.0,0.0,0.0,0.7897,0.912,1.0581,1.1396,1.153,1.1603,1.1363,0.0,0.0,0.0,0.0,0.0,0.0,0.0,0.0,0.0,0.0,0.0,0.0,0.0,0.0,0.0,0.0,0.0,0.0,0.0,0.0,0.0,0.0,0.0,0.0,0.0,0.0,0.0,0.0,0.0,0.0,0.0,0.0,0.0,0.0,0.0,0.0,0.0,0.0,0.0,0.0,0.0,0.0,0.0,0.0,0.0,0.0,0.0,0.0,0.0,0.0,0.0,0.0,0.0,0.0,0.0,0.0,0.0,0.0,0.0,0.0,0.0,0.0,0.0,0.0,0.0,0.0,0.0,0.0,0.0,0.0,0.0,0.0,0.0,0.0,0.0,0.0,0.0,0.0,0.0,0.0,0.0,0.0,0.0,0.0,0.0,0.0,0.0,0.0,0.0,0.0,0.0,0.0,0.0,0.0,0.0,0.0,0.0,0.0,0.0,0.0,0.0,0.0,0.0,0.0,0.0,0.0,0.0,0.0,0.0,1.071,1.2497,1.3532,1.3754,1.367,1.2917,0.0,0.0,0.0,0.0,0.0,0.0,0.0,0.0,0.0,0.0,0.0,0.0,0.0,0.0,0.0,0.0,0.0,0.0,0.0,0.0,0.0,0.0,0.0,0.0,0.0,0.0,0.0,0.0,0.0,0.0,0.0,0.0,0.0,0.0,0.0,0.0,0.0,0.0,0.0,0.0,0.0,0.0,0.0,0.0,0.0,0.0,0.0,0.0,0.0,0.0,0.0,0.0,0.0,0.0,0.0,0.0,0.0,0.0,0.0,0.0,0.0,0.0,0.0,0.0,0.0,0.0,0.0,0.0,0.0,0.0,0.0,0.0,0.0,0.0,0.0,0.0,0.0,0.0,0.0,0.0,0.0,0.0,0.0,0.0,0.0,0.0,0.0,0.0,0.0,0.0,0.0,0.0,0.0,0.0,0.0,0.0,0.0,0.0,0.0,0.0,0.0,0.0,0.0,0.0,0.0,0.0,0.0,0.0,0.0,1.4315,1.5408,1.6262,1.6797,1.6475,1.5287,1.3206,0.0,0.0,0.0,0.0,0.0,0.0,0.0,0.0,0.0,0.0,0.0,0.0,0.0,0.0,0.0,0.0,0.0,0.0,0.0,0.0,0.0,0.0,0.0,0.0,0.0,0.0,0.0,0.0,0.0,0.0,0.0,0.0,0.0,0.0,0.0,0.0,0.0,0.0,0.0,0.0,0.0,0.0,0.0,0.0,0.0,0.0,0.0,0.0,0.0,0.0,0.0,0.0,0.0,0.0,0.0,0.0,0.0,0.0,0.0,0.0,0.0,0.0,0.0,0.0,0.0,0.0,0.0,0.0,0.0,0.0,0.0,0.0,0.0,0.0,0.0,0.0,0.0,0.0,0.0,0.0,0.0,0.0,0.0,0.0,0.0,0.0,0.0,0.0,0.0,0.0,0.0,0.0,0.0,0.0,0.0,0.0,0.0,0.0,0.0,0.0,0.0,0.0,0.0,0.0,0.0,0.0,0.0,0.0,1.9383,1.9306,1.9624,2.0389,1.9772,1.825,0.0,0.0,0.0,0.0,0.0,0.0,0.0,0.0,0.0,0.0,0.0,0.0,0.0,0.0,0.0,0.0,0.0,0.0,0.0,0.0,0.0,0.0,0.0,0.0,0.0,0.0,0.0,0.0,0.0,0.0,0.0,0.0,0.0,0.0,0.0,0.0,0.0,0.0,0.0,0.0,0.0,0.0,0.0,0.0,0.0,0.0,0.0,0.0,0.0,0.0,0.0,0.0,0.0,0.0,0.0,0.0,0.0,0.0,0.0,0.0,0.0,0.0,0.0,0.0,0.0,0.0,0.0,0.0,0.0,0.0,0.0,0.0,0.0,0.0,0.0,0.0,0.0,0.0,0.0,0.0,0.0,0.0,0.0,0.0,0.0,0.0,0.0,0.0,0.0,0.0,0.0,0.0,0.0,0.0,0.0,0.0,0.0,0.0,0.0,0.0,0.0,0.0,0.0,0.0,0.0,0.0,0.0,0.0,0.0,2.233,2.451,2.4908,2.334,2.1911,1.9939,0.0,0.0,0.0,0.0,0.0,0.0,0.0,0.0,0.0,0.0,0.0,0.0,0.0,0.0,0.0,0.0,0.0,0.0,0.0,0.0,0.0,0.0,0.0,0.0,0.0,0.0,0.0,0.0,0.0,0.0,0.0,0.0,0.0,0.0,0.0,0.0,0.0,0.0,0.0,0.0,0.0,0.0,0.0,0.0,0.0,0.0,0.0,0.0,0.0,0.0,0.0,0.0,0.0,0.0,0.0,0.0,0.0,0.0,0.0,0.0,0.0,0.0,0.0,0.0,0.0,0.0,0.0,0.0,0.0,0.0,0.0,0.0,0.0,0.0,0.0,0.0,0.0,0.0,0.0,0.0,0.0,0.0,0.0,0.0,0.0,0.0,0.0,0.0,0.0,0.0,0.0,0.0,0.0,0.0,0.0,0.0,0.0,0.0,0.0,0.0,0.0,0.0,0.0,0.0,0.0,0.0,0.0,0.0,2.1831,2.5004,2.7432,2.8098,2.6831,2.4505,2.1962,0.0,0.0,0.0,0.0,0.0,0.0,0.0,0.0,0.0,0.0,0.0,0.0,0.0,0.0,0.0,0.0,0.0,0.0,0.0,0.0,0.0,0.0,0.0,0.0,0.0,0.0,0.0,0.0,0.0,0.0,0.0,0.0,0.0,0.0,0.0,0.0,0.0,0.0,0.0,0.0,0.0,0.0,0.0,0.0,0.0,0.0,0.0,0.0,0.0,0.0,0.0,0.0,0.0,0.0,0.0,0.0,0.0,0.0,0.0,0.0,0.0,0.0,0.0,0.0,0.0,0.0,0.0,0.0,0.0,0.0,0.0,0.0,0.0,0.0,0.0,0.0,0.0,0.0,0.0,0.0,0.0,0.0,0.0,0.0,0.0,0.0,0.0,0.0,0.0,0.0,0.0,0.0,0.0,0.0,0.0,0.0,0.0,0.0,0.0,0.0,0.0,0.0,0.0,0.0,0.0,0.0,0.0,0.0,2.3258,2.7315,2.8939,2.993,3.0152,2.7074,2.3936,0.0,0.0,0.0,0.0,0.0,0.0,0.0,0.0,0.0,0.0,0.0,0.0,0.0,0.0,0.0,0.0,0.0,0.0,0.0,0.0,0.0,0.0,0.0,0.0,0.0,0.0,0.0,0.0,0.0,0.0,0.0,0.0,0.0,0.0,0.0,0.0,0.0,0.0,0.0,0.0,0.0,0.0,0.0,0.0,0.0,0.0,0.0,0.0,0.0,0.0,0.0,0.0,0.0,0.0,0.0,0.0,0.0,0.0,0.0,0.0,0.0,0.0,0.0,0.0,0.0,0.0,0.0,0.0,0.0,0.0,0.0,0.0,0.0,0.0,0.0,0.0,0.0,0.0,0.0,0.0,0.0,0.0,0.0,0.0,0.0,0.0,0.0,0.0,0.0,0.0,0.0,0.0,0.0,0.0,0.0,0.0,0.0,0.0,0.0,0.0,0.0,0.0,0.0,0.0,0.0,0.0,0.0,0.0,2.4923,2.8518,3.0466,3.1392,3.1268,2.7801,2.465,0.0,0.0,0.0,0.0,0.0,0.0,0.0,0.0,0.0,0.0,0.0,0.0,0.0,0.0,0.0,0.0,0.0,0.0,0.0,0.0,0.0,0.0,0.0,0.0,0.0,0.0,0.0,0.0,0.0,0.0,0.0,0.0,0.0,0.0,0.0,0.0,0.0,0.0,0.0,0.0,0.0,0.0,0.0,0.0,0.0,0.0,0.0,0.0,1.137,0.0,0.0,0.0,0.0,0.0,0.0,0.0,0.0,0.0,0.0,0.0,0.0,0.0,0.0,0.0,0.0,0.0,0.0,0.0,0.0,0.0,0.0,0.0,0.0,0.0,0.0,0.0,0.0,0.0,0.0,0.0,0.0,0.0,0.0,0.0,0.0,0.0,0.0,0.0,0.0,0.0,0.0,0.0,0.0,0.0,0.0,0.0,0.0,0.0,0.0,0.0,0.0,0.0,0.0,0.0,0.0,0.0,0.0,0.0,2.6318,3.0117,3.1501,3.2,3.1515,2.847,2.5498,0.0,0.0,0.0,0.0,0.0,0.0,0.0,0.0,0.0,0.0,0.0,0.0,0.0,0.0,0.0,0.0,0.0,0.0,0.0,0.0,0.0,0.0,0.0,0.0,0.0,0.0,0.0,0.0,0.0,0.0,0.0,0.0,0.0,0.0,0.0,0.0,0.0,0.0,0.0,0.0,0.0,0.0,0.0,0.0,0.0,0.0,0.0,0.0,0.0,0.0,0.0,0.0,0.0,0.0,0.0,0.0,0.0,0.0,0.0,0.0,0.0,0.0,0.0,0.0,0.0,0.0,0.0,0.0,0.0,0.0,0.0,0.0,0.0,0.0,0.0,0.0,0.0,0.0,0.0,0.0,0.0,0.0,0.0,0.0,0.0,0.0,0.0,0.0,0.0,0.0,0.0,0.0,0.0,0.0,0.0,0.0,0.0,0.0,0.0,0.0,0.0,0.0,0.0,0.0,0.0,0.0,0.0,2.4139,2.7607,3.1715,3.2342,3.2342,3.1815,2.916,2.6353,2.3537,0.0,0.0,0.0,0.0,0.0,0.0,0.0,0.0,0.0,0.0,0.0,0.0,0.0,0.0,0.0,0.0,0.0,0.0,0.0,0.0,0.0,0.0,0.0,0.0,0.0,0.0,0.0,0.0,0.0,0.0,0.0,0.0,0.0,0.0,0.0,0.0,0.0,0.0,1.0607,1.3119,0.0,0.0,0.0,0.0,0.0,0.0,0.0,0.0,1.4215,0.0,0.0,0.0,0.0,0.0,0.0,0.0,0.0,0.0,0.0,0.0,0.0,0.0,0.0,0.0,0.0,0.0,0.0,0.0,0.0,0.0,0.0,0.0,0.0,0.0,0.0,0.0,0.0,0.0,0.0,0.0,0.0,0.0,0.0,0.0,0.0,0.0,0.0,0.0,0.0,0.0,0.0,0.0,0.0,0.0,0.0,0.0,0.0,0.0,0.0,0.0,0.0,0.0,0.0,0.0,0.0,2.1822,2.5406,2.9181,3.3148,3.33,3.3167,3.2786,3.0039,2.7153,2.4246,0.0,0.0,0.0,0.0,0.0,0.0,0.0,0.0,0.0,0.0,0.0,0.0,0.0,0.0,0.0,0.0,0.0,0.0,0.0,0.0,0.0,0.0,0.0,0.0,0.0,0.0,0.0,0.0,0.0,0.0,0.0,0.0,0.0,0.0,0.0,0.0,0.0,0.0,0.0,1.5463,1.6784,0.0,0.0,0.0,0.0,0.0,0.0,0.0,0.0,1.6319,0.0,0.0,0.0,0.0,0.0,0.0,0.0,0.0,0.0,0.0,0.0,0.0,0.0,0.0,0.0,0.0,0.0,0.0,0.0,0.0,0.0,0.0,0.0,0.0,0.0,0.0,0.0,0.0,0.0,0.0,0.0,0.0,0.0,0.0,0.0,0.0,0.0,0.0,0.0,0.0,0.0,0.0,0.0,0.0,0.0,0.0,0.0,0.0,0.0,0.0,0.0,0.0,0.0,0.0,0.0,2.2883,2.669,3.0296,3.362,3.3742,3.3511,3.3065,3.0223,2.7356,0.0,0.0,0.0,0.0,0.0,0.0,0.0,0.0,0.0,0.0,0.0,0.0,0.0,0.0,0.0,0.0,0.0,0.0,0.0,0.0,0.0,0.0,0.0,0.0,0.0,0.0,0.0,0.0,0.0,0.0,0.0,0.0,0.0,0.0,0.0,0.0,0.0,0.0,0.0,0.0,1.7213,1.8504,1.8788,0.0,0.0,0.0,0.0,0.0,0.0,1.8563,1.8396,0.0,0.0,0.0,0.0,0.0,0.0,0.0,0.0,0.0,0.0,0.0,0.0,0.0,0.0,0.0,0.0,0.0,0.0,0.0,0.0,0.0,0.0,0.0,0.0,0.0,0.0,0.0,0.0,0.0,0.0,0.0,0.0,0.0,0.0,0.0,0.0,0.0,0.0,0.0,0.0,0.0,0.0,0.0,0.0,0.0,0.0,0.0,0.0,0.0,0.0,0.0,0.0,0.0,0.0,0.0,2.4164,2.8082,3.1382,3.3928,3.4151,3.3922,3.3241,3.0483,2.7575,0.0,0.0,0.0,0.0,0.0,0.0,0.0,0.0,0.0,0.0,0.0,0.0,0.0,0.0,0.0,0.0,0.0,0.0,0.0,0.0,0.0,0.0,0.0,0.0,0.0,0.0,0.0,0.0,0.0,0.0,0.0,0.0,0.0,0.0,0.0,0.0,0.0,0.0,0.0,0.0,0.0,2.0073,2.1082,2.2007,0.0,0.0,0.0,0.0,2.1469,2.1178,0.0,0.0,0.0,0.0,0.0,0.0,0.0,0.0,0.0,0.0,0.0,0.0,0.0,0.0,0.0,0.0,0.0,0.0,0.0,0.0,0.0,0.0,0.0,0.0,0.0,0.0,0.0,0.0,0.0,0.0,0.0,0.0,0.0,0.0,0.0,0.0,0.0,0.0,0.0,0.0,0.0,0.0,0.0,0.0,0.0,0.0,0.0,0.0,0.0,0.0,0.0,0.0,0.0,0.0,0.0,0.0,2.5465,2.9613,3.2667,3.4505,3.5079,3.4828,3.3822,3.1237,2.836,0.0,0.0,0.0,0.0,0.0,0.0,0.0,0.0,0.0,0.0,0.0,0.0,0.0,0.0,0.0,0.0,0.0,0.0,0.0,0.0,0.0,0.0,0.0,0.0,0.0,0.0,0.0,0.0,0.0,0.0,0.0,0.0,0.0,0.0,0.0,0.0,0.0,0.0,0.0,0.0,0.0,2.1497,2.3351,2.4262,2.4853,0.0,0.0,2.5539,2.4759,2.4438,0.0,0.0,0.0,0.0,0.0,0.0,0.0,0.0,0.0,0.0,0.0,0.0,0.0,0.0,0.0,0.0,0.0,0.0,0.0,0.0,0.0,0.0,0.0,0.0,0.0,0.0,0.0,0.0,0.0,0.0,0.0,0.0,0.0,0.0,0.0,0.0,0.0,0.0,0.0,0.0,0.0,0.0,0.0,0.0,0.0,0.0,0.0,0.0,0.0,0.0,0.0,0.0,0.0,0.0,0.0,2.2428,2.62,3.0441,3.3283,3.4653,3.5207,3.5004,3.3922,3.1365,2.847,0.0,0.0,0.0,0.0,0.0,0.0,0.0,0.0,0.0,0.0,0.0,0.0,0.0,0.0,0.0,0.0,0.0,0.0,0.0,0.0,0.0,0.0,0.0,0.0,0.0,0.0,0.0,0.0,0.0,0.0,0.0,0.0,0.0,0.0,0.0,0.0,0.0,0.0,0.0,0.0,0.0,0.0,2.4907,2.6573,0.0,0.0,0.0,2.8325,2.7002,0.0,0.0,0.0,0.0,0.0,0.0,0.0,0.0,0.0,0.0,0.0,0.0,0.0,0.0,0.0,0.0,0.0,0.0,0.0,0.0,0.0,0.0,0.0,0.0,0.0,0.0,0.0,0.0,0.0,0.0,0.0,0.0,0.0,0.0,0.0,0.0,0.0,0.0,0.0,0.0,0.0,0.0,0.0,0.0,0.0,0.0,0.0,0.0,0.0,0.0,0.0,0.0,0.0,0.0,0.0,0.0,0.0,2.6844,3.0972,3.3621,3.4678,3.5355,3.518,3.4101,3.1775,0.0,0.0,0.0,0.0,0.0,0.0,0.0,0.0,0.0,0.0,0.0,0.0,0.0,0.0,0.0,0.0,0.0,0.0,0.0,0.0,0.0,0.0,0.0,0.0,0.0,0.0,0.0,0.6798,0.0,0.0,0.0,0.0,0.0,0.0,0.0,0.0,0.0,0.0,0.0,0.0,0.0,0.0,2.5196,2.6764,2.8901,3.0176,0.0,0.0,3.0805,2.9096,2.8627,2.7822,0.0,0.0,0.0,0.0,0.0,0.0,0.0,0.0,0.0,0.0,0.0,0.0,0.0,0.0,0.0,0.0,0.0,0.0,0.0,0.0,0.0,0.0,0.0,0.0,0.0,0.0,0.0,0.0,0.0,0.0,0.0,0.0,0.0,0.0,0.0,0.0,0.0,0.0,0.0,0.0,0.0,0.0,0.0,0.0,0.0,0.0,0.0,0.0,0.0,0.0,0.0,0.0,0.0,0.0,2.3845,2.7502,3.1202,3.3621,3.47,3.5778,3.5803,3.4653,3.2821,3.0318,0.0,0.0,0.0,0.0,0.0,0.0,0.0,0.0,0.0,0.0,0.0,0.0,0.0,0.0,0.0,0.0,0.0,0.0,0.0,0.0,0.0,0.0,0.0,0.0,0.0,0.0,0.0,0.0,0.0,0.0,0.0,0.0,0.0,0.0,0.0,0.0,0.0,0.0,0.0,0.0,0.0,2.6806,2.9285,3.1158,3.2257,0.0,3.295,3.3004,3.1344,3.0815,2.9915,2.7839,0.0,0.0,0.0,0.0,0.0,0.0,0.0,0.0,0.0,0.0,0.0,0.0,0.0,0.0,0.0,0.0,0.0,0.0,0.0,0.0,0.0,0.0,0.0,0.0,0.0,0.0,0.0,0.0,0.0,0.0,0.0,0.0,0.0,0.0,0.0,0.0,0.0,0.0,0.0,0.0,0.0,0.0,0.0,0.0,0.0,0.0,0.0,0.0,0.0,0.0,0.0,0.0,0.0,2.3935,2.7558,3.1223,3.3596,3.4678,3.5828,3.5879,3.4728,3.3246,3.0941,0.0,0.0,0.0,0.0,0.0,0.0,0.0,0.0,0.0,0.0,0.0,0.0,0.0,0.0,0.0,0.0,0.0,0.0,0.0,0.0,0.0,0.0,0.0,0.0,0.0,0.0,0.0,0.0,1.1174,1.1586,1.1559,0.0,0.0,0.0,0.0,0.0,0.0,0.0,0.0,0.0,0.0,2.9088,3.1717,3.3544,0.0,0.0,3.5347,3.5056,3.3465,3.2093,3.0817,2.9668,2.7578,0.0,0.0,0.0,0.0,0.0,0.0,0.0,0.0,0.0,0.0,0.0,0.0,0.0,0.0,0.0,0.0,0.0,0.0,0.0,0.0,0.0,0.0,0.0,0.0,0.0,0.0,0.0,0.0,0.0,0.0,0.0,0.0,0.0,0.0,0.0,0.0,0.0,0.0,0.0,0.0,0.0,0.0,0.0,0.0,0.0,0.0,0.0,0.0,0.0,0.0,0.0,0.0,2.4513,2.8069,3.1547,3.3847,3.4906,3.5881,3.5906,3.4954,3.4026,3.2136,0.0,0.0,0.0,0.0,0.0,0.0,0.0,0.0,0.0,0.0,0.0,0.0,0.0,0.0,0.0,0.0,0.0,0.0,0.0,0.0,0.0,0.0,0.0,0.0,0.0,0.0,0.0,0.0,1.271,1.2826,1.2608,0.0,0.0,0.0,0.0,0.0,0.0,0.0,0.0,0.0,0.0,3.1688,3.4302,3.5699,3.6576,3.6866,3.7108,3.6773,3.5215,3.3894,3.2742,3.1634,0.0,0.0,0.0,0.0,0.0,0.0,0.0,0.0,0.0,0.0,0.0,0.0,0.0,0.0,0.0,0.0,0.0,0.0,0.0,0.0,0.0,0.0,0.0,0.0,0.0,0.0,0.0,0.0,0.0,0.0,0.8204,0.0,0.0,0.0,0.0,0.0,0.0,0.0,0.0,0.0,0.0,0.0,0.0,0.0,0.0,0.0,0.0,0.0,0.0,0.0,0.0,0.0,0.0,2.5923,2.9155,3.2272,3.4399,3.5456,3.6105,3.6152,3.555,3.5285,3.4042,3.1648,0.0,0.0,0.0,0.0,0.0,0.0,0.0,0.0,0.0,0.0,0.0,0.0,0.0,0.0,0.0,0.0,0.0,0.0,0.0,0.0,0.0,0.0,0.0,0.0,0.0,0.0,1.332,1.3677,1.3877,0.0,0.0,0.0,0.0,0.0,0.0,0.0,0.0,0.0,0.0,3.1951,3.451,3.7138,3.7579,3.7664,3.7524,3.8166,3.8119,3.6558,3.6488,3.5952,0.0,0.0,0.0,0.0,0.0,0.0,0.0,0.0,0.0,0.0,0.0,0.0,0.0,0.0,0.0,0.0,0.0,0.0,0.0,0.0,0.0,0.0,0.0,0.0,0.0,0.0,0.0,1.3108,1.2853,0.0,0.0,0.0,0.0,0.0,0.0,0.0,0.0,0.0,0.0,0.0,2.4581,2.6037,0.0,0.0,0.0,0.0,0.0,0.0,0.0,0.0,0.0,0.0,0.0,0.0,2.6721,2.9955,3.2878,3.5135,3.6664,3.7283,3.7625,3.7638,3.7558,3.594,3.2591,0.0,0.0,0.0,0.0,0.0,0.0,0.0,0.0,0.0,0.0,0.0,0.0,0.0,0.0,0.0,0.0,0.0,0.0,0.0,0.0,0.0,0.0,0.0,0.0,0.0,1.5092,0.0,0.0,0.0,0.0,0.0,0.0,0.0,0.0,0.0,0.0,0.0,2.8909,3.1886,3.5076,3.7957,4.0165,4.0969,4.1334,0.0,0.0,0.0,0.0,0.0,0.0,0.0,0.0,0.0,0.0,0.0,0.0,0.0,0.0,3.1845,2.9668,2.9348,2.9626,3.0363,0.0,0.0,0.0,0.0,0.0,0.0,0.0,0.0,0.0,0.0,0.0,0.0,0.0,0.0,1.6754,0.0,1.5188,0.0,0.0,0.0,0.0,0.0,0.0,0.0,0.0,2.5438,2.7525,2.9015,3.0153,3.0225,0.0,2.8116,2.5681,0.0,0.0,0.0,0.0,0.0,0.0,0.0,0.0,2.8603,3.1782,3.4361,3.6503,3.8104,3.8577,3.8915,3.9112,3.899,3.759,3.4729,3.1666,2.8269,0.0,0.0,0.0,0.0,0.0,0.0,0.0,0.0,0.0,0.0,0.0,0.0,0.0,0.0,0.0,0.0,0.0,0.0,0.0,0.0,0.0,0.0,0.0,1.769,0.0,0.0,0.0,0.0,0.0,0.0,0.0,0.0,0.0,2.6034,2.9382,3.2932,3.5798,3.8224,4.0514,4.2686,0.0,0.0,0.0,0.0,0.0,0.0,0.0,4.0903,3.9987,3.9265,3.9013,3.9533,3.9953,4.0182,4.0182,0.0,0.0,3.497,3.4468,3.493,3.5626,3.5957,3.6288,3.6789,3.7554,3.8475,0.0,0.0,0.0,0.0,0.0,0.0,0.0,0.0,2.0695,2.0462,0.0,1.8904,0.0,0.0,0.0,0.0,0.0,2.0608,0.0,0.0,2.907,3.1533,3.3424,3.3898,3.4093,3.3904,3.1836,3.0511,2.9636,2.4377,0.0,0.0,0.0,0.0,0.0,0.0,3.1529,3.4615,3.6742,3.8509,3.9962,4.0033,4.0055,4.0037,3.97,3.9035,3.7906,3.5035,3.1969,2.8727,2.4618,0.0,0.0,0.0,0.0,0.0,0.0,0.0,0.0,0.0,0.0,0.0,0.0,0.0,0.0,0.0,0.0,0.0,0.0,0.0,0.0,1.9382,0.0,0.0,0.0,0.0,0.0,0.0,0.0,0.0,0.0,0.0,3.1386,3.4172,3.7461,4.081,0.0,0.0,0.0,0.0,4.2897,4.4618,4.4841,4.4849,4.4812,4.5568,4.5721,4.4369,0.0,0.0,4.4786,4.5245,4.5585,4.5601,4.6256,4.5161,3.994,3.9468,3.9976,4.0642,4.1341,4.1752,4.191,4.2947,4.4037,2.8418,0.0,0.0,0.0,0.0,2.4694,2.4895,2.4584,2.486,2.4993,2.4909,2.3311,0.0,0.0,0.0,0.0,0.0,0.0,2.7318,3.0173,3.3265,3.566,3.7357,3.8231,3.8083,3.7087,3.5672,3.4628,3.3865,3.1889,2.9287,2.6205,0.0,0.0,0.0,0.0,3.4153,3.7743,3.9182,4.0727,4.2509,4.2537,4.2639,4.2819,4.1999,4.0973,3.9723,3.7919,3.5217,3.1529,2.8901,0.0,0.0,0.0,0.0,0.0,0.0,0.0,0.0,0.0,0.0,0.0,0.0,0.0,0.0,0.0,0.0,0.0,0.0,0.0,2.0998,2.1944,2.2405,0.0,0.0,0.0,0.0,0.0,0.0,0.0,0.0,0.0,3.9481,3.9118,3.9816,0.0,0.0,4.5748,4.6957,4.7162,4.7229,4.733,4.7813,0.0,4.7686,4.822,4.8544,4.8129,4.867,4.9177,4.916,4.9846,5.0382,5.0382,5.0994,5.0907,4.9459,4.7503,4.6651,4.7224,4.7584,4.7879,4.842,4.9239,5.0023,3.3683,3.123,2.9302,2.855,2.866,2.9194,2.9315,2.9164,2.9017,2.9023,2.9038,2.7528,2.6792,2.6696,2.5714,0.0,0.0,0.0,3.1506,3.386,3.6852,3.9117,4.0666,4.0826,4.0487,3.971,3.8678,3.784,3.7183,3.7214,3.6022,3.3576,0.0,0.0,3.4332,3.5319,3.7392,4.052,4.1511,4.2718,4.4227,4.4278,4.4335,4.4501,4.3628,4.2661,4.1575,4.0038,3.7739,3.4565,3.2109,2.9088,0.0,0.0,0.0,0.0,0.0,0.0,0.0,0.0,0.0,0.0,0.0,1.3025,1.3741,0.0,0.0,0.0,1.9979,2.2365,2.4607,2.522,0.0,0.0,0.0,0.0,0.0,0.0,0.0,3.5474,3.8406,4.1586,4.4934,4.4414,4.4251,4.5772,4.7179,4.8285,4.8985,0.0,5.001,5.014,5.0605,5.0885,5.0853,5.1179,5.1601,5.1969,5.2719,5.3221,5.3306,5.3743,5.4081,5.4181,5.4659,5.5156,5.5137,5.393,5.2771,5.2422,5.2587,5.2937,5.3352,5.4015,5.4678,3.8882,3.8137,3.4737,3.3734,3.4384,3.3958,3.3849,3.3957,3.2983,3.2541,3.2466,3.1441,3.0863,3.0627,3.053,0.0,3.0934,3.3436,3.5529,3.729,3.9992,4.2095,4.3637,4.2464,4.1971,4.2172,4.1179,4.0482,4.0125,4.0978,4.1605,4.1833,3.8357,3.7063,3.8034,3.9206,4.0858,4.2915,4.3666,4.4536,4.5433,4.5394,4.5385,4.5364,4.4756,4.4077,4.3369,4.1624,3.9757,3.7776,3.4682,3.1826,2.9376,0.0,0.0,0.0,0.0,0.0,0.0,0.0,0.0,0.0,0.0,0.0,0.0,0.0,0.0,0.0,2.4709,0.0,2.8825,2.9137,0.0,0.0,0.0,3.2628,3.4625,3.6144,3.8302,4.1526,0.0,0.0,4.8553,4.954,4.979,4.9319,4.9707,5.0251,5.0856,5.1099,5.1618,5.2838,5.3096,5.3377,5.4014,5.4382,5.4849,5.5577,5.6448,5.6713,5.6746,5.6746,5.6832,5.6931,5.7574,5.8091,5.8144,5.8628,5.8674,5.6672,5.6572,5.6818,5.6843,5.7354,5.7832,4.2804,4.2856,4.1973,4.0289,3.8118,3.7232,3.6843,3.6824,3.5833,3.5401,3.5351,3.4653,3.4104,3.3658,3.3636,3.4277,3.5544,3.6571,3.8696,4.1599,4.3176,4.4848,4.6506,4.597,4.5713,4.569,4.4733,4.4451,4.4759,4.4984,4.5287,4.5563,4.4662,4.3546,4.2248,4.1906,4.2874,4.5178,4.5419,4.5938,4.6779,4.63,4.6061,4.6061,4.562,4.4949,4.4077,4.3337,4.2174,4.0505,3.8269,3.601,3.386,3.0362,0.0,0.0,0.0,0.0,0.0,0.0,0.0,0.0,0.0,1.8016,1.8816,0.0,2.2914,0.0,2.8112,3.1376,3.2995,3.4042,0.0,0.0,3.6844,3.7842,3.9484,4.1949,4.4202,4.5908,4.7916,4.9919,5.1885,5.2265,5.2569,5.306,5.2579,5.2384,5.3039,5.3292,5.3743,5.4547,5.4877,5.5402,5.6558,5.741,5.7813,5.8085,5.827,5.8369,5.8369,5.8369,5.8535,5.9098,5.9827,6.0518,6.1181,6.1966,6.2349,6.1894,6.0245,5.8666,5.8789,5.9311,5.9725,4.5052,4.5298,4.5774,4.4879,4.3053,4.0959,3.9957,3.9601,3.8138,3.7361,3.7061,3.6761,3.6718,3.688,3.688,3.7765,3.9379,4.0444,4.22,4.4345,4.5821,4.7105,4.8154,4.7503,4.7242,4.7313,4.679,4.6714,4.701,4.7472,4.7804,4.7948,4.797,4.7324,4.6038,4.4857,4.4945,4.6253,4.6361,4.6713,4.7258,4.6929,4.6483,4.5903,4.5392,4.4862,4.436,4.3023,4.2137,4.1801,3.946,3.7415,3.5967,3.3145,3.0684,0.0,0.0,0.0,0.0,0.0,0.0,0.0,0.0,0.0,0.0,0.0,2.683,2.8846,3.2721,3.5579,3.6711,3.8442,4.0094,4.1642,4.2488,4.3634,4.5439,4.7182,4.8746,5.0011,5.1287,5.2627,5.408,5.4561,5.5062,5.5866,5.5727,5.5479,5.5262,5.5773,5.6459,5.6822,5.7,5.7309,5.8204,5.8899,5.9396,5.9429,5.9926,6.0378,6.0378,6.0725,6.1131,6.153,6.2012,6.2516,6.3075,6.3484,6.3848,6.3835,6.2729,6.1568,6.1354,6.1565,6.1783,4.6732,4.6781,4.7701,4.799,4.7596,4.4543,4.2922,4.2178,4.0103,3.8995,3.8641,3.8641,3.9233,4.0228,4.0252,4.1141,4.2775,4.4331,4.5479,4.6393,4.8003,4.8932,4.9175,4.8284,4.8032,4.8243,4.8243,4.8214,4.8267,4.9106,4.9516,4.9501,4.9471,4.9328,4.8928,4.7635,4.6933,4.6845,4.7,4.7138,4.7233,4.7165,4.6594,4.5502,4.4915,4.4671,4.4709,4.2517,4.1765,4.2667,4.0055,3.8228,3.7626,3.5402,3.3597,0.0,3.0709,0.0,0.0,0.0,0.0,0.0,0.0,0.0,0.0,2.8829,3.144,3.4973,3.7922,3.9925,4.0659,4.2799,4.4969,4.6951,4.794,4.9216,5.1163,5.1773,5.2491,5.3813,5.4045,5.4641,5.5866,5.6614,5.7229,5.7773,5.8383,5.833,5.7508,5.8018,5.8714,5.8999,5.9131,5.9131,5.9264,5.9761,6.0191,6.039,6.1281,6.2242,6.2297,6.2964,6.3624,6.3745,6.3872,6.412,6.4283,6.4351,6.4434,6.4676,6.4583,6.4291,6.3722,6.3487,6.3594,4.9562,4.9393,4.9586,4.9,4.7832,4.6289,4.5044,4.3968,4.18,4.1304,4.206,4.206,4.2673,4.3704,4.3728,4.4474,4.5753,4.6105,4.7289,4.9144,4.9495,5.006,5.0747,5.0583,5.0513,5.056,5.056,5.056,5.056,5.0747,5.0724,5.0536,5.0507,5.0152,4.9415,0.0,0.0,0.0,4.8068,4.7689,4.6911,4.6362,4.5987,4.5734,4.5746,0.0,4.6672,4.59,4.5408,4.5258,4.3721,0.0,0.0,0.0,0.0,0.0,0.0,0.0,0.0,0.0,0.0,0.0,3.3808,3.3047,3.1578,3.4583,3.771,4.0255,4.2986,4.5226,4.6745,4.8274,4.9676,5.0892,5.1692,5.2591,5.3739,5.4906,5.6037,5.6846,5.7475,5.7939,5.8138,5.8403,5.8535,5.8701,5.933,5.9661,5.9396,5.9098,5.9131,5.9694,6.0225,6.0655,6.0688,6.0788,6.1107,6.1691,6.2082,6.2686,6.3239,6.3642,6.4157,6.4626,6.4781,6.5088,6.5829,6.6039,6.6002,6.6268,6.6289,6.5951,6.4699,6.4086,6.3835,5.0429,0.0,5.0309,4.9498,0.0,4.6995,4.5785,4.4518,4.2588,4.2227,4.3048,4.3744,4.4656,4.565,4.5769,4.6619,4.8046,4.8165,4.8963,5.0347,5.0464,5.0783,5.1206,5.1558,5.1708,5.1708,5.2037,5.2187,5.2187,5.1858,5.1637,5.1488,5.1137,5.0792,5.0347,5.0347,4.9802,4.8709,4.8633,4.8409,4.804,4.7716,4.7216,4.6616,4.6708,0.0,0.0,0.0,0.0,0.0,0.0,0.0,0.0,0.0,0.0,4.0686,3.9187,3.8255,3.8202,3.7919,3.8121,3.8958,4.0654,4.0693,3.8342,4.0705,4.3189,4.5408,4.7641,4.9328,5.0196,5.1961,5.3394,5.4274,5.5043,5.5789,5.6594,5.7309,5.7925,5.829,5.8668,5.8899,5.8899,5.9231,5.9429,5.9496,6.0092,6.0523,6.0523,6.0225,6.0158,6.049,6.0821,6.1065,6.1152,6.1555,6.1883,6.2357,6.3136,6.3809,6.4231,6.4844,6.5362,6.5697,6.5829,6.6091,6.65,6.6622,6.6698,6.677,6.6791,6.658,6.5686,6.5257,6.4905,5.0945,5.0927,5.0897,5.0111,4.8758,4.7675,4.6453,4.4994,0.0,0.0,0.0,4.5233,4.6329,4.7305,4.7516,4.8404,4.9716,4.9957,5.043,5.1042,5.1261,5.1445,5.1588,5.2127,5.2366,5.2396,5.2959,5.3198,5.3169,5.2516,5.2187,5.2127,5.1535,5.1206,5.1206,5.1206,5.0598,4.9392,4.9168,4.9154,4.9229,4.911,4.8542,4.7478,4.7454,4.7548,4.7712,4.6737,4.6642,4.7572,4.6206,4.5099,4.4561,4.4275,4.3892,4.3408,4.2993,4.2731,4.2741,4.2852,4.3379,4.4327,4.6671,4.7272,4.5314,4.6385,4.8011,5.0128,5.1822,5.2902,5.3032,5.4878,5.6429,5.7031,5.7608,5.8237,5.8966,5.9098,5.9098,5.9231,5.9363,5.9297,5.9363,5.9827,6.0191,6.0258,6.0688,6.1098,6.1098,6.0999,6.0966,6.1053,6.1127,6.1181,6.1434,6.1966,6.2591,6.3045,6.4148,6.5067,6.5356,6.5997,6.6495,6.6449,6.6686,6.677,6.6791,6.677,6.6791,6.6791,6.6749,6.6665,6.6485,6.6204,6.5855,5.2662,5.2496,5.2466,5.172,5.0417,4.9696,4.8366,4.6683,4.5209,4.5737,4.7662,4.8116,4.8911,4.9943,4.9991,5.0235,5.0627,5.065,5.1149,5.1989,5.2043,5.2366,5.2905,5.3019,5.3049,5.3079,5.3169,5.3198,5.3139,5.2546,5.2187,5.2127,5.1505,5.1206,5.1206,5.1206,5.1086,5.086,5.0322,4.9624,4.8869,4.8296,4.7934,4.7771,4.7747,4.8143,4.9005,4.8869,4.8748,4.8702,4.8453,4.8237,4.8149,4.7539,4.7325,4.7435,4.6859,4.6471,4.6299,4.6954,4.8296,5.033,5.1382,5.1309,4.9951,5.064,5.1861,5.3554,5.5097,5.6307,5.6954,5.7793,5.8403,5.8535,5.8668,5.9032,5.9761,5.986,6.0059,6.0622,6.0821,6.0734,6.0688,6.0821,6.0866,6.0953,6.102,6.1098,6.1098,6.1098,6.1098,6.114,6.1252,6.1588,6.2095,6.2528,6.3288,6.4458,6.4984,6.5623,6.6106,6.6479,6.6728,6.6749,6.677,6.6791,6.6791,6.6791,6.6791,6.6791,6.6698,6.6473,6.6259,6.5999,6.5824,5.3125,5.3003,5.3003,5.2204,5.088,4.9874,4.9333,4.9077,4.8558,4.8402,4.8699,4.9513,5.0172,5.0632,5.0828,5.1125,5.1548,5.1572,5.2001,5.2695,5.2725,5.2929,5.3228,5.3563,5.3743,5.3743,5.4102,5.4281,5.4192,5.3593,5.3114,5.2719,5.1738,5.1206,5.1206,5.1206,5.1206,5.1176,5.0907,5.0517,5.0118,4.9822,4.9651,4.9622,4.9651,4.9861,5.0308,5.0331,5.0285,5.014,5.014,4.9991,4.9633,4.9312,4.9277,4.9548,4.9257,4.9472,5.0259,5.1367,5.2713,5.4205,5.4939,5.5288,5.5166,5.4685,5.5125,5.667,5.7529,5.8005,5.8369,5.9065,5.9496,5.9496,5.9827,6.0225,6.0523,6.0568,6.0734,6.1032,6.1098,6.1098,6.1098,6.1098,6.1098,6.1098,6.1098,6.1098,6.1152,6.1555,6.1684,6.1405,6.1654,6.2145,6.267,6.3613,6.4388,6.5148,6.5775,6.6238,6.661,6.6749,6.6791,6.6791,6.6791,6.6791,6.6791,6.6791,6.6791,6.677,6.6656,6.6388,6.6139,6.5812,6.5603,5.3648,5.3648,5.3648,5.2906,5.1726,5.0696,5.0691,5.1345,5.1494,5.0892,5.003,5.0903,5.1363,5.1387,5.1553,5.1947,5.2366,5.2426,5.2785,5.3354,5.3414,5.3503,5.3707,5.4192,5.4431,5.4491,5.494,5.5234,5.5119,5.4521,5.3773,5.2935,5.1798,5.1206,5.1206,5.1206,5.1206,5.1206,5.1206,5.1206,5.1206,5.1206,5.1206,5.1206,5.1206,5.1206,5.1206,5.1206,5.1206,5.1206,5.1379,5.1293,5.1044,5.1134,5.1402,5.1813,5.1881,5.2498,5.3988,5.5091,5.6157,5.7211,5.7774,5.8436,5.9135,5.8285,5.7945,5.8944,5.9078,5.9198,5.9463,5.9893,6.0258,6.0291,6.0755,6.0999,6.1065,6.1098,6.1098,6.1098,6.1098,6.1098,6.1131,6.1251,6.145,6.1649,6.1616,6.1637,6.1712,6.2311,6.247,6.2361,6.2549,6.3066,6.3399,6.4459,6.5392,6.5649,6.6281,6.6669,6.6791,6.6791,6.6791,6.6791,6.6791,6.6791,6.6791,6.6791,6.6791,6.6791,6.6622,6.6421,6.6086,6.5736,6.5415,5.4995,5.5025,5.494,5.462,5.3853,5.3699,5.3372,5.299,5.3003,5.2944,5.2751,5.2946,5.297,5.297,5.2965,5.3019,5.3109,5.3084,5.3473,5.4072,5.4132,5.4431,5.491,5.5085,5.5089,5.5089,5.5149,5.5234,5.5174,5.4491,5.3563,5.2336,5.1588,5.1206,5.1206,5.1206,5.1206,5.1206,5.1206,5.1206,5.1206,5.1206,5.1206,5.1206,5.1206,5.1206,5.1206,5.1206,5.1206,5.1236,5.1791,5.2487,5.3316,5.3922,5.469,5.5509,5.5651,5.6088,5.6989,5.7224,5.7972,5.947,5.9663,6.0035,6.0767,6.0705,6.0386,6.0125,5.9926,6.0158,6.0767,6.0899,6.0953,6.0986,6.1086,6.1098,6.1197,6.1098,6.1098,6.1098,6.1285,6.1098,6.1318,6.1748,6.2333,6.2797,6.2851,6.2915,6.3076,6.337,6.3672,6.3885,6.411,6.4412,6.4925,6.5361,6.5917,6.6479,6.6703,6.6791,6.6791,6.6791,6.6791,6.6791,6.6791,6.6791,6.6791,6.6791,6.6791,6.677,6.6601,6.6357,6.5933,6.5603,6.5448,5.4276,5.461,5.461,5.47,5.479,5.479,5.464,5.4371,5.4371,5.4371,5.4396,5.4396,5.3977,5.3198,5.3198,5.3408,5.3773,5.3773,5.4162,5.476,5.479,5.494,5.5204,5.5234,5.5234,5.5234,5.5234,5.5234,5.4999,5.4156,5.3324,5.2725,5.1768,5.1206,5.1206,5.1206,5.1206,5.1206,5.1206,5.1206,5.1206,5.1206,5.1206,5.1206,5.1206,5.1206,5.1206,5.1206,5.166,5.2573,5.2947,5.3737,5.5117,5.5444,5.6027,5.6926,5.7924,5.8608,5.8963,5.9377,5.9918,6.0634,6.0655,6.0953,6.167,6.1736,6.1769,6.1869,6.1152,6.0788,6.1065,6.1098,6.1251,6.1637,6.1736,6.1881,6.2366,6.2399,6.2399,6.2378,6.2399,6.2378,6.2411,6.2664,6.2962,6.3282,6.3434,6.3575,6.3627,6.4194,6.4715,6.4971,6.5387,6.5639,6.5707,6.6019,6.6419,6.669,6.6791,6.6791,6.6825,6.6791,6.6791,6.6825,6.6893,6.6893,6.6791,6.6791,6.6791,6.6762,6.6473,6.6172,6.5846,6.5603,6.5448,5.3443,5.3922,5.4107,5.4461,5.494,5.5119,5.5234,5.5234,5.5234,5.5234,5.5234,5.5234,5.467,5.3827,5.3743,5.4042,5.4431,5.4491,5.473,5.5149,5.5234,5.5204,5.5234,5.5234,5.5234,5.5234,5.5234,5.5234,5.5055,5.3857,5.3198,5.3019,5.1858,5.1206,5.1206,5.1206,5.1206,5.1206,5.1206,5.1206,5.1206,5.1206,5.1206,5.1206,5.1206,5.1206,5.1206,5.1636,5.245,5.3614,5.428,5.5296,5.6768,5.7025,5.7547,5.8437,5.961,6.0291,6.0324,6.0986,6.1417,6.1417,6.1583,6.1914,6.2366,6.2498,6.273,6.3062,6.2312,6.1748,6.1682,6.1715,6.1947,6.2432,6.2498,6.273,6.3161,6.3294,6.3227,6.3294,6.3161,6.3393,6.3559,6.3592,6.3691,6.3945,6.413,6.4257,6.4376,6.5109,6.572,6.5783,6.6369,6.6487,6.6136,6.6406,6.6757,6.688,6.6948,6.7184,6.7184,6.7252,6.7434,6.7895,6.7535,6.7468,6.7726,6.759,6.7265,6.7032,6.6641,6.6162,6.5922,6.5647,6.5448,5.3204,5.3294,5.3952,5.4246,5.4311,5.496,5.5255,5.5406,5.5255,5.5229,5.5255,5.5204,5.5149,5.5029,5.4995,5.5089,5.5119,5.5089,5.5119,5.5234,5.5234,5.5234,5.5234,5.5234,5.5234,5.5234,5.5234,5.5234,5.5089,5.3887,5.3198,5.3109,5.1917,5.1236,5.1206,5.1206,5.1206,5.1206,5.1206,5.1206,5.1206,5.1206,5.1229,5.1299,5.1253,5.1269,5.14,5.2749,5.3659,5.3766,5.5771,5.7373,5.841,5.9079,5.9827,6.0691,6.0945,6.1053,6.1119,6.1682,6.2101,6.2233,6.2664,6.3194,6.3227,6.3261,6.3327,6.3327,6.3327,6.3194,6.3194,6.3029,6.3095,6.3194,6.3261,6.3294,6.336,6.3526,6.3327,6.3393,6.3514,6.3801,6.431,6.4354,6.4663,6.5083,6.5481,6.5656,6.5806,6.6189,6.6525,6.6673,6.6825,6.6791,6.6757,6.6893,6.6893,6.7184,6.7692,6.7861,6.8132,6.8368,6.8673,6.8876,6.8673,6.8673,6.8876,6.8774,6.8436,6.7923,6.6923,6.6429,6.6331,6.5758,6.5492,5.2157,5.2606,5.3264,5.4164,5.5158,5.5457,5.607,5.6967,5.6378,5.6085,5.5992,5.5451,5.5234,5.5234,5.5234,5.5234,5.5234,5.5234,5.5234,5.5234,5.5234,5.5234,5.5234,5.5234,5.5234,5.5234,5.5234,5.5234,5.5089,5.4251,5.3593,5.3109,5.2306,5.1648,5.1265,5.1206,5.1206,5.1206,5.1206,5.1206,5.1206,5.1206,5.1479,5.2071,5.2086,5.2117,5.2117,5.3703,5.5033,5.6089,5.7396,5.8723,6.0037,6.0438,6.0696,6.1023,6.1098,6.1318,6.1769,6.2034,6.2399,6.2863,6.3128,6.358,6.389,6.4023,6.4155,6.4498,6.463,6.463,6.4432,6.3857,6.3493,6.389,6.4023,6.4155,6.4531,6.463,6.463,6.4686,6.4762,6.5038,6.5159,6.5402,6.5589,6.5789,6.6086,6.6304,6.6445,6.6908,6.7416,6.7582,6.7929,6.8267,6.8267,6.7793,6.7624,6.8132,6.8571,6.8639,6.8842,6.8944,6.918,6.9282,6.9316,6.935,6.9383,6.9214,6.8977,6.8709,6.774,6.6975,6.6876,6.6179,6.5725,5.1468,5.2025,5.32,5.4324,5.5416,5.6178,5.7074,5.7946,5.7039,5.659,5.6451,5.5626,5.5234,5.5234,5.5234,5.5234,5.5234,5.5234,5.5234,5.5234,5.5234,5.5234,5.5234,5.5234,5.5234,5.5234,5.5234,5.5234,5.5119,5.4521,5.3982,5.3503,5.2665,5.2007,5.1535,5.1325,5.1206,5.1206,5.1206,5.1206,5.1253,5.1526,5.2078,5.2905,5.3517,5.3693,5.345,5.4988,5.6467,5.7752,5.8839,5.9917,6.0936,6.1098,6.1098,6.1098,6.1351,6.167,6.2167,6.2631,6.3171,6.37,6.3987,6.4352,6.4883,6.4938,6.5171,6.5514,6.5559,6.5537,6.5349,6.4575,6.42,6.463,6.473,6.4895,6.5326,6.537,6.5437,6.5459,6.5625,6.5823,6.5911,6.6009,6.6174,6.6397,6.6693,6.6889,6.7235,6.7778,6.8301,6.8335,6.8673,6.9079,6.9248,6.8977,6.8504,6.8876,6.9316,6.9417,6.9519,6.9586,6.9688,6.9755,6.9789,6.9789,6.9722,6.9586,6.9485,6.9395,6.8537,6.7602,6.7146,6.6546,6.6091,5.1253,5.168,5.3736,5.48,5.5387,5.7155,5.8045,5.8039,5.7134,5.6735,5.6524,5.5601,5.5234,5.5234,5.5234,5.5234,5.5234,5.5234,5.5234,5.5234,5.5234,5.5234,5.5234,5.5234,5.5234,5.5234,5.5234,5.5234,5.5174,5.461,5.4251,5.3952,5.2965,5.2396,5.2187,5.1648,5.1265,5.1289,5.1359,5.1323,5.1346,5.2223,5.3141,5.3982,5.5409,5.591,5.531,5.6713,5.7858,5.8668,6.0109,6.1044,6.1065,6.1098,6.1119,6.1285,6.1803,6.2134,6.2432,6.3526,6.4243,6.4682,6.528,6.5646,6.5798,6.593,6.5964,6.5954,6.5889,6.578,6.5758,6.5459,6.5271,6.537,6.5271,6.5304,6.537,6.5425,6.5514,6.5758,6.5999,6.6129,6.6129,6.6294,6.6606,6.7164,6.7497,6.7851,6.8345,6.8801,6.9057,6.9113,6.9383,6.9789,7.0026,7.0128,6.9722,6.9485,6.9925,7.0195,7.0331,7.0432,7.0567,7.0647,7.0613,7.0613,7.0567,7.0432,7.0219,6.9949,6.8998,6.8261,6.7747,6.7201,6.64,5.2482,5.3071,5.4402,5.5958,5.7359,5.8179,5.8685,5.8969,5.807,5.7252,5.6517,5.5626,5.5234,5.5234,5.5234,5.5234,5.5234,5.5234,5.5234,5.5234,5.5234,5.5234,5.5234,5.5234,5.5234,5.5234,5.5234,5.5234,5.5149,5.497,5.467,5.4192,5.3803,5.3324,5.2917,5.2247,5.1887,5.1899,5.2084,5.2368,5.2933,5.3823,5.4932,5.6241,5.6894,5.75,5.8451,5.8963,5.9317,5.958,6.0543,6.1098,6.1098,6.1098,6.1318,6.1803,6.2034,6.273,6.3625,6.4144,6.4762,6.5325,6.5702,6.5878,6.6052,6.6117,6.6117,6.6117,6.603,6.5987,6.5987,6.5943,6.5724,6.5415,6.5403,6.5425,6.547,6.5636,6.578,6.5999,6.6237,6.6546,6.7014,6.7214,6.7603,6.8277,6.8567,6.8745,6.9026,6.9554,6.9823,6.9857,7.0229,7.0466,7.0635,7.0737,7.0534,7.0263,7.0534,7.0737,7.0872,7.0973,7.1188,7.1289,7.1289,7.1255,7.1244,7.112,7.0827,7.0524,6.9794,6.9177,6.8627,6.7899,6.7119,5.3421,5.422,5.5749,5.7205,5.8637,5.9229,5.9523,5.9467,5.8551,5.7535,5.6541,5.5626,5.5234,5.5234,5.5234,5.5234,5.5234,5.5234,5.5234,5.5234,5.5234,5.5234,5.5234,5.5234,5.5234,5.5234,5.5234,5.5234,5.5234,5.5204,5.497,5.461,5.4341,5.4228,5.4032,5.3499,5.3253,5.3629,5.3886,5.417,5.4715,5.5508,5.6595,5.7741,5.823,5.9094,6.0283,6.0423,6.0423,6.049,6.0854,6.1065,6.1098,6.1098,6.1417,6.2089,6.2583,6.329,6.4352,6.4838,6.5302,6.5932,6.6076,6.6151,6.629,6.6354,6.6354,6.6354,6.6302,6.6259,6.6259,6.6139,6.5965,6.5702,6.5658,6.5636,6.5714,6.6145,6.6487,6.6784,6.718,6.7637,6.8027,6.8239,6.8673,6.9316,6.9485,6.9722,6.9891,7.0331,7.0466,7.0635,7.0838,7.1041,7.1188,7.1255,7.1255,7.1154,7.112,7.112,7.1154,7.1154,7.1289,7.1289,7.1289,7.1289,7.1255,7.1255,7.1098,7.0749,7.0354,6.9768,6.9092,6.8585,6.787,5.4213,5.5147,5.7598,5.8669,5.9024,6.0241,6.0194,5.9389,5.8391,5.7371,5.6372,5.5576,5.5234,5.5234,5.5234,5.5234,5.5234,5.5234,5.5234,5.5234,5.5204,5.5255,5.5431,5.5451,5.5526,5.5626,5.5576,5.5501,5.57,5.57,5.5381,5.548,5.5096,5.4934,5.5537,5.5178,5.5223,5.5857,5.6097,5.6144,5.6337,5.7174,5.8019,5.8787,5.9571,6.0275,6.0866,6.0966,6.1032,6.1086,6.1065,6.1098,6.1098,6.1098,6.155,6.2342,6.3176,6.3981,6.4779,6.5487,6.6072,6.6366,6.6421,6.6592,6.6686,6.6707,6.6707,6.6707,6.6613,6.6507,6.6452,6.6345,6.6182,6.6139,6.6052,6.603,6.6251,6.6995,6.7406,6.7762,6.8475,6.9113,6.9069,6.9147,6.9519,7.0026,7.0263,7.0534,7.0838,7.1019,7.1188,7.1255,7.1244,7.1255,7.1289,7.1289,7.1289,7.1289,7.1289,7.1289,7.1289,7.1289,7.1289,7.1289,7.1289,7.1289,7.1267,7.1267,7.1098,7.0769,7.0362,6.9988,6.9556,6.9058,6.8599,5.5821,5.6676,5.8764,5.996,6.0337,6.0226,5.9433,5.8437,5.7441,5.6517,5.5651,5.533,5.5234,5.5234,5.5234,5.5234,5.5234,5.5234,5.5234,5.5234,5.5234,5.5651,5.6109,5.6256,5.659,5.7134,5.7134,5.7347,5.7347,5.7181,5.7229,5.7347,5.6995,5.7082,5.7369,5.6795,5.6595,5.686,5.7097,5.7474,5.8044,5.8843,5.9708,6.0376,6.0663,6.0887,6.1086,6.1098,6.1098,6.1098,6.1098,6.1098,6.1206,6.1625,6.2285,6.3176,6.396,6.4822,6.5552,6.5962,6.6259,6.6464,6.6528,6.6592,6.677,6.6791,6.6791,6.6791,6.6728,6.6707,6.6686,6.6643,6.6622,6.658,6.64,6.6438,6.7038,6.7461,6.7851,6.8598,6.8968,6.9417,6.9789,6.9958,7.0161,7.077,7.0973,7.0973,7.1222,7.1289,7.1289,7.1289,7.1255,7.1289,7.1289,7.1289,7.1289,7.1289,7.1289,7.1289,7.1289,7.1289,7.1289,7.1289,7.1289,7.1289,7.1222,7.1176,7.0916,7.0733,7.0379,7.0036,6.9869,6.9491,6.915,5.7121,5.8281,5.984,6.0721,6.0961,6.0011,5.9024,5.8016,5.7039,5.606,5.5355,5.5234,5.5234,5.5234,5.5234,5.5234,5.5234,5.5234,5.5234,5.528,5.5626,5.6115,5.659,5.6943,5.7527,5.8024,5.8139,5.8093,5.8039,5.8116,5.8116,5.8047,5.8116,5.8291,5.8668,5.8403,5.8392,5.8755,5.8947,5.9245,5.9668,6.0154,6.0593,6.1032,6.1119,6.1107,6.121,6.1231,6.1231,6.1231,6.1231,6.1405,6.1841,6.2208,6.297,6.4076,6.4717,6.538,6.6091,6.6366,6.6473,6.658,6.6635,6.6665,6.677,6.6791,6.6791,6.6791,6.6791,6.6791,6.6791,6.6791,6.6791,6.6783,6.6816,6.7079,6.768,6.8364,6.888,6.9441,6.9857,7.0161,7.0635,7.0635,7.0872,7.1154,7.1222,7.1222,7.1289,7.1289,7.1289,7.1289,7.1289,7.1289,7.1289,7.1289,7.1289,7.1289,7.1289,7.1289,7.1289,7.1289,7.1289,7.1289,7.1289,7.1267,7.1199,7.103,7.0848,7.0618,7.0363,7.0106,6.9917,6.9798,6.9467,5.8157,5.9674,6.0675,6.1098,6.0919,5.9903,5.8867,5.7993,5.6824,5.5943,5.533,5.5234,5.5234,5.5234,5.5234,5.5234,5.5234,5.5234,5.5234,5.5526,5.6134,5.6855,5.6991,5.7885,5.8414,5.8687,5.8483,5.8596,5.8754,5.8641,5.8528,5.8709,5.8641,5.8934,5.9587,5.9707,6.0226,6.0652,6.0658,6.0687,6.0787,6.0924,6.0999,6.1086,6.138,6.1464,6.1588,6.1704,6.1811,6.1732,6.1611,6.2061,6.2794,6.2948,6.3672,6.4765,6.5295,6.5859,6.6415,6.6665,6.677,6.677,6.677,6.6791,6.6791,6.6791,6.6791,6.6791,6.6791,6.6791,6.6791,6.6791,6.6791,6.6927,6.7413,6.7941,6.8267,6.9316,7.0217,7.0353,7.0906,7.1188,7.1289,7.1289,7.1289,7.1222,7.1289,7.1289,7.1289,7.1289,7.1289,7.1289,7.1289,7.1289,7.1289,7.1289,7.1289,7.1289,7.1289,7.1289,7.1289,7.1289,7.1289,7.1289,7.1289,7.1244,7.1176,7.0984,7.0756,7.0502,7.0223,7.0035,6.9869,6.9822,6.9599,5.8559,5.9674,6.0708,6.1098,6.0814,5.9234,5.8291,5.7923,5.6232,5.5456,5.5229,5.5234,5.5234,5.5234,5.5234,5.5234,5.5234,5.5234,5.5234,5.5456,5.7015,5.7668,5.7969,5.8799,5.9663,6.013,6.042,6.042,6.0345,6.0216,6.0409,6.0323,6.0173,6.0527,6.0654,6.0654,6.0835,6.1098,6.1098,6.1098,6.1098,6.1098,6.1119,6.1206,6.1816,6.2187,6.2437,6.3037,6.3492,6.3441,6.3043,6.2982,6.368,6.4195,6.4728,6.5291,6.5926,6.639,6.6652,6.677,6.6791,6.6791,6.6791,6.6791,6.6791,6.6791,6.6791,6.6791,6.6791,6.6791,6.6791,6.6791,6.6791,6.7028,6.7963,6.8774,6.8977,6.9676,7.0398,7.0906,7.1176,7.1289,7.1289,7.1289,7.1289,7.1289,7.1289,7.1289,7.1323,7.1357,7.1391,7.1424,7.1289,7.1289,7.1289,7.1289,7.1289,7.1289,7.1289,7.1289,7.1289,7.1289,7.1289,7.1289,7.1289,7.1222,7.1109,7.0802,7.0492,7.0293,7.0106,6.9941,6.9822,6.9798,6.9798,5.8957,6.0323,6.0877,6.0835,6.0195,5.8777,5.7862,5.7181,5.5869,5.5234,5.5234,5.5234,5.5234,5.5234,5.5234,5.5234,5.5234,5.5234,5.5481,5.609,5.7441,5.8323,5.8979,5.9772,6.0633,6.1077,6.1077,6.1098,6.1098,6.1098,6.0981,6.1098,6.1098,6.0961,6.1098,6.1098,6.1077,6.1098,6.1098,6.1098,6.1098,6.1098,6.1413,6.1796,6.2574,6.3099,6.3417,6.3789,6.4379,6.4671,6.4448,6.4319,6.4723,6.514,6.5539,6.6061,6.6352,6.6665,6.677,6.6791,6.6791,6.6791,6.6791,6.6791,6.6791,6.6791,6.6791,6.6791,6.6791,6.6791,6.6791,6.6791,6.6791,6.7062,6.8166,6.9045,6.9282,7.0026,7.0838,7.1188,7.1255,7.1289,7.1289,7.1289,7.1289,7.1289,7.1357,7.1357,7.1718,7.1751,7.1695,7.1661,7.1424,7.1323,7.1289,7.1289,7.1289,7.1289,7.1289,7.1289,7.1289,7.1289,7.1289,7.1289,7.1244,7.1109,7.0916,7.0618,7.0386,7.0223,7.0059,6.9893,6.9798,6.9798,6.9798,5.9278,6.1098,6.094,6.0399,5.9477,5.8369,5.7394,5.6566,5.5601,5.5234,5.5234,5.5234,5.5234,5.5234,5.5234,5.5234,5.5234,5.5229,5.5526,5.6183,5.7488,5.8369,5.9266,6.0401,6.1246,6.1264,6.1152,6.1119,6.1098,6.1098,6.1098,6.1098,6.1098,6.1098,6.1098,6.1098,6.1098,6.1098,6.1098,6.1251,6.1339,6.1426,6.1871,6.2703,6.3529,6.4065,6.4384,6.4731,6.5104,6.5797,6.5865,6.5865,6.5865,6.5899,6.6102,6.6757,6.6736,6.677,6.6791,6.6791,6.6791,6.6791,6.6791,6.6791,6.6791,6.6791,6.6791,6.6791,6.6791,6.6791,6.6791,6.6791,6.6859,6.7218,6.8301,6.9045,6.9485,7.05,7.112,7.1255,7.1289,7.1289,7.1289,7.1289,7.1289,7.1323,7.1391,7.1582,7.1921,7.2259,7.2293,7.2157,7.1988,7.1458,7.1357,7.1357,7.1357,7.1357,7.1357,7.1323,7.1323,7.1289,7.1289,7.1222,7.1154,7.0961,7.0756,7.0479,7.0293,7.0186,7.0011,6.9846,6.9798,6.9798,6.9798,5.9278,6.1002,6.0195,5.9718,5.9323,5.7652,5.6783,5.6445,5.5576,5.5204,5.5234,5.5234,5.5234,5.5234,5.5234,5.5234,5.5234,5.5229,5.5376,5.6041,5.73,5.8369,5.9261,6.0945,6.1893,6.1869,6.1583,6.1318,6.1231,6.1098,6.1218,6.1131,6.1098,6.1098,6.1098,6.1098,6.1131,6.1251,6.1272,6.1471,6.1965,6.2324,6.2778,6.3722,6.4573,6.5056,6.535,6.5956,6.6466,6.6588,6.6643,6.6609,6.6542,6.6521,6.6622,6.6757,6.6791,6.6791,6.6791,6.6791,6.6791,6.6791,6.6791,6.6791,6.6791,6.6791,6.6791,6.6791,6.6791,6.6791,6.6791,6.6791,6.7129,6.7692,6.847,6.9316,6.9925,7.0669,7.1255,7.1289,7.1289,7.1289,7.1289,7.1289,7.1289,7.1458,7.1751,7.2022,7.2394,7.28,7.3161,7.2935,7.2665,7.2022,7.1424,7.1458,7.1515,7.1515,7.1481,7.1413,7.1379,7.1289,7.1267,7.1176,7.1041,7.0802,7.0595,7.034,7.0153,6.9988,6.9893,6.9798,6.9798,6.9798,6.9798,5.9278,6.094,6.0011,5.93,5.8596,5.7252,5.6305,5.5844,5.5406,5.5234,5.5234,5.5234,5.5234,5.5234,5.5234,5.5234,5.5204,5.5204,5.575,5.671,5.7676,5.9023,5.994,6.1694,6.2326,6.2565,6.2399,6.2212,6.2179,6.1848,6.1682,6.155,6.1318,6.1098,6.1098,6.1098,6.1351,6.1537,6.1787,6.2182,6.2922,6.3412,6.4157,6.4757,6.5489,6.5943,6.6192,6.6458,6.6791,6.6791,6.6791,6.6791,6.6791,6.6791,6.6791,6.6791,6.6791,6.6791,6.6791,6.6791,6.6791,6.6791,6.6791,6.6791,6.6791,6.6791,6.6791,6.6791,6.6791,6.6791,6.6791,6.6812,6.7184,6.7827,6.8605,6.9383,7.0128,7.0872,7.1154,7.1289,7.1289,7.1289,7.1289,7.1289,7.1289,7.156,7.1988,7.2428,7.2834,7.3375,7.3838,7.368,7.3375,7.2868,7.2259,7.2124,7.1988,7.1921,7.1853,7.1785,7.1548,7.1548,7.13,7.1063,7.087,7.0664,7.0386,7.0129,6.9988,6.9846,6.9822,6.9798,6.9798,6.9798,6.9798,5.9455,6.1002,5.999,5.9001,5.8016,5.7015,5.609,5.533,5.5204,5.5234,5.5234,5.5204,5.533,5.5481,5.5501,5.5501,5.5451,5.5526,5.6475,5.7754,5.8591,5.9938,6.1338,6.2534,6.2996,6.3493,6.3725,6.3559,6.3062,6.2664,6.2465,6.2233,6.1682,6.145,6.1616,6.155,6.1869,6.2306,6.2644,6.3103,6.3985,6.4814,6.5429,6.564,6.6234,6.6588,6.6703,6.6757,6.6791,6.6791,6.6791,6.6791,6.6791,6.6791,6.6791,6.6791,6.6791,6.6791,6.6791,6.6791,6.6791,6.6791,6.6791,6.6791,6.6791,6.6791,6.6791,6.6812,6.7029,6.698,6.6896,6.698,6.7455,6.8098,6.8774,6.9451,7.0297,7.0939,7.1188,7.1289,7.1289,7.1289,7.1289,7.1289,7.1289,7.1718,7.2157,7.28,7.3274,7.4018,7.439,7.4322,7.4086,7.3703,7.3274,7.3071,7.2868,7.2631,7.2597,7.2529,7.2157,7.1819,7.1525,7.1275,7.0733,7.0492,7.0223,6.9988,6.9893,6.9822,6.9798,6.9798,6.9798,6.9798,6.9798,6.0054,6.1002,5.999,5.9001,5.8016,5.7094,5.6085,5.5305,5.533,5.5234,5.5456,5.5355,5.5794,5.6305,5.6451,5.642,5.642,5.6609,5.7265,5.849,5.9652,6.0589,6.138,6.3265,6.3858,6.4321,6.4818,6.4332,6.3746,6.337,6.3183,6.3017,6.2574,6.2354,6.2749,6.2363,6.2571,6.3264,6.3515,6.406,6.5081,6.5871,6.6301,6.6551,6.666,6.6749,6.6791,6.6791,6.6791,6.6791,6.6791,6.6791,6.6791,6.6791,6.6791,6.6791,6.6791,6.6791,6.6812,6.6791,6.6791,6.6791,6.6791,6.6791,6.6812,6.6917,6.6959,6.6833,6.7407,6.763,6.7325,6.7529,6.8138,6.8651,6.9138,6.9945,7.0759,7.1007,7.1255,7.1289,7.1289,7.1289,7.1289,7.1289,7.1323,7.1819,7.2326,7.2969,7.3737,7.4424,7.4897,7.483,7.4762,7.4424,7.4278,7.4075,7.3747,7.3443,7.3341,7.3274,7.2777,7.2359,7.1961,7.1608,7.102,7.0443,7.0153,6.9941,6.9846,6.9798,6.9798,6.9798,6.9798,6.9798,6.9798,6.0696,6.0981,6.0011,5.9033,5.8085,5.7598,5.6903,5.6256,5.659,5.6855,5.6855,5.6855,5.7086,5.7371,5.7465,5.7465,5.7527,5.7863,5.8615,5.9535,6.0802,6.1835,6.2869,6.3837,6.4498,6.5028,6.536,6.5382,6.4684,6.4285,6.4085,6.3985,6.342,6.3173,6.3693,6.323,6.3615,6.4297,6.4936,6.5517,6.6108,6.6496,6.6741,6.6791,6.6791,6.6791,6.6791,6.6791,6.6791,6.6791,6.6791,6.705,6.7325,6.7488,6.7488,6.7488,6.7488,6.7298,6.6917,6.6812,6.6791,6.6791,6.6791,6.6791,6.6875,6.7195,6.7448,6.7488,6.823,6.8389,6.8196,6.8486,6.9011,6.9433,6.9667,7.0267,7.0949,7.1109,7.1289,7.1289,7.1289,7.1289,7.1289,7.1289,7.1323,7.1582,7.2157,7.2868,7.3747,7.4728,7.51,7.5303,7.527,7.5168,7.51,7.4965,7.4593,7.4322,7.4119,7.3927,7.343,7.3,7.2565,7.1995,7.1325,7.078,7.0201,6.9917,6.9822,6.9798,6.9798,6.9798,6.9798,6.9798,6.9798,6.1098,6.1002,6.0281,5.9389,5.8505,5.8451,5.7908,5.7134,5.7699,5.8039,5.8208,5.8277,5.8346,5.8223,5.8323,5.8578,5.8823,5.9333,6.0293,6.1221,6.2164,6.3165,6.398,6.4608,6.5083,6.5548,6.5713,6.5767,6.5678,6.5432,6.5153,6.5022,6.4333,6.4285,6.437,6.424,6.444,6.5356,6.6039,6.6466,6.6715,6.6757,6.6791,6.6791,6.6791,6.6791,6.6791,6.6791,6.6791,6.7154,6.7174,6.7549,6.8152,6.8327,6.8113,6.7995,6.7856,6.7529,6.705,6.6791,6.6791,6.6791,6.6854,6.6917,6.7236,6.7696,6.8191,6.8234,6.9033,6.9328,6.9345,6.9451,6.9913,7.0164,7.0368,7.0789,7.1128,7.1232,7.1289,7.1289,7.1289,7.1289,7.1289,7.1289,7.1323,7.1413,7.1988,7.2732,7.3713,7.4796,7.5202,7.5405,7.5506,7.5506,7.5506,7.5439,7.5202,7.5067,7.4897,7.4705,7.4299,7.3696,7.3124,7.2461,7.1675,7.0828,7.0106,6.9936,6.9798,6.9798,6.9798,6.9798,6.9798,6.9798,6.9798,6.1098,6.1098,6.1002,6.0366,5.9455,5.9499,5.8944,5.8047,5.8131,5.8268,5.8528,5.9065,5.912,5.8737,5.9447,6.0071,6.0524,6.0566,6.1687,6.2903,6.3858,6.4343,6.4882,6.5335,6.5734,6.5965,6.6052,6.6074,6.6139,6.6201,6.6091,6.595,6.5237,6.5404,6.5469,6.531,6.5399,6.6115,6.661,6.6728,6.6791,6.6791,6.6791,6.6791,6.6791,6.6791,6.6812,6.6917,6.7298,6.7836,6.7916,6.8293,6.8959,6.9108,6.8884,6.8351,6.8211,6.7736,6.7071,6.6791,6.6833,6.6812,6.6938,6.7277,6.7856,6.7975,6.837,6.9126,6.9849,7.0026,7.008,7.0307,7.0702,7.0887,7.0953,7.1012,7.1238,7.1243,7.1289,7.1289,7.1289,7.1289,7.1289,7.1289,7.1289,7.1357,7.1954,7.2732,7.3646,7.4627,7.51,7.5405,7.5608,7.5642,7.5642,7.554,7.5439,7.5439,7.5337,7.5371,7.5337,7.4627,7.3711,7.2749,7.1918,7.0947,7.0125,6.9945,6.9798,6.9798,6.9798,6.9798,6.9798,6.9798,6.9798,6.1098,6.1098,6.1098,6.0527,5.9663,6.0259,5.9946,5.9256,5.9653,5.9925,5.9935,6.0771,6.1,6.0892,6.1404,6.208,6.2518,6.3023,6.3625,6.4295,6.5022,6.5432,6.5698,6.5786,6.603,6.6139,6.6259,6.6323,6.6366,6.6537,6.6622,6.6402,6.6051,6.6216,6.6259,6.6192,6.6356,6.6487,6.6749,6.6791,6.6791,6.6791,6.6791,6.6791,6.6791,6.7092,6.7448,6.7529,6.8034,6.8505,6.8714,6.92,6.9725,6.9867,6.9474,6.879,6.8619,6.8054,6.7112,6.6896,6.7022,6.7488,6.761,6.7876,6.8676,6.9126,6.951,7.0113,7.0647,7.0891,7.1582,7.1494,7.1444,7.1529,7.1572,7.1533,7.137,7.1367,7.1334,7.1334,7.1312,7.1289,7.1289,7.1289,7.1289,7.1357,7.1999,7.2732,7.3612,7.439,7.4897,7.5405,7.5642,7.5676,7.5676,7.5676,7.5676,7.5676,7.5676,7.5676,7.5628,7.5234,7.4305,7.3265,7.2104,7.1108,7.04,6.9955,6.9798,6.9798,6.9798,6.9798,6.9798,6.9798,6.9798,6.1098,6.1098,6.1098,6.0729,6.0173,6.0814,6.0696,6.0259,6.075,6.1285,6.145,6.1968,6.2375,6.2716,6.3081,6.362,6.3905,6.4391,6.492,6.534,6.5751,6.6139,6.6215,6.6259,6.628,6.6345,6.6452,6.6592,6.6613,6.6728,6.6749,6.6707,6.6698,6.6686,6.6728,6.6812,6.6812,6.6791,6.6791,6.6791,6.6791,6.6791,6.6791,6.6896,6.705,6.7407,6.7896,6.8191,6.879,6.9292,6.9618,6.9832,7.0251,7.0406,7.0007,6.9419,6.894,6.8524,6.761,6.7236,6.7549,6.8196,6.8351,6.879,6.9474,7.0113,7.0322,7.1139,7.1656,7.2167,7.2915,7.2714,7.2263,7.2333,7.2524,7.2458,7.1777,7.1546,7.1434,7.1379,7.1334,7.1289,7.1289,7.1289,7.1289,7.1289,7.156,7.236,7.3375,7.4086,7.4627,7.5168,7.5676,7.5676,7.5676,7.5676,7.5676,7.5676,7.5676,7.5676,7.5556,7.5161,7.4439,7.3179,7.2095,7.1226,7.0542,6.9955,6.9798,6.9798,6.9798,6.9798,6.9798,6.9798,6.9798,6.1119,6.1098,6.1119,6.1065,6.1002,6.1077,6.1056,6.0931,6.1123,6.1516,6.2068,6.2288,6.2858,6.3451,6.3805,6.4376,6.486,6.5103,6.5499,6.614,6.6189,6.6311,6.6473,6.658,6.6516,6.6728,6.6749,6.6728,6.677,6.6791,6.6791,6.6791,6.6749,6.6749,6.6791,6.6833,6.6833,6.6833,6.6917,6.705,6.7112,6.7174,6.7195,6.7325,6.7676,6.8113,6.8524,6.894,6.9564,7.0181,7.0354,7.0457,7.0558,7.1074,7.037,6.8714,6.9071,6.8828,6.8167,6.8088,6.8536,6.9122,6.9305,6.9776,7.0272,7.0686,7.1247,7.2309,7.2625,7.3072,7.353,7.3736,7.3258,7.3216,7.3382,7.3112,7.2456,7.1851,7.1786,7.1622,7.1412,7.1289,7.1289,7.1289,7.1289,7.1289,7.1289,7.2022,7.3138,7.3781,7.4356,7.5134,7.5676,7.5676,7.5676,7.5676,7.5676,7.5676,7.5676,7.5676,7.5401,7.4926,7.4037,7.2964,7.2042,7.1156,7.0448,6.9822,6.9798,6.9798,6.9798,6.9798,6.9798,6.9798,6.9798,6.1169,6.1293,6.1181,6.1252,6.1437,6.1223,6.1098,6.1185,6.1604,6.1968,6.2408,6.3245,6.3983,6.4424,6.4975,6.5459,6.5853,6.6018,6.6436,6.7155,6.6808,6.7037,6.7154,6.6896,6.6728,6.677,6.6791,6.6791,6.6791,6.6791,6.6791,6.6791,6.6875,6.6791,6.6946,6.7216,6.761,6.7731,6.8073,6.8409,6.837,6.8331,6.8312,6.8293,6.8619,6.8996,6.9401,6.9796,7.0337,7.0943,7.1025,7.1009,7.1009,7.1415,7.0825,6.9743,6.9955,7.0204,7.0236,7.0413,7.0184,7.0345,7.0575,7.1103,7.1768,7.2476,7.3018,7.3316,7.347,7.3941,7.4477,7.406,7.3777,7.418,7.4232,7.3729,7.3139,7.2617,7.2257,7.2034,7.1808,7.1434,7.1289,7.1289,7.1289,7.1289,7.1289,7.2124,7.3229,7.3601,7.4075,7.5067,7.5676,7.5676,7.5676,7.5676,7.5676,7.5676,7.5676,7.5676,7.5276,7.4752,7.3969,7.3073,7.2061,7.1052,7.0434,6.9917,6.9822,6.9798,6.9798,6.9798,6.9798,6.9798,6.9798,6.1334,6.1486,6.1375,6.1458,6.1608,6.1272,6.1218,6.1516,6.2001,6.2475,6.3245,6.4259,6.4977,6.5373,6.5926,6.6366,6.6635,6.6946,6.6833,6.763,6.7427,6.736,6.7277,6.7112,6.6833,6.6791,6.6791,6.6791,6.6791,6.6791,6.6791,6.6854,6.7071,6.7277,6.7427,6.7751,6.8132,6.8351,6.8828,6.9017,6.9036,6.9073,6.9091,6.9183,6.9456,6.9832,7.0303,7.0659,7.0976,7.1368,7.1479,7.1384,7.1304,7.1288,7.0943,7.0371,7.0642,7.1087,7.1711,7.2271,7.202,7.1854,7.2158,7.2593,7.3047,7.3389,7.3856,7.4158,7.4267,7.4738,7.5144,7.4634,7.4547,7.4936,7.4789,7.4283,7.3402,7.2811,7.2512,7.2292,7.1808,7.1479,7.1289,7.1289,7.1289,7.1289,7.1323,7.2293,7.3195,7.3534,7.4007,7.5067,7.5676,7.5676,7.5676,7.5676,7.5676,7.5676,7.5676,7.5676,7.5246,7.4712,7.3952,7.3104,7.1938,7.0968,7.0409,7.0035,6.9869,6.9798,6.9798,6.9798,6.9798,6.9798,6.9798,6.1526,6.1709,6.1689,6.1709,6.1648,6.1421,6.1633,6.2209,6.2342,6.3233,6.4657,6.4712,6.5395,6.6287,6.6485,6.6665,6.6896,6.7509,6.7529,6.7325,6.7509,6.7387,6.7154,6.6883,6.6812,6.6791,6.6791,6.6791,6.6812,6.7029,6.7043,6.7133,6.7716,6.8054,6.8234,6.8447,6.879,6.92,6.9547,6.9708,6.9761,6.9583,6.9672,6.9849,7.0129,7.0423,7.0778,7.1042,7.132,7.1494,7.1494,7.1074,7.0996,7.1211,7.0458,7.0362,7.1159,7.2029,7.2899,7.3538,7.3868,7.3724,7.3898,7.3997,7.3997,7.4231,7.4682,7.4991,7.5136,7.5587,7.5901,7.5526,7.5156,7.5263,7.5245,7.4489,7.3442,7.2894,7.2658,7.2283,7.1622,7.1312,7.1289,7.1289,7.1289,7.1289,7.1458,7.2191,7.3003,7.3398,7.4075,7.5236,7.5676,7.5676,7.5676,7.5676,7.5676,7.5676,7.5676,7.5642,7.5144,7.4671,7.3867,7.2941,7.1757,7.0899,7.0243,6.9941,6.9846,6.9798,6.9798,6.9798,6.9798,6.9798,6.9822,6.175,6.1877,6.177,6.187,6.2211,6.2475,6.2626,6.2749,6.3663,6.4574,6.4939,6.5679,6.6143,6.6507,6.6656,6.7071,6.7298,6.7488,6.7935,6.7916,6.761,6.7509,6.7305,6.705,6.6896,6.6791,6.6791,6.6812,6.698,6.7257,6.763,6.7796,6.8466,6.9033,6.9419,6.9672,6.9849,7.0042,7.0404,7.0575,7.0659,7.0642,7.0659,7.0775,7.0842,7.1074,7.1223,7.1392,7.1603,7.1567,7.1531,7.1304,7.132,7.1942,7.2047,7.2681,7.3161,7.3605,7.4307,7.4622,7.4919,7.5297,7.5442,7.5225,7.51,7.5189,7.5551,7.5696,7.5768,7.6058,7.622,7.5931,7.5742,7.5742,7.5655,7.5082,7.4072,7.3402,7.3093,7.2176,7.1546,7.1312,7.1289,7.1289,7.1289,7.1289,7.1594,7.2259,7.2868,7.3297,7.4143,7.5303,7.5676,7.5676,7.5676,7.5676,7.5676,7.5676,7.5676,7.5642,7.5337,7.4739,7.3836,7.2774,7.1555,7.0703,7.0021,6.9846,6.9798,6.9798,6.9798,6.9798,6.9798,6.9846,6.9893,6.1971,6.213,6.201,6.2312,6.2916,6.3492,6.3775,6.4055,6.4719,6.5179,6.5655,6.622,6.655,6.6656,6.6749,6.7009,6.7387,6.7488,6.7676,6.7488,6.7535,6.7427,6.7319,6.7092,6.6875,6.6791,6.6791,6.6791,6.705,6.761,6.8034,6.8543,6.9257,6.9849,7.0286,7.0524,7.0759,7.0943,7.1155,7.1431,7.1494,7.1494,7.1494,7.1494,7.1494,7.1531,7.1603,7.1712,7.1965,7.2074,7.213,7.2456,7.2493,7.2963,7.3543,7.404,7.4293,7.4744,7.5339,7.5537,7.5877,7.613,7.6292,7.6022,7.5877,7.5877,7.6058,7.6167,7.622,7.6292,7.6292,7.6275,7.6275,7.6258,7.5984,7.5725,7.4936,7.4111,7.318,7.2163,7.1666,7.1367,7.1289,7.1289,7.1289,7.1289,7.156,7.2157,7.28,7.3364,7.4278,7.5405,7.5642,7.5676,7.5676,7.5676,7.5676,7.5676,7.5676,7.5608,7.5405,7.4593,7.3454,7.239,7.1375,7.068,7.0129,6.9893,6.9798,6.9822,6.9846,6.9822,6.9869,6.9964,7.0035,6.2169,6.2381,6.2415,6.2767,6.3545,6.4221,6.4931,6.5621,6.5346,6.5643,6.6406,6.6528,6.6635,6.6728,6.6812,6.6959,6.7277,6.7468,6.7407,6.6959,6.7387,6.7387,6.7029,6.6791,6.6791,6.6791,6.6833,6.6917,6.7182,6.7995,6.894,6.9311,7.0077,7.0558,7.0692,7.109,7.1288,7.1336,7.1415,7.1578,7.1494,7.1494,7.1494,7.1494,7.1531,7.1567,7.1768,7.2203,7.2746,7.2999,7.3325,7.3724,7.3905,7.3941,7.4448,7.4882,7.5172,7.5515,7.5913,7.6058,7.613,7.6256,7.6292,7.6239,7.6167,7.6183,7.6292,7.6292,7.6292,7.6292,7.6292,7.6292,7.6292,7.6292,7.6157,7.5672,7.4881,7.3936,7.2825,7.196,7.1523,7.1289,7.1289,7.1289,7.1289,7.1289,7.1458,7.2022,7.28,7.3432,7.4356,7.5439,7.5608,7.5676,7.5676,7.5676,7.5676,7.5676,7.5676,7.5676,7.554,7.4424,7.3003,7.2019,7.1083,7.0821,7.0376,7.0153,6.9964,6.9988,6.9988,6.9893,6.9941,7.0129,7.02,6.2341,6.2415,6.2415,6.2821,6.3565,6.4309,6.5019,6.573,6.62,6.6441,6.6707,6.6707,6.6728,6.6791,6.6812,6.6988,6.7509,6.7277,6.7366,6.7277,6.7387,6.7174,6.6854,6.6791,6.6791,6.6791,6.6875,6.7257,6.7995,6.8996,6.9832,7.0182,7.0811,7.1107,7.1139,7.1494,7.151,7.1557,7.1672,7.1656,7.1557,7.151,7.1494,7.1531,7.1531,7.1893,7.2219,7.2601,7.3144,7.3543,7.3724,7.4194,7.4738,7.481,7.5208,7.5841,7.5913,7.6094,7.6167,7.6292,7.6292,7.6292,7.6292,7.6292,7.6292,7.6292,7.6292,7.6292,7.6292,7.6292,7.6292,7.6292,7.6292,7.6292,7.6242,7.5513,7.477,7.3597,7.244,7.1873,7.139,7.1289,7.1289,7.1289,7.1289,7.1289,7.1289,7.1751,7.28,7.3567,7.4322,7.5236,7.5574,7.5676,7.5676,7.5676,7.5676,7.5676,7.5676,7.5676,7.5608,7.439,7.3014,7.176,7.0848,7.0699,7.0538,7.0316,7.0176,7.02,7.0176,7.0129,7.0293,7.0446,7.0469,6.2415,6.2448,6.2753,6.3328,6.4018,6.4783,6.5493,6.617,6.6643,6.6791,6.6791,6.6791,6.6791,6.6791,6.6812,6.6959,6.7387,6.7009,6.705,6.7133,6.7133,6.6938,6.6791,6.6791,6.6791,6.6833,6.7319,6.7896,6.8959,6.9689,7.0406,7.0861,7.1368,7.1526,7.1609,7.164,7.1672,7.1728,7.1842,7.1863,7.1755,7.1687,7.164,7.1625,7.194,7.2307,7.2798,7.3217,7.4013,7.4484,7.481,7.5136,7.5551,7.5623,7.5841,7.6094,7.6256,7.6292,7.6292,7.6328,7.6364,7.6364,7.6364,7.6364,7.6292,7.6292,7.6292,7.6292,7.6292,7.6292,7.6292,7.6292,7.6292,7.6292,7.614,7.5654,7.4321,7.2887,7.209,7.159,7.1289,7.1289,7.1289,7.1289,7.1289,7.1289,7.1289,7.1921,7.2868,7.3703,7.4492,7.5134,7.5506,7.5676,7.5676,7.5676,7.5676,7.5676,7.5676,7.5168,7.4796,7.4052,7.3058,7.1772,7.0961,7.0814,7.0664,7.0479,7.041,7.0353,7.0386,7.0363,7.0538,7.0756,7.079,6.2448,6.2618,6.3226,6.3984,6.4783,6.5392,6.6068,6.669,6.6791,6.6791,6.6791,6.6791,6.6791,6.6791,6.6791,6.6791,6.6812,6.6854,6.6875,6.6875,6.6854,6.6791,6.6791,6.6791,6.6917,6.7407,6.8034,6.9015,7.0113,7.0575,7.096,7.1431,7.1593,7.164,7.1765,7.1826,7.1857,7.1985,7.2134,7.2237,7.214,7.2048,7.2029,7.219,7.2511,7.2903,7.345,7.4086,7.4991,7.5426,7.5732,7.5949,7.6058,7.6094,7.613,7.6292,7.6292,7.6292,7.6328,7.6492,7.6529,7.6529,7.6509,7.6618,7.6618,7.6546,7.6546,7.6473,7.6473,7.6328,7.6328,7.6292,7.6292,7.6174,7.595,7.5442,7.3819,7.2398,7.1873,7.1367,7.1289,7.1289,7.1289,7.1289,7.1289,7.1289,7.1695,7.2394,7.3105,7.3815,7.4559,7.5134,7.5574,7.5676,7.5676,7.5676,7.5676,7.5676,7.5574,7.4728,7.4075,7.3669,7.2969,7.1774,7.1098,7.1007,7.0893,7.0733,7.0664,7.0641,7.0584,7.0641,7.0779,7.0972,7.1096,6.2753,6.3308,6.3443,6.4275,6.5412,6.5683,6.6102,6.6724,6.6791,6.6791,6.6791,6.6791,6.6791,6.6791,6.6791,6.6791,6.6791,6.6791,6.6791,6.6812,6.6791,6.6791,6.6959,6.7236,6.7284,6.8054,6.9033,7.0025,7.0661,7.1042,7.1384,7.1723,7.1755,7.1796,7.1948,7.1994,7.2134,7.237,7.2868,7.3206,7.3197,7.3076,7.2886,7.3136,7.3493,7.4107,7.4642,7.4919,7.5462,7.5913,7.6167,7.6256,7.6292,7.6292,7.6292,7.6364,7.6364,7.6456,7.6565,7.7,7.7181,7.7326,7.747,7.7905,7.7796,7.7434,7.7326,7.7053,7.6908,7.6437,7.6364,7.6328,7.6258,7.5933,7.5654,7.4492,7.3058,7.2427,7.1969,7.1556,7.1289,7.1289,7.1289,7.1323,7.1357,7.1492,7.1921,7.2597,7.3443,7.4086,7.4661,7.5134,7.5642,7.5676,7.5676,7.5676,7.5676,7.5676,7.5506,7.4762,7.4153,7.3669,7.2834,7.1661,7.1267,7.1222,7.1075,7.0961,7.0984,7.0939,7.087,7.0893,7.103,7.1266,7.1469]}]]